[[[{"header":{"parameterUnit":"kt","parameterCategory":2,"dx":1,"dy":1,"la1":29.587661999999998,"la2":31.0,"lo1":-88.76705300000003,"lo2":-86.6583820000003,"nx":115,"ny":88,"refTime":"2022-10-03T12:00:00:Z","depth":0,"parameterNumber":1,"parameterNumberName":"U-component_of_WINDS"},"data":[-0.3456,-0.3346,-0.1835,-0.1295,-0.1078,0.0108,0.0755,0.0863,0.097,0.1295,0.1184,0.1076,0.0852,0.0932,0.0931,0.1245,0.1148,0.1353,0.1451,0.1862,0.2605,0.2286,0.2486,0.3312,0.2474,0.3165,0.4142,0.4414,0.6201,0.6527,0.6374,0.6682,0.6579,0.6674,0.6766,0.7356,0.8254,0.7869,0.8041,0.8324,0.6861,0.5586,0.5386,0.4995,0.4995,0.5093,0.0,0.0,0.0,0.0,0.4701,0.4505,0.4408,0.4114,0.3624,0.2744,0.2549,0.1863,0.0,0.0,0.1961,0.2352,0.3234,0.4212,0.5579,0.6554,0.6718,0.7983,0.7204,0.6205,0.7332,0.7581,0.7979,0.9702,1.0469,1.1398,1.2722,1.3029,1.3111,1.3006,1.3068,1.3308,1.3362,1.3785,1.3792,1.3792,1.3792,1.3792,1.3792,1.3792,1.3792,1.3924,1.4048,1.391,1.3884,1.3922,1.4228,1.4492,1.4921,1.6197,1.7127,1.7884,1.9981,2.3249,2.4661,2.5228,2.6183,2.7208,2.7372,2.7372,2.7385,2.7385,2.7385,2.7385,2.7385,-0.3339,-0.3335,-0.3024,-0.2919,-0.2917,-0.2711,-0.2504,-0.2296,-0.1043,-0.0522,-0.0521,-0.1876,-0.2603,-0.2693,-0.2587,-0.1552,-0.0826,-0.0513,0.0618,0.1236,0.1546,0.1231,0.1328,0.1833,0.1622,0.201,0.2786,0.3462,0.4047,0.4815,0.5386,0.6073,0.6269,0.6171,0.6269,0.6464,0.6168,0.5777,0.607,0.6266,0.4799,0.0,0.0,0.0,0.0785,0.0785,0.0,0.0,0.0,0.0,0.0,0.0,0.0,0.0,0.0,0.0,0.0,0.0,0.0,0.0,0.0,0.1863,0.2744,0.3918,0.5384,0.575,0.5122,0.5072,0.4229,0.4283,0.6139,0.7224,0.7421,0.821,0.834,0.8738,1.0307,1.1662,1.1565,1.1392,1.1732,1.2249,1.2748,1.3521,1.3699,1.3792,1.3792,1.3792,1.3825,1.394,1.3957,1.4028,1.4224,1.4189,1.4051,1.4336,1.4835,1.4992,1.5184,1.6576,1.7833,1.8844,2.0608,2.3567,2.5039,2.5686,2.6544,2.6785,2.729,2.7385,2.7385,2.7385,2.7385,2.7385,2.7385,-0.3312,-0.3312,-0.3312,-0.3312,-0.3312,-0.3312,-0.3312,-0.3209,-0.2484,-0.2151,-0.2317,-0.2815,-0.3218,-0.3117,-0.3218,-0.2509,-0.2208,-0.2113,-0.1211,-0.1007,-0.1103,-0.0604,-0.0502,-0.0498,-0.01,0.0,0.0689,0.1275,0.1375,0.0,0.0,0.2549,0.2647,0.2647,0.2744,0.382,0.3918,0.3038,0.4016,0.3626,0.2157,0.0,0.0,0.0,0.0,0.0,0.0,0.0,0.0,0.0,0.0,0.0,0.0,0.0,0.0,0.0,0.0,0.0,0.0,0.0,0.0,0.0687,0.1275,0.1663,0.3322,0.3909,0.331,0.3295,0.2495,0.2467,0.4379,0.5183,0.5491,0.6149,0.6463,0.6092,0.6918,0.8684,0.9466,0.9471,0.9817,1.0325,1.0908,1.1676,1.2063,1.2052,1.2687,1.2625,1.3618,1.403,1.4065,1.4093,1.446,1.446,1.4482,1.4919,1.5298,1.5332,1.5344,1.6219,1.7036,1.8883,2.0453,2.1708,2.3133,2.4858,2.5661,2.5594,2.5949,2.729,2.7454,2.7454,2.7385,2.7385,2.7536,-0.3271,-0.3271,-0.3273,-0.3273,-0.3271,-0.3271,-0.3269,-0.3271,-0.3273,-0.3122,-0.3155,-0.3047,-0.305,-0.3157,-0.3159,-0.306,-0.2956,-0.2771,-0.3049,-0.2759,-0.2663,-0.2177,-0.236,-0.1873,-0.1869,-0.1767,-0.1375,-0.0687,-0.0098,0.0,0.0,0.0,0.0,0.0,0.0,0.1569,0.1863,0.0981,0.1765,0.1569,0.0,0.0,0.0,0.0,0.0,0.0,0.0,0.0,0.0,0.0,0.0,0.0,0.0,0.0,0.0,0.0,0.0,0.0,0.0,0.0,0.0,0.0294,0.0391,0.0293,0.0482,0.103,0.1382,0.1562,0.1552,0.1716,0.2062,0.2499,0.2928,0.3869,0.462,0.3838,0.3142,0.5048,0.7042,0.7476,0.7822,0.8239,0.8819,0.9345,0.9728,1.0425,1.1184,1.1966,1.2973,1.3495,1.3355,1.3794,1.4259,1.5005,1.5115,1.5332,1.5612,1.5682,1.5623,1.572,1.5918,1.72,1.8415,1.98,2.1486,2.3427,2.4635,2.4767,2.5841,2.7182,2.7687,2.7933,2.7864,2.7851,2.7919,-0.3159,-0.3061,-0.3156,-0.3165,-0.3157,-0.3164,-0.3164,-0.3058,-0.3167,-0.3152,-0.3147,-0.3045,-0.3045,-0.3045,-0.3045,-0.3045,-0.3045,-0.3045,-0.3045,-0.3046,-0.3045,-0.2946,-0.275,-0.2553,-0.2258,-0.1866,-0.1473,-0.108,-0.0687,0.0,0.0,0.0,0.0,0.0,0.0,0.0,0.0,0.0,0.0,0.0,0.0,0.0,0.0,0.0,0.0,0.0,0.0,0.0,0.0,0.0,0.0,0.0,0.0,0.0,0.0,0.0,0.0,0.0,0.0,0.0,0.0,0.0389,0.0773,0.0958,0.1131,0.1562,0.181,0.1981,0.1879,0.1861,0.2034,0.238,0.2552,0.3149,0.3658,0.3225,0.279,0.3486,0.5046,0.5648,0.607,0.6869,0.7351,0.7539,0.8081,0.9383,1.0362,1.1257,1.1949,1.2345,1.2696,1.321,1.4307,1.5461,1.5524,1.5668,1.5859,1.5958,1.587,1.5863,1.5669,1.5989,1.6523,1.8443,2.039,2.2262,2.4259,2.5596,2.6734,2.7579,2.8001,2.8328,2.8477,2.8464,2.8477,-0.3045,-0.3045,-0.3045,-0.3045,-0.3045,-0.3045,-0.3045,-0.3045,-0.3045,-0.3045,-0.3045,-0.3143,-0.3045,-0.3045,-0.3045,-0.3045,-0.3045,-0.3045,-0.3045,-0.3045,-0.3045,-0.2946,-0.2651,-0.2455,-0.2258,-0.1866,-0.1375,-0.108,-0.0687,0.0,0.0,0.0,0.0,0.0,0.0,0.0,0.0,0.0,0.0,0.0,0.0,0.0,0.0,0.0,0.0,0.0,0.0,0.0,0.0,0.0,0.0,0.0,0.0,0.0,0.0,0.0,0.0,0.0,0.0,0.0,0.0,0.0285,0.0565,0.1305,0.1834,0.2076,0.223,0.2388,0.228,0.2267,0.2442,0.2616,0.2703,0.2703,0.2703,0.2703,0.2703,0.2703,0.3222,0.3912,0.4649,0.5448,0.5859,0.598,0.6634,0.7847,0.8835,0.9702,1.0216,1.1148,1.2137,1.3106,1.4512,1.5995,1.5942,1.6023,1.613,1.615,1.6019,1.5797,1.5329,1.5499,1.578,1.7303,1.9269,2.1623,2.3898,2.5586,2.7337,2.7729,2.8233,2.8503,2.866,2.8715,2.8646,-0.4901,-0.4901,-0.4901,-0.4511,-0.4121,-0.4705,-0.4901,-0.4803,-0.4217,-0.4023,-0.3926,-0.3436,-0.3143,-0.3045,-0.3143,-0.3045,-0.3045,-0.3045,-0.3045,-0.3045,-0.3045,-0.2848,-0.2749,-0.2553,-0.2258,-0.1964,-0.1669,-0.1473,-0.0884,0.0,0.0,0.0,0.0,0.0,0.0,0.0,0.0,0.0,0.0,0.0,0.0,0.0,0.0,0.0,0.0,0.0,0.0,0.0,0.0,0.0,0.0,0.0,0.0,0.0,0.0,0.0,0.0,0.0,0.0,0.0,0.0189,0.056,0.1008,0.181,0.2323,0.2648,0.2628,0.2626,0.2531,0.2529,0.2616,0.2703,0.2703,0.2703,0.2703,0.2701,0.2697,0.2693,0.2771,0.3358,0.3716,0.4425,0.4784,0.5089,0.5801,0.6287,0.6948,0.764,0.8562,1.0433,1.1699,1.3147,1.4619,1.6343,1.6522,1.6629,1.6473,1.6312,1.6167,1.5937,1.5549,1.5296,1.5168,1.6203,1.8061,2.0488,2.3309,2.566,2.7669,2.8112,2.849,2.8695,2.8798,2.8719,2.8585,-0.9086,-0.9086,-0.9179,-0.7822,-0.6654,-0.8115,-0.8891,-0.8793,-0.6944,-0.6168,-0.607,-0.4219,-0.3632,-0.3338,-0.3241,-0.3241,-0.3143,-0.3045,-0.3045,-0.3045,-0.3045,-0.3045,-0.3045,-0.2946,-0.2651,-0.2455,-0.2062,-0.1571,-0.0884,-0.0687,-0.0393,0.0,0.0,0.0,0.0,-0.0589,-0.0393,0.0,0.0,0.0,0.0,0.0,0.0,0.0,0.0,0.0,0.0,0.0,0.0,0.0,0.0,0.0,0.0,0.0,0.0,0.0,0.0,0.0,0.0,0.0,0.0462,0.128,0.1789,0.1937,0.2272,0.2625,0.2703,0.2703,0.2703,0.2703,0.2703,0.2703,0.2701,0.2775,0.2775,0.2839,0.2835,0.2839,0.2827,0.305,0.3405,0.3751,0.4267,0.4558,0.5346,0.5939,0.664,0.7286,0.8871,1.0614,1.1795,1.3261,1.5328,1.6893,1.7311,1.7319,1.7185,1.6629,1.6448,1.6029,1.5913,1.5633,1.5963,1.6566,1.7502,1.9716,2.3291,2.5904,2.7801,2.8591,2.8914,2.8905,2.8163,2.8234,2.8418,-0.928,-0.928,-0.928,-0.8891,-0.8696,-1.0456,-1.0554,-0.928,-0.8599,-0.8209,-0.8115,-0.753,-0.6461,-0.5391,-0.4999,-0.4705,-0.3143,-0.3143,-0.3143,-0.3045,-0.3143,-0.3338,-0.3338,-0.3045,-0.3338,-0.2651,-0.2258,-0.1767,-0.1276,-0.0982,-0.0687,-0.0393,0.0,-0.1373,-0.196,-0.1471,-0.0883,0.0,0.0,0.0,0.0,0.0,0.0,0.0,0.0,0.0,0.0,0.0,0.0,0.0,0.0,0.0,0.0,0.0,0.0,-0.1449,-0.0953,0.0,0.0,0.0,0.0813,0.1792,0.2028,0.2268,0.2529,0.2616,0.2703,0.2701,0.2703,0.2702,0.2699,0.2703,0.2856,0.3137,0.3195,0.3363,0.3441,0.3408,0.3488,0.3711,0.3973,0.4289,0.4686,0.4901,0.524,0.5873,0.6515,0.8065,0.9592,1.0809,1.1973,1.4343,1.655,1.7032,1.7252,1.7662,1.7466,1.7016,1.6474,1.5921,1.5749,1.6037,1.677,1.7436,1.8719,2.0554,2.3731,2.5979,2.7538,2.859,2.8877,2.8396,2.7691,2.7747,2.8046,-1.1424,-1.1424,-1.1424,-1.1424,-1.1623,-1.2895,-1.2792,-1.1521,-1.1424,-1.1035,-1.0355,-0.9475,-0.8407,-0.7725,-0.7139,-0.6654,-0.529,-0.4901,-0.4901,-0.4999,-0.4609,-0.4609,-0.5195,-0.5584,-0.4999,-0.4217,-0.3531,-0.3139,-0.1963,-0.1571,-0.1276,-0.1667,-0.245,-0.3233,-0.4208,-0.3918,-0.2548,-0.2156,-0.196,-0.2058,0.0,0.0,0.0,0.0,0.0,0.0,0.0,-0.3528,-0.3997,-0.4166,-0.4742,-0.5492,-0.5268,-0.4879,-0.3909,-0.3502,-0.2147,-0.0922,-0.0817,-0.0089,0.0795,0.1757,0.2267,0.253,0.2616,0.2703,0.2689,0.2765,0.2753,0.2737,0.2739,0.282,0.2978,0.3254,0.3546,0.3694,0.3947,0.3923,0.4028,0.424,0.4199,0.4426,0.4849,0.5082,0.587,0.6543,0.7019,0.8423,0.9616,1.0705,1.1947,1.4666,1.6251,1.6651,1.7269,1.7665,1.7619,1.7239,1.6722,1.6216,1.6129,1.626,1.6909,1.7574,1.9433,2.1328,2.3522,2.5558,2.7256,2.8158,2.805,2.7676,2.7166,2.7152,2.7525,-1.5335,-1.5528,-1.5335,-1.5335,-1.5135,-1.5528,-1.5335,-1.4844,-1.4941,-1.4064,-1.2404,-1.0841,-0.9771,-0.9475,-0.9382,-0.8895,-0.8115,-0.6947,-0.6947,-0.7725,-0.6947,-0.7533,-0.8115,-0.831,-0.7335,-0.6559,-0.5875,-0.4799,-0.3041,-0.3236,-0.3724,-0.4308,-0.5184,-0.6153,-0.7618,-0.7234,-0.6648,-0.6158,-0.575,-0.5456,-0.5354,-0.5146,-0.514,-0.5039,-0.5037,-0.4835,-0.5028,-0.5607,-0.6054,-0.6194,-0.6655,-0.6992,-0.6729,-0.6246,-0.5757,-0.5545,-0.382,-0.2883,-0.2686,-0.1497,-0.0262,0.1046,0.1646,0.1993,0.2434,0.2685,0.2663,0.2707,0.2785,0.276,0.2814,0.2954,0.3203,0.351,0.3751,0.4011,0.4231,0.4376,0.4454,0.4593,0.4462,0.4426,0.4957,0.552,0.642,0.7152,0.7605,0.8374,0.9451,1.0523,1.1678,1.368,1.4861,1.5388,1.6196,1.7084,1.766,1.7553,1.7176,1.6998,1.6861,1.6723,1.6992,1.7574,1.9444,2.1812,2.3569,2.5252,2.6598,2.7837,2.7525,2.7399,2.6753,2.651,2.6982,-1.5528,-1.5528,-1.5528,-1.5528,-1.5528,-1.5528,-1.5528,-1.5528,-1.5528,-1.5141,-1.4651,-1.4064,-1.2992,-1.1822,-1.1433,-1.0947,-0.9674,-0.8895,-0.8988,-0.8988,-0.8988,-0.8891,-0.9086,-0.9378,-0.9475,-0.8599,-0.8011,-0.7621,-0.6356,-0.6648,-0.6832,-0.7413,-0.8584,-0.9379,-0.9788,-0.8064,-0.6346,-0.5999,-0.5891,-0.586,-0.6123,-0.6075,-0.603,-0.613,-0.6229,-0.6229,-0.6612,-0.7463,-0.7893,-0.8321,-0.8941,-0.9745,-0.9439,-0.885,-0.7972,-0.7173,-0.6108,-0.4632,-0.4056,-0.3229,-0.2264,-0.1039,-0.0086,0.0682,0.1188,0.1932,0.2009,0.2315,0.2725,0.3131,0.312,0.3332,0.3559,0.3835,0.407,0.4285,0.4498,0.4606,0.4744,0.4813,0.4886,0.4805,0.5338,0.5959,0.6889,0.7775,0.8476,0.9339,0.9912,1.0476,1.1453,1.2486,1.3542,1.4308,1.4989,1.5828,1.6484,1.6481,1.705,1.7093,1.7475,1.6964,1.7066,1.8311,2.0125,2.2237,2.4036,2.5616,2.6702,2.7473,2.7619,2.7707,2.7153,2.6847,2.6988,-1.5715,-1.5528,-1.5528,-1.5528,-1.5528,-1.5528,-1.5528,-1.5528,-1.5528,-1.5528,-1.5528,-1.5528,-1.4844,-1.3967,-1.3585,-1.2895,-1.1817,-1.104,-1.1234,-1.1331,-1.104,-1.1137,-1.1715,-1.1817,-1.1234,-1.0549,-1.0253,-0.986,-0.9082,-0.8498,-0.9055,-1.0502,-1.1467,-1.2153,-1.16,-0.9979,-0.8856,-0.8421,-0.8198,-0.8169,-0.8156,-0.8077,-0.8037,-0.8033,-0.8033,-0.8033,-0.8122,-0.9321,-0.965,-1.0071,-1.0876,-1.1073,-1.0908,-1.0171,-0.9666,-0.932,-0.7526,-0.6424,-0.5844,-0.5309,-0.4501,-0.361,-0.2111,-0.0917,-0.0749,-0.0082,0.049,0.0889,0.0968,0.1439,0.2156,0.2944,0.358,0.4159,0.4433,0.4569,0.4759,0.4741,0.4881,0.496,0.5033,0.5262,0.5794,0.632,0.7298,0.8371,0.9394,1.0124,1.0161,1.049,1.1026,1.1932,1.2394,1.3048,1.3391,1.4284,1.5269,1.5904,1.6626,1.7456,1.8297,1.7805,1.7952,1.9485,2.1125,2.2613,2.4227,2.6001,2.6985,2.7513,2.7779,2.7821,2.7639,2.7369,2.748,-1.6197,-1.6011,-1.5915,-1.6011,-1.5908,-1.5625,-1.5528,-1.5625,-1.5625,-1.5528,-1.5528,-1.5528,-1.5528,-1.5335,-1.5141,-1.5141,-1.5238,-1.3482,-1.3676,-1.3973,-1.3876,-1.3676,-1.4161,-1.4457,-1.4167,-1.2895,-1.2501,-1.1521,-1.0443,-1.0579,-1.2068,-1.4324,-1.3133,-1.3081,-1.2525,-1.1483,-1.094,-1.079,-1.0785,-1.0991,-1.1132,-1.1102,-1.1173,-1.1275,-1.1574,-1.1778,-1.1686,-1.1441,-1.1268,-1.1105,-1.1366,-1.1392,-1.1297,-1.0823,-1.0735,-1.0424,-0.892,-0.8011,-0.7357,-0.6899,-0.6429,-0.5308,-0.3978,-0.3032,-0.2606,-0.2441,-0.2092,-0.15,-0.0472,-0.0078,0.0849,0.1604,0.2701,0.3304,0.3767,0.3905,0.3901,0.4193,0.465,0.4954,0.5338,0.587,0.6482,0.6261,0.7065,0.7901,0.8883,0.9399,0.9546,1.0154,1.0607,1.0976,1.1427,1.174,1.2002,1.2782,1.3934,1.4801,1.6173,1.7474,1.8699,1.914,1.8909,2.0216,2.1175,2.2685,2.4165,2.483,2.5671,2.6927,2.7589,2.7372,2.7235,2.7565,2.7831,-1.8108,-2.0571,-1.9051,-1.8484,-1.83,-1.639,-1.5818,-1.6101,-1.5818,-1.5625,-1.5528,-1.5528,-1.5528,-1.5528,-1.5528,-1.5528,-1.5528,-1.5038,-1.5238,-1.5238,-1.5141,-1.5038,-1.5335,-1.5528,-1.5238,-1.4844,-1.4433,-1.401,-1.343,-1.3224,-1.3006,-1.4124,-1.3347,-1.2804,-1.2424,-1.192,-1.1498,-1.1392,-1.1371,-1.1439,-1.1513,-1.1424,-1.1365,-1.1246,-1.123,-1.1225,-1.123,-1.1334,-1.1339,-1.1244,-1.1249,-1.1146,-1.1083,-1.1057,-1.1057,-1.0792,-1.0301,-0.939,-0.8531,-0.7978,-0.7649,-0.7131,-0.6457,-0.5336,-0.4466,-0.3048,-0.2391,-0.1851,-0.1309,-0.0538,0.0458,0.1069,0.1756,0.2289,0.2973,0.2822,0.2822,0.3431,0.3886,0.4327,0.507,0.5917,0.6183,0.6196,0.6624,0.7448,0.8047,0.8541,0.9121,0.9762,1.0115,1.0313,1.067,1.0965,1.1388,1.1972,1.2759,1.3883,1.5666,1.7131,1.8311,1.8972,1.9789,2.0508,2.1308,2.2577,2.3623,2.373,2.4007,2.5384,2.6537,2.661,2.7232,2.7791,2.8165,-2.1047,-2.2945,-2.1618,-2.1047,-2.0857,-1.9529,-1.8484,-1.7724,-1.7339,-1.6576,-1.5721,-1.5528,-1.5528,-1.5528,-1.5528,-1.5528,-1.5528,-1.5431,-1.5528,-1.5528,-1.5528,-1.5528,-1.5521,-1.5528,-1.5528,-1.5399,-1.5417,-1.5325,-1.4956,-1.4355,-1.4029,-1.3829,-1.2995,-1.261,-1.2054,-1.1598,-1.1337,-1.1186,-1.1154,-1.1125,-1.127,-1.1223,-1.1068,-1.1068,-1.1073,-1.1078,-1.1083,-1.1057,-1.1057,-1.1057,-1.1057,-1.1057,-1.1057,-1.1057,-1.096,-1.0858,-1.0538,-0.9774,-0.883,-0.8486,-0.8053,-0.7778,-0.7474,-0.7016,-0.5699,-0.4383,-0.3281,-0.2741,-0.2284,-0.1523,-0.0762,0.0076,0.0535,0.1145,0.1907,0.1908,0.2213,0.2746,0.3252,0.384,0.4497,0.5004,0.5501,0.5474,0.5843,0.678,0.7635,0.83,0.8991,0.9749,1.0051,0.9976,1.0121,1.0499,1.1103,1.1555,1.2458,1.3568,1.5351,1.6835,1.8007,1.9266,2.0435,2.1236,2.1337,2.1936,2.3017,2.3319,2.3352,2.4282,2.5333,2.6579,2.7736,2.8235,2.8514,-2.4645,-2.4634,-2.388,-2.3607,-2.3513,-2.303,-2.1703,-2.0007,-1.9816,-1.8388,-1.6865,-1.6487,-1.6487,-1.6197,-1.6101,-1.5818,-1.5625,-1.5528,-1.5528,-1.5508,-1.5462,-1.543,-1.5462,-1.5469,-1.5331,-1.5286,-1.5222,-1.5078,-1.5813,-1.559,-1.4891,-1.4586,-1.4056,-1.3024,-1.3339,-1.2913,-1.1743,-1.1829,-1.1657,-1.1489,-1.15,-1.1241,-1.1144,-1.1057,-1.1057,-1.1057,-1.1057,-1.1057,-1.1057,-1.1057,-1.1057,-1.0971,-1.0965,-1.0955,-1.0655,-1.0114,-0.9475,-0.8822,-0.8483,-0.8224,-0.7989,-0.7658,-0.7313,-0.6926,-0.6008,-0.5112,-0.4495,-0.4802,-0.4039,-0.2895,-0.183,-0.1144,-0.0382,0.0305,0.0835,0.1211,0.1361,0.1571,0.2442,0.3015,0.2752,0.3477,0.4152,0.4534,0.5005,0.6213,0.7278,0.8126,0.8972,1.004,1.0569,1.004,1.004,1.072,1.1323,1.1555,1.2382,1.3269,1.4979,1.6613,1.7648,1.8752,2.0289,2.082,2.0961,2.1294,2.2273,2.2775,2.2885,2.3748,2.5335,2.6677,2.8025,2.8583,2.9001,-2.9164,-2.87,-2.6989,-2.6241,-2.5888,-2.4079,-2.2945,-2.2481,-2.2102,-2.1332,-2.058,-2.0389,-1.9434,-1.8388,-1.782,-1.7147,-1.5528,-1.5695,-1.5764,-1.5814,-1.5754,-1.537,-1.5209,-1.5091,-1.5363,-1.5682,-1.5404,-1.6231,-1.7745,-1.7766,-1.7678,-1.7045,-1.6593,-1.6259,-1.5833,-1.5071,-1.5491,-1.4985,-1.4135,-1.3282,-1.2852,-1.1916,-1.1057,-1.1057,-1.1057,-1.1047,-1.1026,-1.101,-1.1005,-1.1005,-1.0832,-1.0589,-1.0493,-1.0107,-0.9446,-0.8638,-0.833,-0.7969,-0.7729,-0.7652,-0.7579,-0.7305,-0.6761,-0.6368,-0.5797,-0.5109,-0.4574,-0.4039,-0.3656,-0.3125,-0.2288,-0.2136,-0.1677,-0.0988,-0.0225,0.0222,0.0295,0.0733,0.1592,0.1704,0.1119,0.1397,0.1901,0.2339,0.3422,0.4521,0.5835,0.6832,0.7908,0.9199,0.9878,0.9576,1.0261,1.1021,1.1555,1.1787,1.2382,1.3126,1.4465,1.5871,1.6983,1.8105,1.864,1.9212,1.9602,2.0429,2.1361,2.2133,2.2754,2.3748,2.5279,2.6578,2.7646,2.8359,2.9139,-3.0577,-3.0313,-2.9257,-2.8781,-2.8514,-2.7105,-2.5877,-2.4843,-2.4184,-2.3135,-2.2092,-2.1713,-2.1142,-2.0389,-2.0198,-1.9509,-1.84,-1.7906,-1.7813,-1.7798,-1.7643,-1.7543,-1.7695,-1.7578,-1.7394,-1.7293,-1.7109,-1.8057,-1.9343,-1.921,-1.8741,-1.8545,-1.7952,-1.7451,-1.7289,-1.6941,-1.6515,-1.6267,-1.5584,-1.5078,-1.4992,-1.3368,-1.1916,-1.136,-1.0963,-1.09,-1.0868,-1.089,-1.0811,-1.079,-1.0528,-1.0228,-0.978,-0.9018,-0.8011,-0.7631,-0.7419,-0.7292,-0.7145,-0.7151,-0.7034,-0.6679,-0.6299,-0.5715,-0.503,-0.4498,-0.3889,-0.3279,-0.2974,-0.2517,-0.1982,-0.181,-0.1728,-0.1419,-0.0954,-0.0579,-0.0432,0.0,0.063,0.1162,0.0883,0.0748,0.0616,0.1266,0.1945,0.3023,0.4301,0.539,0.6468,0.7454,0.8358,0.9043,1.0795,1.1479,1.1938,1.2013,1.2389,1.2908,1.3808,1.4913,1.5985,1.7234,1.7736,1.7794,1.8617,1.9489,2.0444,2.1648,2.2723,2.38,2.5067,2.631,2.7295,2.8413,2.9331,-3.0761,-3.0761,-3.0761,-3.0761,-3.0669,-3.03,-2.8805,-2.6929,-2.6356,-2.4843,-2.3229,-2.2955,-2.304,-2.2472,-2.2377,-2.168,-2.0588,-1.9918,-1.9816,-1.9807,-1.9755,-1.9622,-1.9488,-1.9276,-2.0145,-2.0554,-2.0524,-2.0246,-2.0516,-2.0131,-2.0561,-1.9719,-1.9306,-1.8893,-1.8554,-1.7791,-1.7969,-1.8054,-1.7374,-1.7034,-1.6576,-1.5162,-1.3484,-1.2276,-1.214,-1.1896,-1.1666,-1.1277,-1.0894,-1.0763,-1.0266,-0.9873,-0.9426,-0.8057,-0.7165,-0.6929,-0.6841,-0.6816,-0.6735,-0.6773,-0.6353,-0.5983,-0.5569,-0.4873,-0.4115,-0.3584,-0.3128,-0.252,-0.2062,-0.1674,-0.1215,-0.1335,-0.1173,-0.109,-0.0931,-0.0845,-0.0422,-0.007,0.0274,0.0868,0.0864,0.0732,0.1237,0.1769,0.2327,0.3057,0.4693,0.6154,0.556,0.5484,0.6464,0.8438,1.0644,1.1479,1.1781,1.1555,1.2157,1.2526,1.3344,1.4375,1.4914,1.6225,1.6664,1.6331,1.6847,1.8337,1.9755,2.0892,2.2149,2.3743,2.4895,2.6056,2.7505,2.8969,2.9799,-3.0761,-3.0761,-3.0761,-3.0761,-3.0669,-3.059,-2.985,-2.8923,-2.8749,-2.7886,-2.7513,-2.7513,-2.6009,-2.5104,-2.4791,-2.3244,-2.1632,-2.0693,-2.0765,-2.0719,-2.0564,-2.0538,-2.0367,-2.0438,-2.1225,-2.3818,-2.3482,-2.3521,-2.351,-2.376,-2.2927,-2.3021,-2.2625,-2.1703,-2.1629,-2.1377,-2.0694,-2.0338,-1.9382,-1.8763,-1.8483,-1.6702,-1.5373,-1.439,-1.4159,-1.4028,-1.3724,-1.3002,-1.2267,-1.2037,-1.0181,-0.9509,-0.9093,-0.7978,-0.6725,-0.6409,-0.6425,-0.6465,-0.6515,-0.6175,-0.5823,-0.581,-0.4879,-0.3947,-0.3572,-0.3036,-0.25,-0.205,-0.1743,-0.1507,-0.1185,-0.1086,-0.0929,-0.0709,-0.0627,-0.0343,0.0205,0.0671,0.0667,0.0918,0.092,0.107,0.1587,0.2124,0.2562,0.3308,0.5448,0.6389,0.4193,0.3433,0.4574,0.632,0.9047,1.0418,0.9954,0.9722,1.1461,1.2281,1.3165,1.3488,1.3571,1.4684,1.5401,1.5012,1.5713,1.7413,1.8981,2.0497,2.2092,2.3594,2.4834,2.5829,2.7435,2.9315,3.0228,-3.0761,-3.0761,-3.0761,-3.0761,-3.0669,-3.0485,-3.0128,-2.977,-2.9505,-2.9214,-2.8979,-2.8605,-2.7854,-2.6715,-2.6349,-2.5343,-2.3645,-2.3117,-2.2831,-2.2473,-2.2382,-2.2417,-2.2333,-2.2522,-2.2843,-2.4281,-2.4696,-2.4696,-2.4696,-2.4601,-2.453,-2.4364,-2.3649,-2.3243,-2.2992,-2.2238,-2.1986,-2.1683,-2.0904,-2.0423,-2.0024,-1.8201,-1.6809,-1.662,-1.5534,-1.486,-1.4767,-1.3779,-1.3291,-1.2509,-1.1201,-1.011,-0.9633,-0.8667,-0.7905,-0.744,-0.6921,-0.6326,-0.6139,-0.5603,-0.4915,-0.4462,-0.4004,-0.332,-0.268,-0.2364,-0.1912,-0.1542,-0.1321,-0.1024,-0.0577,-0.0564,-0.0348,-0.0069,0.0,0.0267,0.0666,0.0859,0.0918,0.118,0.1246,0.1475,0.1786,0.2246,0.2602,0.2816,0.4855,0.5681,0.3417,0.3702,0.4315,0.5436,0.7865,0.8655,0.8117,0.9214,1.1,1.2058,1.3065,1.3252,1.313,1.3624,1.4229,1.473,1.5312,1.6961,1.8437,2.0455,2.2149,2.3329,2.4478,2.5603,2.6718,2.7615,2.8676,-3.0761,-3.0761,-3.0761,-3.0761,-3.0656,-3.0277,-3.0016,-2.9807,-2.9352,-2.9044,-2.9032,-2.8593,-2.824,-2.7844,-2.7302,-2.6608,-2.5525,-2.5197,-2.5212,-2.4743,-2.4696,-2.4696,-2.4625,-2.4376,-2.4613,-2.4601,-2.4613,-2.4613,-2.4613,-2.4459,-2.4376,-2.4209,-2.3482,-2.3159,-2.2908,-2.2238,-2.1955,-2.1767,-2.1557,-2.1186,-2.0606,-1.9247,-1.8242,-1.7978,-1.6651,-1.5543,-1.5053,-1.4466,-1.4038,-1.3461,-1.2243,-1.0959,-1.0307,-0.9384,-0.8731,-0.8338,-0.7371,-0.6721,-0.6437,-0.5575,-0.4404,-0.3999,-0.3758,-0.3144,-0.2183,-0.244,-0.2487,-0.1983,-0.1274,-0.0922,-0.0561,-0.0069,0.0271,0.0539,0.0664,0.0853,0.1114,0.1179,0.1309,0.1571,0.1703,0.172,0.1835,0.258,0.292,0.2619,0.3479,0.4434,0.4649,0.4841,0.5341,0.5823,0.7205,0.678,0.712,0.9332,1.0838,1.1933,1.3025,1.3522,1.336,1.3582,1.3659,1.4187,1.4927,1.6267,1.7629,1.9636,2.139,2.271,2.3918,2.5106,2.5943,2.5872,2.6704,-3.0761,-3.0761,-3.0761,-3.0761,-3.0632,-3.0229,-2.9738,-2.9276,-2.8844,-2.8553,-2.8515,-2.8414,-2.8276,-2.8276,-2.7539,-2.6958,-2.6056,-2.5497,-2.5118,-2.4837,-2.4696,-2.4696,-2.4696,-2.4696,-2.4696,-2.4601,-2.4281,-2.4364,-2.4447,-2.3888,-2.3566,-2.3404,-2.301,-2.2552,-2.2402,-2.2133,-2.1809,-2.1555,-2.1465,-2.111,-2.0479,-1.9771,-1.906,-1.8747,-1.7917,-1.7532,-1.6988,-1.6037,-1.516,-1.5264,-1.3049,-1.1797,-1.1189,-0.9753,-0.8984,-0.8597,-0.8273,-0.7944,-0.7789,-0.6143,-0.4971,-0.4594,-0.4119,-0.3614,-0.3472,-0.4022,-0.4346,-0.3922,-0.2899,-0.1811,-0.1164,0.0,0.0595,0.0924,0.0987,0.144,0.1897,0.2027,0.2027,0.2091,0.2091,0.2054,0.2579,0.3475,0.4249,0.2923,0.442,0.4896,0.4736,0.5288,0.598,0.6343,0.5794,0.5147,0.7284,0.9505,1.0742,1.1669,1.2793,1.3633,1.3456,1.3225,1.3132,1.3392,1.4113,1.5287,1.6884,1.8633,2.0313,2.1789,2.347,2.4763,2.5603,2.5163,2.5234,-3.0488,-3.0281,-3.0281,-3.0086,-2.9762,-2.9541,-2.9349,-2.9108,-2.8915,-2.8812,-2.8735,-2.8477,-2.7967,-2.7401,-2.6944,-2.6238,-2.5384,-2.512,-2.4907,-2.4696,-2.4696,-2.4767,-2.4696,-2.4696,-2.4696,-2.4601,-2.453,-2.4447,-2.4352,-2.396,-2.347,-2.301,-2.2556,-2.2403,-2.2519,-2.2372,-2.2091,-2.185,-2.1391,-2.0692,-1.982,-1.9171,-1.8711,-1.8491,-1.8313,-1.8135,-1.7759,-1.6605,-1.5364,-1.4338,-1.3366,-1.2464,-1.1808,-1.0925,-1.0281,-0.9817,-0.885,-0.8273,-0.778,-0.6523,-0.5484,-0.5085,-0.4923,-0.4498,-0.4404,-0.4563,-0.4727,-0.4398,-0.358,-0.2486,-0.1462,-0.0593,0.0262,0.0851,0.0065,0.0,0.1698,0.1959,0.2024,0.2024,0.2288,0.2695,0.2721,0.3405,0.3517,0.3618,0.5161,0.5112,0.4732,0.5679,0.6359,0.6181,0.5709,0.6357,0.8076,0.9821,1.1084,1.1451,1.2356,1.3522,1.3369,1.3,1.2639,1.2416,1.3222,1.442,1.6408,1.8252,1.9734,2.1259,2.2973,2.412,2.425,2.4107,2.4406,-3.069,-3.0319,-2.9875,-2.9463,-2.9187,-2.9004,-2.8866,-2.884,-2.8783,-2.8554,-2.8627,-2.8177,-2.766,-2.7021,-2.6478,-2.5796,-2.5324,-2.4968,-2.4862,-2.4779,-2.5027,-2.5334,-2.5346,-2.5829,-2.6171,-2.6159,-2.5924,-2.5356,-2.4977,-2.4614,-2.4052,-2.3267,-2.2777,-2.2606,-2.2906,-2.26,-2.2332,-2.2066,-2.1447,-2.0668,-1.9777,-1.914,-1.8509,-1.8199,-1.7976,-1.7644,-1.7164,-1.6276,-1.4917,-1.3447,-1.3055,-1.2536,-1.1759,-1.1374,-1.0925,-1.0403,-0.9431,-0.8667,-0.8089,-0.699,-0.6129,-0.5691,-0.5694,-0.5534,-0.5236,-0.5347,-0.5231,-0.4825,-0.4174,-0.3396,-0.2285,-0.1567,-0.0784,0.0196,-0.0458,-0.0588,0.0718,0.1371,0.1502,0.1306,0.2026,0.2419,0.2635,0.3081,0.3471,0.353,0.4608,0.5513,0.4954,0.545,0.6223,0.6015,0.6911,0.7736,0.8503,0.9962,1.0872,1.1086,1.1774,1.2761,1.2294,1.1973,1.164,1.1732,1.2776,1.3713,1.5702,1.7657,1.9259,2.0619,2.2154,2.3188,2.3259,2.3259,2.3619,-3.1628,-3.1413,-2.9896,-2.9422,-2.9264,-2.8817,-2.8678,-2.8346,-2.8025,-2.7993,-2.7897,-2.8105,-2.771,-2.7437,-2.707,-2.6677,-2.6031,-2.5771,-2.5441,-2.5594,-2.6405,-2.7131,-2.7294,-2.845,-2.8829,-2.8788,-2.7908,-2.7387,-2.6504,-2.5392,-2.4914,-2.4261,-2.3326,-2.3096,-2.3039,-2.265,-2.2213,-2.1945,-2.1656,-2.1235,-2.0597,-2.0449,-1.9901,-1.8619,-1.7945,-1.7143,-1.6156,-1.5398,-1.4358,-1.3111,-1.2472,-1.1952,-1.1175,-1.0982,-1.0661,-1.0081,-0.9888,-0.9507,-0.8996,-0.789,-0.7064,-0.669,-0.6604,-0.653,-0.629,-0.6738,-0.7046,-0.6916,-0.5608,-0.4502,-0.3916,-0.2873,-0.2091,-0.1698,-0.1046,-0.0457,0.0065,0.0196,0.0392,0.0457,0.098,0.1698,0.1897,0.3007,0.3347,0.3594,0.4566,0.5323,0.5141,0.492,0.5789,0.7249,0.8782,0.914,0.8278,0.9565,1.0118,1.0362,1.0819,1.0983,1.0489,1.0378,1.0152,1.1324,1.2393,1.3366,1.4776,1.6502,1.8151,1.9729,2.0995,2.2021,2.2539,2.2539,2.2755,-3.3632,-3.3101,-3.2502,-3.1879,-3.1237,-3.1034,-3.0821,-3.0859,-3.0641,-3.0569,-3.0554,-3.0554,-3.0474,-2.999,-2.8775,-2.8518,-2.868,-2.7566,-2.7402,-2.8043,-2.8775,-2.8938,-2.91,-2.9667,-2.9512,-2.8456,-2.7443,-2.6413,-2.5298,-2.4623,-2.382,-2.3076,-2.2788,-2.2938,-2.3334,-2.3193,-2.3022,-2.2705,-2.2112,-2.1367,-2.0539,-2.0143,-1.9619,-1.8881,-1.7835,-1.6924,-1.6293,-1.5937,-1.5108,-1.3977,-1.4113,-1.3532,-1.2264,-1.1367,-1.0596,-1.0081,-0.9888,-0.9507,-0.8807,-0.8224,-0.777,-0.7306,-0.7176,-0.7107,-0.7042,-0.7176,-0.744,-0.7185,-0.6006,-0.4964,-0.3853,-0.2744,-0.2679,-0.3333,-0.1699,-0.098,-0.1045,-0.0196,0.0327,0.0196,0.0718,0.1437,0.196,0.2843,0.3035,0.3547,0.4287,0.4811,0.4468,0.4383,0.5293,0.6717,0.8392,0.8591,0.8273,0.8716,0.9258,0.9491,0.9781,0.9466,0.9688,0.9759,0.9894,1.1058,1.1816,1.2751,1.3738,1.5457,1.714,1.8653,2.0132,2.1297,2.2467,2.2322,2.1961,-3.5192,-3.4416,-3.3933,-3.3247,-3.249,-3.2459,-3.2459,-3.2459,-3.2459,-3.2459,-3.2459,-3.2459,-3.23,-3.1727,-3.0686,-3.0218,-3.062,-3.0071,-3.0004,-3.0715,-3.0795,-3.0613,-3.0358,-3.0329,-2.9828,-2.8886,-2.7849,-2.6606,-2.5406,-2.5113,-2.4203,-2.3069,-2.3216,-2.3546,-2.3739,-2.3565,-2.3402,-2.3168,-2.2503,-2.1795,-2.0973,-2.0499,-1.9998,-1.9369,-1.8241,-1.742,-1.713,-1.6628,-1.5738,-1.4592,-1.5234,-1.4738,-1.3022,-1.2001,-1.1039,-0.9888,-0.9952,-0.9636,-0.8483,-0.8099,-0.79,-0.7505,-0.7371,-0.7306,-0.7051,-0.6916,-0.6656,-0.614,-0.5619,-0.4967,-0.3725,-0.3007,-0.2941,-0.3403,-0.1963,-0.1112,-0.1046,-0.0327,0.0065,-0.0131,0.0261,0.111,0.196,0.2354,0.2816,0.3662,0.386,0.4062,0.3926,0.4054,0.4508,0.5348,0.5742,0.6331,0.6912,0.7519,0.7879,0.812,0.8489,0.8521,0.9495,1.0088,1.0217,1.0806,1.1267,1.2047,1.3104,1.452,1.6116,1.7689,1.8868,2.034,2.1949,2.2094,2.1526,-3.5971,-3.5486,-3.3868,-3.3268,-3.2951,-3.3015,-3.2698,-3.2856,-3.2777,-3.3015,-3.3094,-3.2777,-3.3015,-3.2539,-3.2156,-3.1647,-3.1651,-3.2274,-3.2653,-3.2748,-3.2463,-3.1887,-3.1255,-3.1209,-3.1196,-3.1118,-2.9934,-2.8526,-2.703,-2.6631,-2.59,-2.5156,-2.4759,-2.4492,-2.4214,-2.3728,-2.3208,-2.2811,-2.2505,-2.242,-2.2471,-2.1938,-2.1239,-2.038,-1.9505,-1.8812,-1.8501,-1.7005,-1.6126,-1.5602,-1.5423,-1.4104,-1.2584,-1.2767,-1.2057,-0.9952,-1.021,-0.9759,-0.8154,-0.7835,-0.7635,-0.731,-0.7306,-0.6981,-0.64,-0.6071,-0.567,-0.4945,-0.4499,-0.4309,-0.4111,-0.3788,-0.3205,-0.19,-0.131,-0.0655,-0.0393,-0.0524,-0.0918,-0.0786,-0.0393,0.0392,0.1306,0.183,0.2484,0.3401,0.3594,0.3399,0.3793,0.3727,0.3793,0.425,0.4641,0.4967,0.5612,0.6323,0.6583,0.6968,0.7676,0.8774,1.0146,1.0667,1.086,1.0973,1.1502,1.1987,1.3042,1.3656,1.5241,1.6983,1.7517,1.8732,2.0559,2.1877,2.1308,-3.8345,-3.7637,-3.7098,-3.648,-3.5937,-3.6187,-3.617,-3.5937,-3.5859,-3.5859,-3.5842,-3.5842,-3.5859,-3.5625,-3.4215,-3.3769,-3.4208,-3.3769,-3.3552,-3.3311,-3.316,-3.2558,-3.1734,-3.1653,-3.1182,-3.0134,-2.9134,-2.7495,-2.5611,-2.5298,-2.4557,-2.3562,-2.3883,-2.3948,-2.3781,-2.3617,-2.3438,-2.3151,-2.2471,-2.2153,-2.2093,-2.1863,-2.1375,-2.0823,-2.038,-2.0011,-1.99,-1.9146,-1.814,-1.717,-1.7442,-1.6377,-1.3731,-1.3405,-1.264,-1.1103,-1.0718,-0.9811,-0.8403,-0.7505,-0.699,-0.6661,-0.6595,-0.6331,-0.5681,-0.5485,-0.5043,-0.4358,-0.3804,-0.3498,-0.3334,-0.2587,-0.1768,-0.1311,-0.0918,-0.0524,-0.0066,0.0,-0.0524,-0.0786,-0.0655,-0.0262,0.0392,0.0981,0.1701,0.2287,0.294,0.3007,0.3137,0.3137,0.3399,0.3727,0.3923,0.4054,0.4576,0.5673,0.6189,0.7352,0.8257,0.994,1.1303,1.1439,1.1582,1.1568,1.1853,1.2287,1.2721,1.3142,1.4693,1.6725,1.7712,1.8815,2.0205,2.1599,2.1454,-3.9656,-3.9125,-3.884,-3.8305,-3.7768,-3.7863,-3.7768,-3.7501,-3.7501,-3.7501,-3.7501,-3.7501,-3.7501,-3.7406,-3.5407,-3.4758,-3.5029,-3.4103,-3.3274,-3.2786,-3.2627,-3.2025,-3.1023,-3.0973,-3.008,-2.8496,-2.7835,-2.6448,-2.4274,-2.4247,-2.3839,-2.312,-2.3498,-2.3619,-2.3378,-2.3453,-2.3257,-2.2774,-2.2289,-2.191,-2.1788,-2.1497,-2.1436,-2.1436,-2.0946,-2.0529,-2.0393,-2.0024,-1.927,-1.8128,-1.8548,-1.7726,-1.5506,-1.4611,-1.346,-1.1937,-1.1353,-1.0461,-0.9043,-0.8154,-0.7375,-0.653,-0.6335,-0.5796,-0.4773,-0.4436,-0.4071,-0.331,-0.2725,-0.2461,-0.2162,-0.1435,-0.0829,-0.0772,-0.0581,-0.0259,0.0,0.0,-0.0131,-0.0524,-0.059,-0.0524,-0.0065,0.0262,0.0785,0.1307,0.2156,0.2679,0.2744,0.2809,0.3072,0.3529,0.3727,0.3793,0.4054,0.4961,0.5995,0.7357,0.8387,0.9489,1.0975,1.1175,1.1893,1.196,1.2266,1.27,1.3185,1.3728,1.5407,1.7205,1.8384,1.9559,2.1163,2.1526,2.1526,-3.9864,-3.9675,-3.8938,-3.8257,-3.789,-3.7512,-3.7359,-3.7252,-3.7341,-3.7359,-3.7287,-3.7323,-3.7359,-3.7033,-3.5155,-3.4258,-3.3833,-3.3064,-3.23,-3.1646,-3.1238,-3.0511,-2.9508,-2.9475,-2.8437,-2.6789,-2.652,-2.5523,-2.3829,-2.407,-2.3979,-2.3393,-2.3739,-2.3664,-2.3016,-2.3137,-2.2835,-2.2046,-2.2032,-2.1971,-2.1849,-2.1436,-2.1666,-2.2079,-2.1252,-2.0529,-1.9975,-1.9591,-1.9294,-1.9058,-1.8685,-1.8174,-1.7402,-1.6148,-1.4366,-1.2249,-1.2208,-1.1695,-1.012,-0.9401,-0.843,-0.6997,-0.6392,-0.5395,-0.3759,-0.35,-0.3024,-0.1801,-0.184,-0.1648,-0.1401,-0.1311,-0.1038,-0.0996,-0.0501,-0.0382,0.0,0.0,0.0,-0.0066,-0.0197,-0.0327,-0.0523,-0.0261,0.0131,0.0588,0.1306,0.1959,0.2221,0.2417,0.2679,0.3203,0.3594,0.3662,0.3662,0.4182,0.4961,0.5998,0.6899,0.7352,0.9096,1.0694,1.1641,1.2309,1.2731,1.3142,1.3605,1.467,1.6228,1.7638,1.8825,2.0278,2.1961,2.1816,2.2322,-3.7867,-3.736,-3.7069,-3.6559,-3.6026,-3.6137,-3.6064,-3.5844,-3.5844,-3.5788,-3.5844,-3.5861,-3.5541,-3.481,-3.3211,-3.243,-3.223,-3.1483,-3.0901,-3.0421,-3.0129,-2.935,-2.8357,-2.8056,-2.7371,-2.6397,-2.5836,-2.5304,-2.4788,-2.3904,-2.3016,-2.2457,-2.235,-2.2228,-2.1985,-2.2046,-2.2335,-2.276,-2.2713,-2.3107,-2.3754,-2.3409,-2.276,-2.2093,-2.1727,-2.0933,-1.9666,-1.9294,-1.9108,-1.9058,-1.8474,-1.7976,-1.7453,-1.6272,-1.5439,-1.5025,-1.374,-1.2107,-1.0495,-0.9281,-0.801,-0.6579,-0.6073,-0.5378,-0.4254,-0.3943,-0.3469,-0.2561,-0.21,-0.2337,-0.2639,-0.2765,-0.2804,-0.2919,-0.2152,-0.2093,-0.2675,-0.1508,-0.0524,-0.0131,-0.0393,-0.0786,-0.0851,-0.1046,-0.1306,-0.1437,-0.1304,-0.0847,0.0065,0.0457,0.098,0.2548,0.3072,0.3203,0.3268,0.3594,0.4315,0.5221,0.593,0.6968,0.9431,1.0404,1.1326,1.2325,1.2934,1.3567,1.466,1.5247,1.6299,1.7923,1.9464,2.0838,2.2815,2.3247,2.3892,-3.7065,-3.6833,-3.6619,-3.6209,-3.5635,-3.5563,-3.5346,-3.5148,-3.5148,-3.5148,-3.5023,-3.3708,-3.296,-3.2528,-3.1525,-3.0904,-3.0728,-3.0247,-2.9706,-2.9101,-2.89,-2.8371,-2.758,-2.7306,-2.6994,-2.6573,-2.5378,-2.4919,-2.4919,-2.3994,-2.3514,-2.3469,-2.2699,-2.2503,-2.2926,-2.3047,-2.3213,-2.3694,-2.3529,-2.4323,-2.5733,-2.5157,-2.4323,-2.3589,-2.2866,-2.1727,-2.0257,-1.9764,-1.9455,-1.917,-1.835,-1.7687,-1.7289,-1.6183,-1.5482,-1.5087,-1.363,-1.2188,-1.0854,-0.9803,-0.8579,-0.7057,-0.6572,-0.5821,-0.4647,-0.3937,-0.3768,-0.3658,-0.3522,-0.3355,-0.3474,-0.3474,-0.3584,-0.3562,-0.2885,-0.2813,-0.4038,-0.2294,-0.0852,-0.0524,-0.0721,-0.1114,-0.157,-0.2092,-0.2679,-0.3264,-0.2934,-0.241,-0.1761,-0.0979,-0.0065,0.1176,0.1828,0.2221,0.2809,0.3203,0.3725,0.4443,0.4961,0.5868,0.7905,0.9184,1.0615,1.2112,1.2884,1.3995,1.5837,1.6395,1.7334,1.9234,2.0693,2.1925,2.3951,2.4807,2.6211,-3.7315,-3.7474,-3.7187,-3.684,-3.6322,-3.5507,-3.5096,-3.5042,-3.4881,-3.4881,-3.4487,-3.1626,-3.0461,-3.0514,-3.03,-3.0013,-2.9644,-2.9548,-2.9111,-2.8402,-2.8122,-2.7948,-2.7774,-2.7367,-2.7257,-2.7222,-2.5598,-2.5022,-2.5244,-2.4738,-2.4916,-2.5539,-2.4248,-2.3889,-2.4694,-2.4991,-2.4872,-2.45,-2.4487,-2.5588,-2.7559,-2.659,-2.5851,-2.5775,-2.4308,-2.2745,-2.1164,-2.0771,-2.0219,-1.9579,-1.84,-1.749,-1.691,-1.5971,-1.482,-1.3385,-1.2673,-1.2032,-1.1305,-1.0703,-0.9539,-0.7924,-0.7076,-0.6243,-0.484,-0.3636,-0.37,-0.4934,-0.5273,-0.4792,-0.4023,-0.3926,-0.4105,-0.4288,-0.3462,-0.316,-0.4115,-0.2658,-0.1242,-0.1178,-0.1376,-0.1638,-0.2615,-0.3266,-0.3983,-0.457,-0.4301,-0.3843,-0.3195,-0.2219,-0.124,-0.0718,0.0065,0.0718,0.1633,0.2417,0.2809,0.3203,0.3529,0.465,0.6268,0.7976,0.9531,1.1546,1.2585,1.4548,1.6386,1.7712,1.8952,2.0922,2.2443,2.3521,2.4879,2.6352,2.8297,-3.8321,-3.793,-3.7884,-3.7425,-3.6698,-3.5565,-3.4671,-3.4044,-3.2958,-3.2681,-3.2724,-3.1505,-3.0914,-3.0918,-3.0302,-3.0199,-3.0487,-3.0525,-3.0656,-3.078,-3.0593,-3.0461,-3.0292,-2.9577,-2.9141,-2.8855,-2.757,-2.6773,-2.6615,-2.607,-2.5759,-2.5582,-2.4931,-2.4456,-2.444,-2.4292,-2.4666,-2.548,-2.5985,-2.6573,-2.7291,-2.6866,-2.6103,-2.5184,-2.4931,-2.3978,-2.2144,-2.178,-2.1382,-2.092,-1.9702,-1.8352,-1.6974,-1.5467,-1.4249,-1.3388,-1.2028,-1.148,-1.1949,-1.0768,-0.8704,-0.6113,-0.6108,-0.5649,-0.4349,-0.4394,-0.5196,-0.6265,-0.5814,-0.5539,-0.5981,-0.6143,-0.6383,-0.6715,-0.5944,-0.5302,-0.5196,-0.4479,-0.3501,-0.2214,-0.2813,-0.3597,-0.3858,-0.4182,-0.4896,-0.5677,-0.6262,-0.5998,-0.4825,-0.4437,-0.4176,-0.3783,-0.2612,-0.1437,-0.111,0.0131,0.111,0.1241,0.2548,0.4079,0.5825,0.7812,0.9708,1.1355,1.3054,1.5283,1.7948,1.8868,2.0111,2.2743,2.4322,2.5461,2.6084,2.77,2.973,-3.8599,-3.824,-3.776,-3.7217,-3.6458,-3.5405,-3.4469,-3.3437,-3.2037,-3.1327,-3.1144,-3.0632,-3.0483,-3.0561,-3.0259,-3.0387,-3.0912,-3.1171,-3.1374,-3.1687,-3.1576,-3.1465,-3.141,-3.0537,-3.0218,-3.0237,-2.8493,-2.7686,-2.7797,-2.7315,-2.6639,-2.5759,-2.6464,-2.6497,-2.5893,-2.5749,-2.5943,-2.6439,-2.66,-2.6773,-2.7041,-2.7229,-2.6944,-2.6223,-2.662,-2.5978,-2.4231,-2.3798,-2.3305,-2.2565,-2.1305,-1.9731,-1.7789,-1.6268,-1.4693,-1.3231,-1.1814,-1.131,-1.1846,-1.049,-0.878,-0.6792,-0.6738,-0.6192,-0.467,-0.5485,-0.6256,-0.6694,-0.6364,-0.6354,-0.7061,-0.7175,-0.7337,-0.7762,-0.6993,-0.6572,-0.677,-0.6196,-0.5175,-0.4341,-0.4955,-0.5868,-0.6518,-0.6709,-0.7227,-0.8457,-0.9296,-0.9296,-0.7939,-0.7745,-0.7028,-0.4434,-0.3783,-0.3457,-0.2867,-0.1566,-0.0392,0.0718,0.1698,0.3283,0.5712,0.7777,0.9736,1.1349,1.3252,1.5663,1.8648,1.9224,2.0972,2.3821,2.5744,2.6859,2.8065,2.9177,3.1033,-3.8808,-3.8534,-3.7646,-3.6964,-3.6435,-3.5609,-3.4623,-3.3419,-3.2066,-3.0966,-3.02,-2.9955,-3.0011,-3.035,-3.0537,-3.0929,-3.1414,-3.1838,-3.2094,-3.2183,-3.2149,-3.2204,-3.2128,-3.1188,-3.104,-3.1358,-2.9179,-2.8338,-2.8759,-2.8547,-2.7704,-2.6698,-2.8201,-2.8698,-2.8024,-2.7791,-2.7541,-2.7291,-2.6783,-2.6643,-2.6905,-2.7424,-2.7665,-2.7647,-2.8228,-2.7904,-2.6474,-2.6062,-2.5327,-2.4114,-2.263,-2.0907,-1.8899,-1.7436,-1.5797,-1.3803,-1.2744,-1.205,-1.1689,-1.061,-0.9485,-0.8305,-0.7857,-0.7168,-0.5922,-0.6472,-0.6804,-0.6589,-0.6781,-0.7067,-0.7325,-0.7379,-0.7487,-0.7834,-0.7344,-0.7432,-0.8668,-0.7699,-0.6814,-0.6679,-0.719,-0.7994,-0.8838,-0.9296,-0.9875,-1.1225,-1.1545,-1.1993,-1.1032,-1.1239,-0.8967,-0.4822,-0.4822,-0.5529,-0.4939,-0.3516,-0.2087,0.0,0.0587,0.2159,0.4942,0.7494,0.9737,1.1256,1.3481,1.6175,1.9443,1.9881,2.1901,2.549,2.7195,2.8089,3.0264,3.1085,3.2297,-4.035,-3.9264,-3.8875,-3.8485,-3.8183,-3.7288,-3.6106,-3.4719,0.0,0.0,0.0,-3.1474,-3.1752,-3.2175,-3.221,-3.2835,-3.3739,-3.3847,-3.417,-3.4545,-3.4599,-3.4545,-3.4545,-3.3393,-3.2827,-3.2684,-3.1099,-3.0295,-3.0182,-2.9804,-2.9425,-2.9216,-2.9139,-2.9061,-2.8871,-2.789,-2.7349,-2.7507,-2.7443,-2.7315,-2.7124,-2.7257,-2.7194,-2.6799,-2.7975,-2.8177,-2.7413,-2.71,-2.6233,-2.4732,-2.2549,-2.0782,-1.9519,-1.8403,-1.7699,-1.7496,-1.7083,-1.5895,-1.3682,-1.2832,-1.1163,-0.8385,-0.7535,-0.7489,-0.8421,-0.7168,-0.6306,-0.6301,-0.6529,-0.6905,-0.7325,-0.7433,-0.7702,-0.8515,-0.8452,-0.8729,-0.9537,-0.923,-0.9037,-0.9055,-0.9067,-0.9102,-0.9489,-1.0204,-1.0782,-1.1103,-1.2121,-1.2305,-1.2305,-1.2959,-1.2121,-0.858,-0.7999,-0.858,-0.8058,-0.6502,-0.4686,-0.3124,-0.0782,0.1449,0.3422,0.6445,0.9485,1.1489,1.4091,1.7638,2.1925,2.2931,2.4269,2.7391,2.9665,3.1374,3.1949,3.2987,3.4478,-4.0201,0.0,-3.8768,-3.8251,0.0,-3.6899,-3.5822,-3.4514,-3.3486,-3.2636,-3.1883,-3.1883,-3.205,-3.2271,-3.2835,-3.3217,-3.3544,-3.4138,-3.4513,-3.4803,-3.4803,-3.4887,-3.5153,-3.3976,-3.3305,-3.3012,-3.1565,-3.0822,-3.0709,-3.02,-3.0068,-3.02,-2.9671,-2.9351,-2.92,-2.8348,-2.8472,-2.9653,-2.8959,-2.8754,-2.9088,-2.942,-2.9436,-2.9234,0.0,0.0,0.0,0.0,0.0,0.0,0.0,0.0,0.0,0.0,0.0,-1.5453,-1.4461,-1.3351,-1.2026,-1.153,-1.1346,-1.1375,-1.0161,-0.9653,-1.0194,-1.0202,-0.9355,-0.7486,-0.8292,-0.9022,-0.9138,-0.9417,-0.9931,-1.0691,-1.0372,-1.0244,-1.0711,-1.1098,-1.1331,-1.1521,-1.1812,-1.2121,-1.244,-1.2695,-1.2831,-1.3214,-1.4167,-1.4801,-1.4674,-1.5864,-1.5738,-1.2823,-1.1289,-1.039,-1.0826,-0.9143,-0.6955,-0.4874,-0.2537,0.0065,0.2721,0.6374,0.9738,1.2098,1.4906,1.8212,2.233,2.4422,2.6264,2.9451,3.1763,3.329,3.4881,3.6024,3.7277,-3.9286,-3.8643,-3.8034,-3.7365,-3.6647,-3.6042,-3.5175,-3.4116,-3.3217,-3.2526,-3.205,-3.1959,-3.1883,-3.205,-3.289,-3.3108,-3.289,-3.3836,-3.4213,-3.4213,-3.4245,-3.4535,-3.494,-3.3955,-3.3305,-3.3066,-3.1808,-3.1214,-3.1306,-3.0763,-3.0688,-3.1211,-3.0595,-3.019,-3.0006,0.0,0.0,0.0,-3.0489,-3.0232,-3.0895,-3.1533,-3.1715,-3.1587,-3.2459,0.0,-3.0455,-3.0373,-2.8855,-2.5594,-2.567,0.0,0.0,0.0,0.0,0.0,0.0,0.0,0.0,0.0,0.0,0.0,-1.2601,-1.1976,-1.1459,-1.2621,-1.1949,-0.8572,-0.9842,-1.1104,-1.1452,-1.1883,-1.24,-1.3144,-1.2419,-1.1814,-1.1869,-1.2574,-1.325,-1.3602,-1.425,-1.4915,-1.5423,-1.5389,-1.5316,-1.5768,-1.6786,-1.7476,-1.759,-1.9357,-1.948,-1.6628,-1.3214,-1.1937,-1.3751,-1.1715,-0.9214,-0.7131,-0.4859,-0.1428,0.2018,0.5888,0.9706,1.2996,1.6208,1.9709,2.3511,2.5878,2.8619,3.1828,3.3465,3.5176,3.797,3.8921,3.9476,-3.8093,-3.7201,-3.6876,-3.6696,-3.6516,-3.5982,-3.5364,-3.463,-3.3739,-3.3054,-3.2526,-3.205,-3.1994,-3.223,-3.2581,-3.2944,-3.336,-3.3468,-3.3522,-3.3577,-3.3522,-3.3922,-3.4482,-3.376,-3.3414,-3.3338,-3.2485,-3.232,-3.2739,-3.2444,-3.2786,-3.3686,-3.3167,-3.2798,-3.2552,-3.2039,-3.1788,-3.1671,-3.1285,-3.0978,-3.0902,-3.1436,-3.153,-3.1225,-3.2155,-3.1998,-3.0534,-3.0161,-2.8851,-2.6354,-2.4124,-2.255,-2.1832,-2.2138,-2.1059,0.0,-1.9478,0.0,0.0,0.0,0.0,0.0,0.0,0.0,0.0,-1.1373,-1.0367,-0.8194,-0.9189,-1.1009,-1.353,-1.3748,-1.3998,-1.4721,-1.4249,-1.3521,-1.2832,-1.3066,-1.3657,-1.4538,-1.4919,-1.5461,-1.6419,-1.6827,-1.7151,-1.7391,-1.8331,-1.9663,-2.1314,-2.269,-2.2435,-1.9418,-1.5151,-1.4149,-1.6565,-1.4618,-1.2329,-1.1998,-0.7736,-0.2995,-0.1105,0.4476,1.012,1.4166,1.8597,2.322,2.8014,3.0007,3.1746,3.361,3.519,3.7273,4.0312,4.0259,3.9577,-3.7875,-3.6931,-3.6644,-3.7113,-3.7982,-3.7346,-3.6338,-3.5214,-3.479,-3.3901,-3.2636,-3.2416,-3.2561,-3.2936,-3.3447,-3.3879,-3.4395,-3.4715,-3.4768,-3.463,-3.479,-3.5192,-3.5763,-3.5297,-3.5042,-3.5064,-3.4404,-3.4137,-3.4212,-3.3901,-3.3987,-3.4489,-3.3976,-3.3252,-3.2497,-3.3378,-3.345,-3.2661,-3.2573,-3.2793,-3.3459,-3.4051,-3.4296,-3.4146,-3.4086,-3.3126,-3.1118,-3.0663,-2.9016,-2.5936,-2.4709,-2.3542,-2.2306,-2.032,-1.9425,0.0,0.0,0.0,0.0,0.0,0.0,0.0,0.0,0.0,0.0,0.0,-1.1506,-1.2249,-1.2823,-1.297,-1.254,-1.3522,-1.4828,-1.6264,-1.4466,-1.4377,-1.7343,-1.5546,-1.5562,-1.9252,-1.8722,-1.8648,-2.0065,-2.0394,-2.0257,-1.9688,-2.166,-2.3403,-2.4123,-2.4584,-2.4078,-2.1628,-1.9959,-1.9504,-2.0248,-1.8805,-1.7193,-1.5807,-1.0422,-0.5145,-0.3018,0.4044,1.0983,1.5102,1.9877,2.4737,2.9415,3.1932,3.3938,3.5807,3.7255,3.863,4.0235,4.0223,4.0077,-3.8509,-3.7657,-3.5956,-3.6413,-3.8107,-3.7411,-3.66,-3.5786,-3.5477,-3.4396,-3.2843,-3.2577,-3.2377,-3.2204,-3.2237,-3.2736,-3.3656,-3.4337,-3.4749,-3.5036,-3.55,-3.598,-3.6598,-3.6425,-3.6275,-3.6327,-3.5735,-3.555,-3.562,-3.5088,-3.4729,-3.4478,-3.3773,-3.2795,-3.1642,-3.2915,-3.3531,-3.3468,-3.3338,-3.3987,-3.5267,-3.6234,-3.6644,-3.6465,-3.5809,-3.4269,-3.1812,-3.0968,-2.9073,-2.583,-2.4785,-2.3388,-2.1448,-1.8317,0.0,0.0,0.0,0.0,0.0,0.0,0.0,0.0,0.0,-1.4506,-1.0464,0.0,-1.1788,0.0,-1.4533,-1.449,-1.2978,-1.3862,0.0,0.0,-1.4456,-1.4449,-1.8922,-1.7267,-1.7546,-2.2399,-2.2192,-2.2265,-2.3923,-2.38,-2.3523,-2.3476,-2.5982,-2.7651,-2.7113,-2.7034,-2.6305,-2.4366,-2.3947,-2.4002,-2.3236,-2.3149,-2.2359,-1.9866,-1.364,-0.7948,-0.4756,0.3376,1.1167,1.5994,2.1077,2.5913,3.0143,3.3257,3.5802,3.8042,3.893,3.9329,3.9501,4.0184,4.088,-4.023,-3.9608,-3.4036,-3.3054,-3.5043,-3.444,-3.5072,-3.6317,-3.5065,-3.4057,-3.332,-3.2376,-3.0683,-2.8485,-2.6773,0.0,-2.9158,-3.0287,-3.1747,-3.3438,-3.4446,-3.5139,-3.5666,-3.5905,-3.609,-3.6355,-3.5605,-3.5876,-3.7047,-3.6029,-3.4908,-3.3743,-3.2857,-3.1758,-3.0444,-2.9546,-3.0519,-3.3405,-3.3175,-3.3534,-3.4501,-3.6292,-3.6884,-3.6234,-3.6384,-3.5084,-3.2296,-3.0561,-2.8736,-2.6729,-2.2928,-2.0127,-1.87,0.0,0.0,0.0,0.0,0.0,0.0,0.0,0.0,0.0,0.0,0.0,0.0,0.0,0.0,0.0,-1.0791,0.0,-1.7529,-1.6173,0.0,0.0,0.0,-1.3653,-1.3525,-1.6659,-1.938,-2.0675,0.0,0.0,-2.6243,-2.6113,-2.6705,-2.8828,-3.0632,-3.1594,-3.1113,-3.1325,-3.0699,-2.7792,-2.5726,-2.4709,-2.5969,-2.6899,-2.688,-2.4552,-1.799,-1.1501,-0.6161,0.1702,0.9813,1.6724,2.3186,2.8198,3.061,3.4083,3.7669,3.923,3.9453,3.9501,4.0159,4.0928,4.1549,-3.6542,-3.5182,-3.2549,-3.228,-3.3465,-3.201,-3.2721,-3.4833,-3.3797,-3.2207,-3.0272,-3.0097,-2.7695,-2.3722,-2.4156,0.0,0.0,0.0,-3.0235,-3.3354,-3.3796,-3.5302,-3.7478,-3.7702,-3.8006,-3.8435,-3.8317,-3.8292,-3.8485,-3.8292,-3.4204,-2.6623,0.0,0.0,-2.5303,-2.7849,-3.0096,-3.1849,-3.3187,-3.4501,-3.5643,-3.6626,-3.7038,-3.6809,-3.5516,-3.373,-3.1559,-2.9316,-2.7114,-2.4886,-2.1934,-1.9933,0.0,0.0,0.0,0.0,0.0,0.0,0.0,0.0,0.0,0.0,0.0,-0.9284,0.0,0.0,0.0,0.0,-0.9199,-1.0783,-1.2984,-1.3456,0.0,0.0,0.0,0.0,0.0,0.0,0.0,-2.1387,-2.2303,-2.3331,-2.5559,-2.8138,-3.0125,-3.1028,-3.2668,-3.358,-3.3103,0.0,-3.2657,-3.1505,-2.9821,-2.9252,-3.1107,-3.0122,-2.9536,-3.0855,-2.3092,-1.5174,-1.041,0.0305,1.012,1.6416,2.271,2.7678,2.9596,3.2128,3.4399,3.5512,3.7604,3.9521,4.0279,4.1308,4.2065,-3.1125,0.0,0.0,0.0,0.0,-2.8156,-2.8859,-3.101,-3.0213,-2.8534,-2.6314,-2.6389,0.0,0.0,0.0,0.0,0.0,0.0,-2.8719,-3.2028,-3.335,-3.532,-3.7802,-3.7899,-3.8142,-3.8673,-3.8915,-3.8267,-3.7056,-3.6214,-3.0664,-2.0933,0.0,0.0,0.0,0.0,-2.8763,-3.077,-3.3291,-3.5192,-3.624,-3.6833,-3.7369,-3.7729,-3.5551,-3.3448,-3.1508,-2.8264,-2.5583,-2.3591,-2.0257,0.0,0.0,0.0,0.0,0.0,0.0,0.0,0.0,0.0,0.0,0.0,0.0,0.0,0.0,0.0,0.0,0.0,0.0,0.0,-0.9868,-1.1097,-1.1767,0.0,0.0,0.0,0.0,0.0,0.0,0.0,0.0,0.0,-2.3796,-2.7782,-3.1009,0.0,0.0,-3.4482,-3.4353,-3.4221,-3.4116,-3.4234,-3.3448,0.0,-3.4206,-3.247,-3.1947,-3.4512,-2.8587,-2.1104,-1.4504,-0.3067,0.7581,1.4696,2.0717,2.5357,2.733,2.8574,2.9515,3.1188,3.4223,3.6856,3.7261,3.9069,4.0378,0.0,0.0,0.0,0.0,0.0,0.0,0.0,0.0,-2.3651,-2.2755,0.0,-2.1173,0.0,0.0,0.0,0.0,0.0,-2.3466,0.0,0.0,-3.2973,-3.515,-3.5269,-3.5434,-3.5621,-3.5889,-3.5848,-3.4396,-3.1535,-2.7814,0.0,0.0,0.0,0.0,0.0,0.0,-2.5768,-3.0246,-3.35,-3.5328,-3.5688,-3.6959,-3.8055,-3.8734,-3.7025,-3.498,-3.2696,-2.76,-2.4361,-2.3455,-1.7488,0.0,0.0,0.0,0.0,0.0,0.0,0.0,0.0,0.0,0.0,0.0,0.0,0.0,0.0,0.0,0.0,0.0,0.0,0.0,0.0,-1.0197,0.0,0.0,0.0,0.0,0.0,0.0,0.0,0.0,0.0,0.0,-2.0902,-2.4309,-2.8405,-3.2059,0.0,0.0,0.0,0.0,-3.5298,-3.5776,-3.5871,-3.5099,-3.3197,-3.4133,-3.4812,-3.4026,0.0,0.0,-1.7074,-0.8708,0.0218,1.1417,1.7125,2.1001,2.3959,2.3303,2.3551,2.6795,2.9217,3.0275,2.9915,3.3275,3.5767,0.0,0.0,0.0,0.0,0.0,0.0,0.0,0.0,0.0,-1.9196,0.0,-1.7425,0.0,0.0,0.0,0.0,0.0,0.0,0.0,0.0,-2.7518,-2.9966,-3.2402,-3.3227,-3.2861,0.0,-3.1474,-2.8183,0.0,0.0,0.0,0.0,0.0,0.0,0.0,0.0,-2.5655,-2.8753,-3.3882,-3.6758,-3.7244,-3.7855,-3.8341,-3.8596,-3.7205,-3.4032,-2.9075,-2.539,-2.3315,0.0,0.0,0.0,0.0,0.0,0.0,0.0,0.0,0.0,0.0,0.0,0.0,0.0,0.0,0.0,0.0,0.0,0.0,0.0,0.0,0.0,0.0,0.0,-1.0216,0.0,0.0,0.0,0.0,0.0,0.0,0.0,0.0,0.0,-1.6208,-2.1868,-2.6586,-2.834,-3.2159,-3.468,-3.455,0.0,0.0,0.0,0.0,0.0,0.0,0.0,-3.389,-3.5356,-3.3087,-2.8484,-2.0666,-0.9061,0.1666,0.9063,0.0,0.0,1.6983,1.7661,1.9228,2.1861,2.4737,2.7077,2.8153,2.9906,3.1109,0.0,0.0,0.0,0.0,0.0,0.0,0.0,0.0,0.0,-1.4698,-1.2903,0.0,0.0,0.0,0.0,0.0,0.0,0.0,0.0,0.0,0.0,0.0,-2.8363,-2.9056,0.0,0.0,0.0,0.0,0.0,0.0,0.0,0.0,0.0,0.0,0.0,0.0,-2.5314,-2.7938,-3.3657,-3.6876,-3.7303,-3.8071,-3.8185,-3.7769,-3.6789,-3.3502,-2.7806,0.0,0.0,0.0,0.0,0.0,0.0,0.0,0.0,0.0,0.0,0.0,0.0,0.0,0.0,0.0,0.0,0.0,0.0,0.0,0.0,0.0,0.0,0.0,0.0,0.0,-0.9729,0.0,0.0,0.0,0.0,0.0,0.0,0.0,0.0,0.0,0.0,0.0,-2.3135,-2.6385,-3.0013,-3.2879,-3.4222,-3.4183,-3.4443,0.0,0.0,0.0,0.0,0.0,0.0,0.0,0.0,0.0,0.0,0.0,0.0,0.0,0.0,1.4708,1.3112,1.3713,1.5185,1.7392,0.0,0.0,0.0,0.0,0.0,0.0,0.0,0.0,0.0,0.0,0.0,0.0,0.0,0.0,0.0,0.0,0.0,0.0,-0.8475,0.0,0.0,0.0,0.0,0.0,0.0,0.0,0.0,0.0,0.0,0.0,0.0,0.0,0.0,0.0,0.0,0.0,0.0,0.0,0.0,0.0,0.0,-2.4532,-2.782,-3.2747,-3.5489,-3.5834,-3.7374,-3.7626,-3.6402,-3.584,-3.3556,-2.9213,0.0,0.0,0.0,0.0,0.0,0.0,0.0,0.0,0.0,0.0,0.0,0.0,0.0,0.0,0.0,0.0,0.0,0.0,0.0,0.0,0.0,0.0,0.0,0.0,0.0,0.0,-0.7435,-0.5307,-0.3353,0.0,0.0,0.0,0.0,0.0,0.0,0.0,0.0,0.0,0.0,-2.7056,-2.8713,-3.3815,-3.2777,-3.235,-3.5083,-3.5003,-3.4807,-3.521,-3.7428,-3.7757,0.0,0.0,0.0,0.0,0.0,0.0,0.0,0.0,0.0,0.0,0.0,0.0,0.0,0.0,0.0,0.0,0.0,0.0,0.0,0.0,0.0,0.0,0.0,0.0,0.0,0.0,0.0,0.0,0.0,0.0,0.0,0.0,0.0,0.0,0.0,0.0,0.0,0.0,0.0,0.0,0.0,0.0,0.0,0.0,0.0,0.0,0.0,0.0,0.0,0.0,0.0,0.0,0.0,0.0,-2.3747,-2.7912,-3.2011,-3.475,-3.6029,-3.6513,-3.6371,-3.5537,-3.5107,-3.3122,0.0,0.0,0.0,0.0,0.0,0.0,0.0,0.0,0.0,0.0,0.0,0.0,0.0,0.0,0.0,0.0,0.0,0.0,0.0,0.0,0.0,0.0,0.0,0.0,0.0,0.0,0.0,0.0,-0.5812,-0.4436,-0.1975,0.0,0.0,0.0,0.0,0.0,0.0,0.0,0.0,0.0,0.0,-2.625,-2.9884,-2.9338,-2.9617,-3.2819,-3.3779,-3.5009,-3.7366,-3.6345,-3.5223,-3.5081,0.0,0.0,0.0,0.0,0.0,0.0,0.0,0.0,0.0,0.0,0.0,0.0,0.0,0.0,0.0,0.0,0.0,0.0,0.0,0.0,0.0,0.0,0.0,0.0,0.0,0.0,0.0,0.0,0.0,0.0,0.0,0.0,0.0,0.0,0.0,0.0,0.0,0.0,0.0,0.0,0.0,0.0,0.0,0.0,0.0,0.0,0.0,0.0,0.0,0.0,0.0,0.0,0.0,-2.2752,-2.7055,-3.1003,-3.3562,-3.4664,-3.5528,-3.5331,-3.4036,-3.4146,-3.1998,0.0,0.0,0.0,0.0,0.0,0.0,0.0,0.0,0.0,0.0,0.0,0.0,0.0,0.0,0.0,0.0,0.0,0.0,0.0,0.0,0.0,0.0,0.0,0.0,0.0,0.0,0.0,0.0,-0.5068,-0.3763,-0.1146,0.0,0.0,0.0,0.0,0.0,0.0,0.0,0.0,0.0,0.0,-2.2465,-2.6426,-2.5731,0.0,0.0,-3.2952,-3.5076,-3.5893,-3.4485,-3.3055,-3.2293,-2.7507,0.0,0.0,0.0,0.0,0.0,0.0,0.0,0.0,0.0,0.0,0.0,0.0,0.0,0.0,0.0,0.0,0.0,0.0,0.0,0.0,0.0,0.0,0.0,0.0,0.0,0.0,0.0,0.0,0.0,0.0,0.0,0.0,0.0,0.0,0.0,0.0,0.0,0.0,0.0,0.0,0.0,0.0,0.0,0.0,0.0,0.0,0.0,0.0,0.0,0.0,0.0,0.0,0.0,-2.5514,-2.9553,-3.1716,-3.2109,-3.4196,-3.421,-3.1937,-3.2909,-3.0267,0.0,0.0,0.0,0.0,0.0,0.0,0.0,0.0,0.0,0.0,0.0,0.0,0.0,0.0,0.0,0.0,0.0,0.0,0.0,0.0,0.0,0.0,0.0,0.0,0.0,0.0,0.0,0.0,0.0,0.0,0.0,0.0,0.0,0.0,0.0,0.0,0.0,0.0,0.0,0.0,0.0,-1.7815,-2.3376,-2.2052,-2.2217,0.0,0.0,-3.4218,-3.1546,-3.1982,-3.1128,-2.6814,0.0,0.0,0.0,0.0,0.0,0.0,0.0,0.0,0.0,0.0,0.0,0.0,0.0,0.0,0.0,0.0,0.0,0.0,0.0,0.0,0.0,0.0,0.0,0.0,0.0,0.0,0.0,0.0,0.0,0.0,0.0,0.0,0.0,0.0,0.0,0.0,0.0,0.0,0.0,0.0,0.0,0.0,0.0,0.0,0.0,0.0,0.0,0.0,0.0,0.0,0.0,0.0,0.0,0.0,-2.4542,-2.6254,-2.8004,-2.9746,-3.0352,-3.0184,-2.9235,-3.0725,0.0,0.0,0.0,0.0,0.0,0.0,0.0,0.0,0.0,0.0,0.0,0.0,0.0,0.0,0.0,0.0,0.0,0.0,0.0,0.0,0.0,0.0,0.0,0.0,0.0,0.0,0.0,-0.5477,0.0,0.0,0.0,0.0,0.0,0.0,0.0,0.0,0.0,0.0,0.0,0.0,0.0,0.0,-1.5542,-1.9711,-1.9011,-1.9655,0.0,0.0,-2.6686,-2.8927,-2.8702,-2.819,0.0,0.0,0.0,0.0,0.0,0.0,0.0,0.0,0.0,0.0,0.0,0.0,0.0,0.0,0.0,0.0,0.0,0.0,0.0,0.0,0.0,0.0,0.0,0.0,0.0,0.0,0.0,0.0,0.0,0.0,0.0,0.0,0.0,0.0,0.0,0.0,0.0,0.0,0.0,0.0,0.0,0.0,0.0,0.0,0.0,0.0,0.0,0.0,0.0,0.0,0.0,0.0,0.0,0.0,-1.7376,-2.2019,-2.3642,-2.5022,-2.6327,-2.7072,-2.7228,-2.686,-2.9012,-2.7551,0.0,0.0,0.0,0.0,0.0,0.0,0.0,0.0,0.0,0.0,0.0,0.0,0.0,0.0,0.0,0.0,0.0,0.0,0.0,0.0,0.0,0.0,0.0,0.0,0.0,0.0,0.0,0.0,0.0,0.0,0.0,0.0,0.0,0.0,0.0,0.0,0.0,0.0,0.0,0.0,0.0,0.0,-1.6046,-1.589,0.0,0.0,0.0,-2.1594,-2.5033,0.0,0.0,0.0,0.0,0.0,0.0,0.0,0.0,0.0,0.0,0.0,0.0,0.0,0.0,0.0,0.0,0.0,0.0,0.0,0.0,0.0,0.0,0.0,0.0,0.0,0.0,0.0,0.0,0.0,0.0,0.0,0.0,0.0,0.0,0.0,0.0,0.0,0.0,0.0,0.0,0.0,0.0,0.0,0.0,0.0,0.0,0.0,0.0,0.0,0.0,0.0,0.0,0.0,0.0,0.0,0.0,0.0,-1.8976,-2.1412,-2.2496,-2.233,-2.3883,-2.4625,-2.4518,-2.7328,-2.6288,0.0,0.0,0.0,0.0,0.0,0.0,0.0,0.0,0.0,0.0,0.0,0.0,0.0,0.0,0.0,0.0,0.0,0.0,0.0,0.0,0.0,0.0,0.0,0.0,0.0,0.0,0.0,0.0,0.0,0.0,0.0,0.0,0.0,0.0,0.0,0.0,0.0,0.0,0.0,0.0,0.0,-1.0577,-1.2678,-1.2962,-1.3933,0.0,0.0,-1.8222,-2.0892,-2.0313,0.0,0.0,0.0,0.0,0.0,0.0,0.0,0.0,0.0,0.0,0.0,0.0,0.0,0.0,0.0,0.0,0.0,0.0,0.0,0.0,0.0,0.0,0.0,0.0,0.0,0.0,0.0,0.0,0.0,0.0,0.0,0.0,0.0,0.0,0.0,0.0,0.0,0.0,0.0,0.0,0.0,0.0,0.0,0.0,0.0,0.0,0.0,0.0,0.0,0.0,0.0,0.0,0.0,0.0,0.0,0.0,-1.6638,-1.9504,-2.0044,-1.8434,-1.9504,-2.0496,-2.1098,-2.4013,-2.3865,0.0,0.0,0.0,0.0,0.0,0.0,0.0,0.0,0.0,0.0,0.0,0.0,0.0,0.0,0.0,0.0,0.0,0.0,0.0,0.0,0.0,0.0,0.0,0.0,0.0,0.0,0.0,0.0,0.0,0.0,0.0,0.0,0.0,0.0,0.0,0.0,0.0,0.0,0.0,0.0,0.0,-1.1411,-1.0564,-1.0879,0.0,0.0,0.0,0.0,-1.9379,-1.8651,0.0,0.0,0.0,0.0,0.0,0.0,0.0,0.0,0.0,0.0,0.0,0.0,0.0,0.0,0.0,0.0,0.0,0.0,0.0,0.0,0.0,0.0,0.0,0.0,0.0,0.0,0.0,0.0,0.0,0.0,0.0,0.0,0.0,0.0,0.0,0.0,0.0,0.0,0.0,0.0,0.0,0.0,0.0,0.0,0.0,0.0,0.0,0.0,0.0,0.0,0.0,0.0,0.0,0.0,0.0,0.0,-1.6394,-1.8573,-1.8539,-1.6282,-1.6853,-1.7877,-1.9323,-2.2731,-2.3149,0.0,0.0,0.0,0.0,0.0,0.0,0.0,0.0,0.0,0.0,0.0,0.0,0.0,0.0,0.0,0.0,0.0,0.0,0.0,0.0,0.0,0.0,0.0,0.0,0.0,0.0,0.0,0.0,0.0,0.0,0.0,0.0,0.0,0.0,0.0,0.0,0.0,0.0,0.0,0.0,-0.988,-1.0693,-0.9264,0.0,0.0,0.0,0.0,0.0,0.0,-1.5984,-1.4048,0.0,0.0,0.0,0.0,0.0,0.0,0.0,0.0,0.0,0.0,0.0,0.0,0.0,0.0,0.0,0.0,0.0,0.0,0.0,0.0,0.0,0.0,0.0,0.0,0.0,0.0,0.0,0.0,0.0,0.0,0.0,0.0,0.0,0.0,0.0,0.0,0.0,0.0,0.0,0.0,0.0,0.0,0.0,0.0,0.0,0.0,0.0,0.0,0.0,0.0,0.0,0.0,0.0,0.0,0.0,-1.5846,-1.7334,-1.6957,-1.4629,-1.4628,-1.5751,-1.8055,-2.1935,-2.2665,-1.9883,0.0,0.0,0.0,0.0,0.0,0.0,0.0,0.0,0.0,0.0,0.0,0.0,0.0,0.0,0.0,0.0,0.0,0.0,0.0,0.0,0.0,0.0,0.0,0.0,0.0,0.0,0.0,0.0,0.0,0.0,0.0,0.0,0.0,0.0,0.0,0.0,0.0,0.0,0.0,-0.8557,-0.8882,0.0,0.0,0.0,0.0,0.0,0.0,0.0,0.0,-1.1211,0.0,0.0,0.0,0.0,0.0,0.0,0.0,0.0,0.0,0.0,0.0,0.0,0.0,0.0,0.0,0.0,0.0,0.0,0.0,0.0,0.0,0.0,0.0,0.0,0.0,0.0,0.0,0.0,0.0,0.0,0.0,0.0,0.0,0.0,0.0,0.0,0.0,0.0,0.0,0.0,0.0,0.0,0.0,0.0,0.0,0.0,0.0,0.0,0.0,0.0,0.0,0.0,0.0,0.0,0.0,0.0,-1.3866,-1.409,-1.2103,-1.1916,-1.3336,-1.6299,-2.0246,-2.072,-1.7464,0.0,0.0,0.0,0.0,0.0,0.0,0.0,0.0,0.0,0.0,0.0,0.0,0.0,0.0,0.0,0.0,0.0,0.0,0.0,0.0,0.0,0.0,0.0,0.0,0.0,0.0,0.0,0.0,0.0,0.0,0.0,0.0,0.0,0.0,0.0,0.0,0.0,0.0,-0.7536,-0.6953,0.0,0.0,0.0,0.0,0.0,0.0,0.0,0.0,-1.4605,0.0,0.0,0.0,0.0,0.0,0.0,0.0,0.0,0.0,0.0,0.0,0.0,0.0,0.0,0.0,0.0,0.0,0.0,0.0,0.0,0.0,0.0,0.0,0.0,0.0,0.0,0.0,0.0,0.0,0.0,0.0,0.0,0.0,0.0,0.0,0.0,0.0,0.0,0.0,0.0,0.0,0.0,0.0,0.0,0.0,0.0,0.0,0.0,0.0,0.0,0.0,0.0,0.0,0.0,0.0,0.0,0.0,0.0,-1.2485,-1.2064,-1.0935,-1.188,-1.4901,-1.4882,-1.4087,0.0,0.0,0.0,0.0,0.0,0.0,0.0,0.0,0.0,0.0,0.0,0.0,0.0,0.0,0.0,0.0,0.0,0.0,0.0,0.0,0.0,0.0,0.0,0.0,0.0,0.0,0.0,0.0,0.0,0.0,0.0,0.0,0.0,0.0,0.0,0.0,0.0,0.0,0.0,0.0,0.0,0.0,0.0,0.0,0.0,0.0,0.0,0.0,0.0,0.0,0.0,0.0,0.0,0.0,0.0,0.0,0.0,0.0,0.0,0.0,0.0,0.0,0.0,0.0,0.0,0.0,0.0,0.0,0.0,0.0,0.0,0.0,0.0,0.0,0.0,0.0,0.0,0.0,0.0,0.0,0.0,0.0,0.0,0.0,0.0,0.0,0.0,0.0,0.0,0.0,0.0,0.0,0.0,0.0,0.0,0.0,0.0,0.0,0.0,0.0,0.0,0.0,0.0,0.0,0.0,0.0,0.0,0.0,-0.968,-1.1366,-0.894,-0.912,-1.2391,-0.8502,-0.6712,0.0,0.0,0.0,0.0,0.0,0.0,0.0,0.0,0.0,0.0,0.0,0.0,0.0,0.0,0.0,0.0,0.0,0.0,0.0,0.0,0.0,0.0,0.0,0.0,0.0,0.0,0.0,0.0,0.0,0.0,0.0,0.0,0.0,0.0,0.0,0.0,0.0,0.0,0.0,0.0,0.0,0.0,0.0,0.0,0.0,0.0,0.0,0.0,-1.0976,0.0,0.0,0.0,0.0,0.0,0.0,0.0,0.0,0.0,0.0,0.0,0.0,0.0,0.0,0.0,0.0,0.0,0.0,0.0,0.0,0.0,0.0,0.0,0.0,0.0,0.0,0.0,0.0,0.0,0.0,0.0,0.0,0.0,0.0,0.0,0.0,0.0,0.0,0.0,0.0,0.0,0.0,0.0,0.0,0.0,0.0,0.0,0.0,0.0,0.0,0.0,0.0,0.0,0.0,0.0,0.0,0.0,0.0,0.0,-0.3409,-0.7615,-0.3597,-0.2928,-0.6076,-0.2117,-0.0836,0.0,0.0,0.0,0.0,0.0,0.0,0.0,0.0,0.0,0.0,0.0,0.0,0.0,0.0,0.0,0.0,0.0,0.0,0.0,0.0,0.0,0.0,0.0,0.0,0.0,0.0,0.0,0.0,0.0,0.0,0.0,0.0,0.0,0.0,0.0,0.0,0.0,0.0,0.0,0.0,0.0,0.0,0.0,0.0,0.0,0.0,0.0,0.0,0.0,0.0,0.0,0.0,0.0,0.0,0.0,0.0,0.0,0.0,0.0,0.0,0.0,0.0,0.0,0.0,0.0,0.0,0.0,0.0,0.0,0.0,0.0,0.0,0.0,0.0,0.0,0.0,0.0,0.0,0.0,0.0,0.0,0.0,0.0,0.0,0.0,0.0,0.0,0.0,0.0,0.0,0.0,0.0,0.0,0.0,0.0,0.0,0.0,0.0,0.0,0.0,0.0,0.0,0.0,0.0,0.0,0.0,0.0,0.0,0.0847,-0.2252,0.1393,0.3765,0.4422,0.5701,0.5557,0.0,0.0,0.0,0.0,0.0,0.0,0.0,0.0,0.0,0.0,0.0,0.0,0.0,0.0,0.0,0.0,0.0,0.0,0.0,0.0,0.0,0.0,0.0,0.0,0.0,0.0,0.0,0.0,0.0,0.0,0.0,0.0,0.0,0.0,0.0,0.0,0.0,0.0,0.0,0.0,0.0,0.0,0.0,0.0,0.0,0.0,0.0,0.0,0.0,0.0,0.0,0.0,0.0,0.0,0.0,0.0,0.0,0.0,0.0,0.0,0.0,0.0,0.0,0.0,0.0,0.0,0.0,0.0,0.0,0.0,0.0,0.0,0.0,0.0,0.0,0.0,0.0,0.0,0.0,0.0,0.0,0.0,0.0,0.0,0.0,0.0,0.0,0.0,0.0,0.0,0.0,0.0,0.0,0.0,0.0,0.0,0.0,0.0,0.0,0.0,0.0,0.0,0.0,0.0,0.0,0.0,0.0,0.0,0.0,0.3189,0.8461,1.2027,1.3314,1.3171,1.1691,0.0,0.0,0.0,0.0,0.0,0.0,0.0,0.0,0.0,0.0,0.0,0.0,0.0,0.0,0.0,0.0,0.0,0.0,0.0,0.0,0.0,0.0,0.0,0.0,0.0,0.0,0.0,0.0,0.0,0.0,0.0,0.0,0.0,0.0,0.0,0.0,0.0,0.0,0.0,0.0,0.0,0.0,0.0,0.0,0.0,0.0,0.0,0.0,0.0,0.0,0.0,0.0,0.0,0.0,0.0,0.0,0.0,0.0,0.0,0.0,0.0,0.0,0.0,0.0,0.0,0.0,0.0,0.0,0.0,0.0,0.0,0.0,0.0,0.0,0.0,0.0,0.0,0.0,0.0,0.0,0.0,0.0,0.0,0.0,0.0,0.0,0.0,0.0,0.0,0.0,0.0,0.0,0.0,0.0,0.0,0.0,0.0,0.0,0.0,0.0,0.0,0.0,0.0,0.0,0.0,0.0,0.0,0.0,0.0,0.7299,1.8659,2.2356,1.8009,1.9583,1.7265,0.0,0.0,0.0,0.0,0.0,0.0,0.0,0.0,0.0,0.0,0.0,0.0,0.0,0.0,0.0,0.0,0.0,0.0,0.0,0.0,0.0,0.0,0.0,0.0,0.0,0.0,0.0,0.0,0.0,0.0,0.0,0.0,0.0,0.0,0.0,0.0,0.0,0.0,0.0,0.0,0.0,0.0,0.0,0.0,0.0,0.0,0.0,0.0,0.0,0.0,0.0,0.0,0.0,0.0,0.0,0.0,0.0,0.0,0.0,0.0,0.0,0.0,0.0,0.0,0.0,0.0,0.0,0.0,0.0,0.0,0.0,0.0,0.0,0.0,0.0,0.0,0.0,0.0,0.0,0.0,0.0,0.0,0.0,0.0,0.0,0.0,0.0,0.0,0.0,0.0,0.0,0.0,0.0,0.0,0.0,0.0,0.0,0.0,0.0,0.0,0.0,0.0,0.0,0.0,0.0,0.0,0.0,0.0,0.0,1.2765,1.7872,2.0114,1.8904,1.7415,1.5885,1.4351,0.0,0.0,0.0,0.0,0.0,0.0,0.0,0.0,0.0,0.0,0.0,0.0,0.0,0.0,0.0,0.0,0.0,0.0,0.0,0.0,0.0,0.0,0.0,0.0,0.0,0.0,0.0,0.0,0.0,0.0,0.0,0.0,0.0,0.0,0.0,0.0,0.0,0.0,0.0,0.0,0.0,0.0,0.0,0.0,0.0,0.0,0.0,0.0,0.0,0.0,0.0,0.0,0.0,0.0,0.0,0.0,0.0,0.0,0.0,0.0,0.0,0.0,0.0,0.0,0.0,0.0,0.0,0.0,0.0,0.0,0.0,0.0,0.0,0.0,0.0,0.0,0.0,0.0,0.0,0.0,0.0,0.0,0.0,0.0,0.0,0.0,0.0,0.0,0.0,0.0,0.0,0.0,0.0,0.0,0.0,0.0,0.0,0.0,0.0,0.0,0.0,0.0,0.0,0.0,0.0,0.0,0.0,0.0,1.7143,1.9475,2.0321,1.9498,1.7506,1.6171,0.0,0.0,0.0,0.0,0.0,0.0,0.0,0.0,0.0,0.0,0.0,0.0,0.0,0.0,0.0,0.0,0.0,0.0,0.0,0.0,0.0,0.0,0.0,0.0,0.0,0.0,0.0,0.0,0.0,0.0,0.0,0.0,0.0,0.0,0.0,0.0,0.0,0.0,0.0,0.0,0.0,0.0,0.0,0.0,0.0,0.0,0.0,0.0,0.0,0.0,0.0,0.0,0.0,0.0,0.0,0.0,0.0,0.0,0.0,0.0,0.0,0.0,0.0,0.0,0.0,0.0,0.0,0.0,0.0,0.0,0.0,0.0,0.0,0.0,0.0,0.0,0.0,0.0,0.0,0.0,0.0,0.0,0.0,0.0,0.0,0.0,0.0,0.0,0.0,0.0,0.0,0.0,0.0,0.0,0.0,0.0,0.0,0.0,0.0,0.0,0.0,0.0,0.0,0.0,0.0,0.0,0.0,0.0,1.8857,2.0898,2.4824,2.4563,2.0488,2.1204,1.9025,0.0,0.0,0.0,0.0,0.0,0.0,0.0,0.0,0.0,0.0,0.0,0.0,0.0,0.0,0.0,0.0,0.0,0.0,0.0,0.0,0.0,0.0,0.0,0.0,0.0,0.0,0.0,0.0,0.0,0.0,0.0,0.0,0.0,0.0,0.0,0.0,0.0,0.0,0.0,0.0,0.0,0.0,0.0,0.0,0.0,0.0,0.0,0.0,0.0,0.0,0.0,0.0,0.0,0.0,0.0,0.0,0.0,0.0,0.0,0.0,0.0,0.0,0.0,0.0,0.0,0.0,0.0,0.0,0.0,0.0,0.0,0.0,0.0,0.0,0.0,0.0,0.0,0.0,0.0,0.0,0.0,0.0,0.0,0.0,0.0,0.0,0.0,0.0,0.0,0.0,0.0,0.0,0.0,0.0,0.0,0.0,0.0,0.0,0.0,0.0,0.0,0.0,0.0,0.0,0.0,0.0,0.0,0.0,0.0,1.9587,0.0,2.229,0.0,2.1054,1.8968,0.0,0.0,0.0,0.0,0.0,0.0,0.0,0.0,0.0,0.0,0.0,0.0,0.0,0.0,0.0,0.0,0.0,0.0,0.0,0.0,0.0,0.0,0.0,0.0,0.0,0.0,0.0,0.0,0.0,0.0,0.0,0.0,0.0,0.0,0.0,0.0,0.0,0.0,0.0,0.0,0.0,0.0,0.0,0.0,0.0,0.0,0.0,0.0,0.0,0.0,0.0,0.0,0.0,0.0,0.0,0.0,0.0,0.0,0.0,0.0,0.0,0.0,0.0,0.0,0.0,0.0,0.0,0.0,0.0,0.0,0.0,0.0,0.0,0.0,0.0,0.0,0.0,0.0,0.0,0.0,0.0,0.0,0.0,0.0,0.0,0.0,0.0,0.0,0.0,0.0,0.0,0.0,0.0,0.0,0.0,0.0,0.0,0.0,0.0,0.0,0.0,0.0,0.0,0.0,0.0,0.0,0.0,0.0,0.0,2.145,1.9497,2.0946,0.0,2.1893,2.0005,0.0,0.0,0.0,0.0,0.0,0.0,0.0,0.0,0.0,0.0,0.0,0.0,0.0,0.0,0.0,0.0,0.0,0.0,0.0,0.0,0.0,0.0,0.0,0.0,0.0,0.0,0.0,0.0,0.0,0.0,0.0,0.0,0.0,0.0,0.0,0.0,0.0,0.0,0.0,0.0,0.0,0.0,0.0,0.0,0.0,0.0,0.0,0.0,0.0,0.0,0.0,0.0,0.0,0.0,0.0,0.0,0.0,0.0,0.0,0.0,0.0,0.0,0.0,0.0,0.0,0.0,0.0,0.0,0.0,0.0,0.0,0.0,0.0,0.0,0.0,0.0,0.0,0.0,0.0,0.0,0.0,0.0,0.0,0.0,0.0,0.0,0.0,0.0,0.0,0.0,0.0,0.0,0.0,0.0,0.0,0.0,0.0,0.0,0.0,0.0,0.0,0.0,0.0,0.0,0.0,0.0,0.0,0.0,0.0,0.0,2.2432,2.122,2.2794,2.3481,2.203,0.0,0.0,0.0,0.0,0.0,0.0,0.0,0.0,0.0,0.0,0.0,0.0,0.0,0.0,0.0,0.0,0.0,0.0,0.0,0.0,0.0,0.0,0.0,0.0,0.0,0.0,0.0,0.0,0.0,0.0,0.0,0.0,0.0,0.0,0.0,0.0,0.0,0.0,0.0,0.0,0.0,0.0,0.0,0.0,0.0,0.0,0.0,0.0,0.0,0.0,0.0,0.0,0.0,0.0,0.0,0.0,0.0,0.0,0.0,0.0,0.0,0.0,0.0,0.0,0.0,0.0,0.0,0.0,0.0,0.0,0.0,0.0,0.0,0.0,0.0,0.0,0.0,0.0,0.0,0.0,0.0,0.0,0.0,0.0,0.0,0.0,0.0,0.0,0.0,0.0,0.0,0.0,0.0,0.0,0.0,0.0,0.0,0.0,0.0,0.0,0.0,0.0,0.0,0.0,0.0,0.0,0.0,0.0,0.0,0.0,2.4245,0.0,2.2754,2.116,2.0006,1.9455,0.0,0.0,0.0,0.0,0.0,0.0,0.0,0.0,0.0,0.0,0.0,0.0,0.0,0.0,0.0,0.0,0.0,0.0,0.0,0.0,0.0,0.0,0.0,0.0,0.0,0.0,0.0,0.0,0.0,0.0,0.0,0.0,0.0,0.0,0.0,0.0,0.0,0.0,0.0,0.0,0.0,0.0,0.0,0.0,0.0,0.0,0.0,0.0,0.0,0.0,0.0,0.0,0.0,0.0,0.0,0.0,0.0,0.0,0.0,0.0,0.0,0.0,0.0,0.0,0.0,0.0,0.0,0.0,0.0,0.0,0.0,0.0,0.0,0.0,0.0,0.0,0.0,0.0,0.0,0.0,0.0,0.0,0.0,0.0,0.0,0.0,0.0,0.0,0.0,0.0,0.0,0.0,0.0,0.0,0.0,0.0,0.0,0.0,0.0,0.0,0.0,0.0,0.0,0.0,0.0,0.0,0.0,0.0,0.0,0.0,0.0,2.3315,2.1358,1.9858,0.0,0.0,0.0,0.0,0.0,0.0,0.0,0.0,0.0,0.0,0.0,0.0,0.0,0.0,0.0,0.0,0.0,0.0,0.0,0.0,0.0,0.0,0.0,0.0,0.0,0.0,0.0,0.0,0.0,0.0,0.0,0.0,0.0,0.0,0.0,0.0,0.0,0.0,0.0,0.0,0.0,0.0,0.0,0.0,0.0,0.0,0.0,0.0,0.0,0.0,0.0,0.0,0.0,0.0,0.0,0.0,0.0,0.0,0.0,0.0,0.0,0.0,0.0,0.0,0.0,0.0,0.0,0.0,0.0,0.0,0.0,0.0,0.0,0.0,0.0,0.0,0.0,0.0,0.0,0.0,0.0,0.0,0.0,0.0,0.0,0.0,0.0,0.0,0.0,0.0,0.0,0.0,0.0,0.0,0.0,0.0,0.0,0.0,0.0,0.0,0.0,0.0,0.0,0.0,0.0,0.0,0.0,0.0,0.0,0.0,0.0,2.3447,2.4175,2.2984,0.0,1.7857,0.0,0.0,0.0,0.0,0.0,0.0,0.0,0.0,0.0,0.0,0.0,0.0,0.0,0.0,0.0,0.0,0.0,0.0,0.0,0.0,0.0,0.0,0.0,0.0,0.0,0.0,0.0,0.0,0.0,0.0,0.0,0.0,0.0,0.0,0.0,0.0,0.0,0.0,0.0,0.0,0.0,0.0,0.0,0.0,0.0,0.0,0.0,0.0,0.0,0.0,0.0,0.0,0.0,0.0,0.0,0.0,0.0,0.0,0.0,0.0,0.0,0.0,0.0,0.0,0.0,0.0,0.0,0.0,0.0,0.0,0.0,0.0,0.0,0.0,0.0,0.0,0.0,0.0,0.0,0.0,0.0,0.0,0.0,0.0,0.0,0.0,0.0,0.0,0.0,0.0,0.0,0.0,0.0,0.0,0.0,0.0,0.0,0.0,0.0,0.0,0.0,0.0,0.0,0.0,0.0,0.0,0.0,0.0,0.0,0.0,0.0,0.0,2.3351,2.1013,1.8205,0.0,0.0,0.0,0.0,0.0,0.0,0.0,0.0,0.0,0.0,0.0,0.0,0.0,0.0,0.0,0.0,0.0,0.0,0.0,0.0,0.0,0.0,0.0,0.0,0.0,0.0,0.0,0.0,0.0,0.0,0.0,0.0,0.0,0.0,0.0,0.0,0.0,0.0,0.0,0.0,0.0,0.0,0.0,0.0,0.0,0.0,0.0,0.0,0.0,0.0,0.0,0.0,0.0,0.0,0.0,0.0,0.0,0.0,0.0,0.0,0.0,0.0,0.0,0.0,0.0,0.0,0.0,0.0,0.0,0.0,0.0,0.0,0.0,0.0,0.0,0.0,0.0,0.0,0.0,0.0,0.0,0.0,0.0,0.0,0.0,0.0,0.0,0.0,0.0,0.0,0.0,0.0,0.0,0.0,0.0,0.0,0.0,0.0,0.0,0.0,0.0,0.0,0.0,0.0,0.0,0.0,0.0,0.0,0.0,0.0,2.6701,2.5955,2.3321,2.0848,1.8741,0.0,0.0,0.0,0.0,0.0,0.0,0.0,0.0,0.0,0.0,0.0,0.0,0.0,0.0,0.0,0.0,0.0,0.0,0.0,0.0,0.0,0.0,0.0,0.0,0.0,0.0,0.0,0.0,0.0,0.0,0.0,0.0,0.0,0.0,0.0,0.0,0.0,0.0,0.0,0.0,0.0,0.0,0.0,0.0,0.0,0.0,0.0,0.0,0.0,0.0,0.0,0.0,0.0,0.0,0.0,0.0,0.0,0.0,0.0,0.0,0.0,0.0,0.0,0.0,0.0,0.0,0.0,0.0,0.0,0.0,0.0,0.0,0.0,0.0,0.0,0.0,0.0,0.0,0.0,0.0,0.0,0.0,0.0,0.0,0.0,0.0,0.0,0.0,0.0,0.0,0.0,0.0,0.0,0.0,0.0,0.0,0.0,0.0,0.0,0.0,0.0,0.0,0.0,0.0,0.0,0.0,0.0,0.0,0.0,0.0,0.0,0.0,0.0,0.0,1.9792,0.0,0.0,0.0,0.0,0.0,0.0,0.0,0.0,0.0,0.0,0.0,0.0,0.0,0.0,0.0,0.0,0.0,0.0,0.0,0.0,0.0,0.0,0.0,0.0,0.0,0.0,0.0,0.0,0.0,0.0,0.0,0.0,0.0,0.0,0.0,0.0,0.0,0.0,0.0,0.0,0.0,0.0,0.0,0.0,0.0,0.0,0.0,0.0,0.0,0.0,0.0,0.0,0.0,0.0,0.0,0.0,0.0,0.0,0.0,0.0,0.0,0.0,0.0,0.0,0.0,0.0,0.0,0.0,0.0,0.0,0.0,0.0,0.0,0.0,0.0,0.0,0.0,0.0,0.0,0.0,0.0,0.0,0.0,0.0,0.0,0.0,0.0,0.0,0.0,0.0,0.0,0.0,0.0,0.0,0.0,0.0,0.0,0.0,0.0,0.0,0.0,0.0,0.0,0.0,0.0,0.0,0.0,0.0,0.0,0.0,0.0,0.0,0.0,0.0,0.0,0.0,0.0,0.0,0.0,0.0,0.0,0.0,0.0,0.0,0.0,0.0,0.0,0.0,0.0,0.0,0.0,0.0,0.0,0.0,0.0,0.0,0.0,0.0,0.0,0.0,0.0,0.0,0.0,0.0,0.0,0.0,0.0,0.0,0.0,0.0,0.0,0.0,0.0,0.0,0.0,0.0,0.0,0.0,0.0,0.0,0.0,0.0,0.0,0.0,0.0,0.0,0.0,0.0,0.0,0.0,0.0,0.0,0.0,0.0,0.0,0.0,0.0,0.0,0.0,0.0,0.0,0.0,0.0,0.0,0.0,0.0,0.0,0.0,0.0,0.0,0.0,0.0,0.0,0.0,0.0,0.0,0.0,0.0,0.0,0.0,0.0,0.0,0.0,0.0,0.0,0.0,0.0,0.0,0.0,0.0,0.0,0.0,0.0,0.0,0.0,0.0,0.0,0.0,0.0,0.0,0.0,0.0,0.0,0.0,0.0,0.0,0.0,0.0,0.0,0.0,0.0,0.0,0.0,0.0,0.0,0.0,0.0,0.0,0.0,0.0,0.0,0.0,0.0,0.0,0.0,0.0,0.0,0.0,0.0,0.0,0.0,0.0,0.0,0.0,0.0,0.0,0.0,0.0,0.0,0.0,0.0,0.0,0.0,0.0,0.0,0.0,0.0,0.0,0.0,0.0,0.0,0.0,0.0,0.0,0.0,0.0,0.0,0.0,0.0,0.0,0.0,0.0,0.0,0.0,0.0,0.0,0.0,0.0,0.0,0.0,0.0,0.0,0.0,0.0,0.0,0.0,0.0,0.0,0.0,0.0,0.0,0.0,0.0,0.0,0.0,0.0,0.0,0.0,0.0,0.0,0.0,0.0,0.0,0.0,0.0,0.0,0.0,0.0,0.0,0.0,0.0,0.0,0.0,0.0,0.0,0.0,0.0,0.0,0.0,0.0,0.0,0.0,0.0,0.0,0.0,0.0,0.0,0.0,0.0,0.0,0.0,0.0,0.0,0.0,0.0,0.0,0.0,0.0,0.0,0.0,0.0,0.0,0.0,0.0,0.0,0.0,0.0,0.0,0.0,0.0,0.0,0.0,0.0,0.0,0.0,0.0,0.0,0.0,0.0,0.0,0.0,0.0,0.0,0.0,0.0,0.0,0.0,0.0,0.0,0.0,0.0,0.0,0.0,0.0,0.0,0.0,0.0,0.0,0.0,0.0,0.0,0.0,0.0,0.0,0.0,0.0,0.0,0.0,0.0,0.0,0.0,0.0,0.0,0.0,0.0,0.0,0.0,0.0,0.0,0.0,0.0,0.0,0.0,0.0,0.0,0.0,0.0,0.0,0.0,0.0,0.0,0.0,0.0,0.0,0.0,0.0,0.0,0.0,0.0,0.0,0.0,0.0,0.0,0.0,0.0,0.0,0.0,0.0,0.0,0.0,0.0,0.0,0.0,0.0,0.0,0.0,0.0,0.0,0.0,0.0,0.0,0.0,0.0,0.0,0.0,0.0,0.0,0.0,0.0,0.0,0.0,0.0,0.0,0.0,0.0,0.0,0.0,0.0,0.0,0.0,0.0,0.0,0.0,0.0,0.0,0.0,0.0,0.0,0.0,0.0,0.0,0.0,0.0,0.0,0.0,0.0,0.0,0.0,0.0,0.0,0.0,0.0,0.0,0.0,0.0,0.0,0.0,0.0,0.0,0.0,0.0,0.0,0.0,0.0,0.0,0.0,0.0,0.0,0.0,0.0,0.0,0.0,0.0,0.0,0.0,0.0,0.0,0.0,0.0,0.0,0.0,0.0,0.0,0.0,0.0,0.0,0.0,0.0,0.0,0.0,0.0,0.0,0.0,0.0,0.0,0.0,0.0,0.0,0.0,0.0,0.0,0.0,0.0,0.0,0.0,0.0,0.0,0.0,0.0,0.0,0.0,0.0,0.0,0.0,0.0,0.0,0.0,0.0,0.0,0.0,0.0,0.0,0.0,0.0,0.0,0.0,0.0,0.0,0.0,0.0,0.0,0.0,0.0,0.0,0.0,0.0,0.0,0.0,0.0,0.0,0.0,0.0,0.0,0.0,0.0,0.0,0.0,0.0,0.0,0.0,0.0,0.0,0.0,0.0,0.0,0.0,0.0,0.0,0.0,0.0,0.0,0.0,0.0,0.0,0.0,0.0,0.0,0.0,0.0,0.0,0.0,0.0,0.0,0.0,0.0,0.0,0.0,0.0,0.0,0.0,0.0,0.0,0.0,0.0,0.0,0.0,0.0,0.0,0.0,0.0,0.0,0.0,0.0,0.0,0.0,0.0,0.0,0.0,0.0,0.0,0.0,0.0,0.0,0.0,0.0,0.0,0.0,0.0,0.0,0.0,0.0,0.0,0.0,0.0,0.0,0.0,0.0,0.0,0.0,0.0,0.0,0.0,0.0,0.0,0.0,0.0,0.0,0.0,0.0,0.0,0.0,0.0,0.0,0.0,0.0,0.0,0.0,0.0,0.0,0.0,0.0,0.0,0.0,0.0,0.0,0.0,0.0,0.0,0.0,0.0,0.0,0.0,0.0,0.0,0.0,0.0,0.0,0.0,0.0,0.0,0.0,0.0,0.0,0.0,0.0,0.0,0.0,0.0,0.0,0.0,0.0,0.0,0.0,0.0,0.0,0.0,0.0,0.0,0.0,0.0,0.0,0.0,0.0,0.0,0.0,0.0,0.0,0.0,0.0,0.0,0.0,0.0,0.0,0.0,0.0,0.0,0.0,0.0,0.0,0.0,0.0,0.0,0.0,0.0,0.0,0.0,0.0,0.0,0.0,0.0,0.0,0.0,0.0,0.0,0.0,0.0,0.0,0.0,0.0,0.0,0.0,0.0,0.0,0.0,0.0,0.0,0.0,0.0,0.0,0.0,0.0,0.0,0.0,0.0,0.0,0.0,0.0,0.0,0.0,0.0,0.0,0.0,0.0,0.0,0.0,0.0,0.0,0.0,0.0,0.0,0.0,0.0,0.0,0.0,0.0,0.0,0.0,0.0,0.0,0.0,0.0,0.0,0.0,0.0,0.0,0.0,0.0,0.0,0.0,0.0,0.0,0.0,0.0,0.0,0.0,0.0,0.0,0.0,0.0,0.0,0.0,0.0,0.0,0.0,0.0,0.0,0.0,0.0,0.0,0.0,0.0,0.0,0.0,0.0,0.0,0.0,0.0,0.0,0.0,0.0,0.0,0.0,0.0,0.0,0.0,0.0,0.0,0.0,0.0,0.0,0.0,0.0,0.0,0.0,0.0,0.0,0.0,0.0,0.0,0.0,0.0,0.0,0.0,0.0,0.0,0.0,0.0,0.0,0.0,0.0,0.0,0.0,0.0,0.0,0.0,0.0,0.0,0.0,0.0,0.0,0.0,0.0,0.0,0.0,0.0,0.0,0.0,0.0,0.0,0.0,0.0,0.0,0.0,0.0,0.0,0.0,0.0,0.0,0.0,0.0,0.0,0.0,0.0,0.0,0.0,0.0,0.0,0.0,0.0,0.0,0.0,0.0,0.0,0.0,0.0,0.0,0.0,0.0,0.0,0.0,0.0,0.0,0.0,0.0,0.0,0.0,0.0,0.0,0.0,0.0,0.0,0.0,0.0,0.0,0.0,0.0,0.0,0.0,0.0,0.0,0.0,0.0,0.0,0.0,0.0,0.0,0.0,0.0,0.0,0.0,0.0,0.0,0.0,0.0,0.0,0.0,0.0,0.0,0.0,0.0,0.0,0.0,0.0,0.0,0.0,0.0,0.0,0.0,0.0,0.0,0.0,0.0,0.0,0.0,0.0,0.0,0.0,0.0,0.0,0.0,0.0,0.0,0.0,0.0,0.0,0.0,0.0,0.0]}],[{"header":{"parameterUnit":"kt","parameterCategory":2,"dx":1,"dy":1,"la1":29.587661999999998,"la2":31.0,"lo1":-88.76705300000003,"lo2":-86.6583820000003,"nx":115,"ny":88,"refTime":"2022-10-03T12:00:00:Z","depth":0,"parameterNumber":2,"parameterNumberName":"V-component_of_WINDS"},"data":[9.8954,9.892,9.8959,9.8892,9.8857,9.8862,9.8936,9.8935,9.882,9.893,9.8666,9.8629,9.7682,9.4909,9.4872,9.5096,9.5629,9.5436,9.5017,9.482,9.5486,9.5228,9.4919,9.4856,9.4464,9.357,9.2543,9.1885,9.1553,9.0503,8.9752,8.992,8.9852,8.9807,8.9724,8.9715,8.9828,8.9939,8.9657,8.9516,8.9678,8.9729,8.9665,8.9688,8.9688,8.9682,8.9675,8.9713,8.9675,8.9675,8.9704,8.9714,8.9718,8.9732,8.9754,8.9823,8.9866,8.9883,8.9903,8.9941,8.9881,8.9834,8.9806,8.9728,8.9615,8.9511,8.908,8.9014,8.7861,8.7367,8.7089,8.6648,8.5812,8.3532,8.2292,8.1747,8.0898,8.0003,7.9412,7.9314,7.915,7.8994,7.8793,7.8681,7.8719,7.8719,7.8719,7.8719,7.8719,7.8719,7.8719,7.8464,7.8172,7.8389,7.824,7.7963,7.868,7.867,7.859,7.8298,7.8061,7.7852,7.7262,7.6342,7.5898,7.5671,7.5507,7.5265,7.5205,7.5205,7.5241,7.5241,7.5241,7.5241,7.5241,9.5615,9.5501,9.555,9.5553,9.5477,9.5559,9.5641,9.5646,9.5592,9.5634,9.552,9.5541,9.541,9.4914,9.4841,9.4863,9.4607,9.4039,9.4381,9.445,9.4446,9.4071,9.3652,9.3339,9.2926,9.2121,9.1189,9.0634,9.042,9.0002,8.9665,8.9659,8.9646,8.9653,8.9646,8.9632,8.9615,8.9641,8.9621,8.9608,8.9698,8.9789,8.9865,8.9941,8.9937,8.9937,8.9941,8.9941,8.9941,8.9941,8.9903,8.9903,8.9903,8.9865,8.9903,8.9903,8.9941,8.9979,8.9979,8.9979,8.9941,8.9883,8.9823,8.9741,8.9627,8.9224,8.8502,8.763,8.6078,8.5277,8.5126,8.4698,8.3766,8.2433,8.1924,8.1424,8.0322,7.9216,7.9153,7.9178,7.909,7.9012,7.8817,7.8688,7.8696,7.8719,7.8719,7.8719,7.8404,7.7574,7.7185,7.7095,7.7214,7.7027,7.6744,7.7348,7.8606,7.8499,7.8114,7.7986,7.763,7.6648,7.5917,7.5608,7.5654,7.5397,7.522,7.5376,7.5235,7.5241,7.5241,7.5241,7.5241,7.5241,7.5241,9.4856,9.4856,9.4856,9.4856,9.4856,9.4856,9.4856,9.486,9.4844,9.3864,9.2341,9.2138,9.2162,9.2128,9.2162,9.1994,9.2002,9.2232,9.2476,9.2289,9.1908,9.233,9.1989,9.1344,9.1231,9.1004,9.0166,8.9894,9.0006,8.9827,8.9789,8.9866,8.9864,8.9864,8.9823,8.9745,8.9741,8.9813,8.9737,8.9791,8.9877,8.9903,8.9979,8.9979,8.9979,8.9979,8.9979,8.9979,8.9979,8.9979,8.9979,8.9979,8.9979,8.9979,8.9979,8.9979,8.9979,8.9979,8.9979,8.9979,8.9979,8.9976,8.9932,8.9659,8.9537,8.7347,8.665,8.6271,8.4703,8.3754,8.3562,8.3249,8.2392,8.1546,8.0989,8.0789,8.0075,7.9292,7.924,7.9278,7.9236,7.9095,7.8863,7.8715,7.7811,7.7736,7.6327,7.5952,7.578,7.5242,7.5428,7.5578,7.6165,7.6165,7.6277,7.7199,7.8246,7.7969,7.758,7.713,7.6448,7.5387,7.47,7.478,7.4789,7.4834,7.5325,7.5668,7.5628,7.5235,7.5175,7.5175,7.5241,7.5241,7.5145,9.368,9.368,9.3718,9.3718,9.368,9.368,9.3604,9.368,9.3718,9.228,9.0341,9.0079,9.0155,9.0417,9.0455,9.0458,9.031,9.0696,9.0117,9.0316,9.0395,9.0712,9.0137,9.0377,9.0187,8.9999,9.0006,8.9976,8.9978,8.9979,8.9979,8.9979,8.9979,8.9979,8.9941,8.9889,8.9883,8.9935,8.9885,8.9889,8.9941,8.9979,8.9979,8.9979,8.9979,8.9979,8.9979,8.9979,8.9979,8.9979,8.9979,8.9979,8.9979,8.9979,8.9979,8.9979,8.9979,8.9979,8.9979,8.9979,8.9979,8.9978,8.956,8.9485,8.8345,8.5834,8.4424,8.4231,8.3662,8.2785,8.217,8.1778,8.1308,8.0546,7.9822,7.9901,7.997,7.9682,7.9492,7.9453,7.9419,7.9225,7.8933,7.8222,7.7143,7.5979,7.4834,7.3983,7.4044,7.3256,7.3397,7.3973,7.4658,7.5866,7.6425,7.7079,7.7603,7.7512,7.6788,7.5993,7.5292,7.4503,7.386,7.3894,7.4015,7.43,7.4708,7.5384,7.5584,7.5193,7.5049,7.4958,7.5024,7.4989,7.4923,9.0455,9.0496,9.0379,9.0645,9.0417,9.0607,9.0607,9.0382,9.0683,9.0265,9.0113,9.0003,9.0003,9.0003,9.0003,9.0003,9.0003,9.0003,9.0003,9.0041,9.0003,9.0006,9.0012,8.998,8.9988,8.9997,9.0004,9.001,8.9976,8.9979,8.9979,8.9979,8.9979,8.9979,8.9979,8.9979,8.9979,8.9979,8.9979,8.9941,8.9979,8.9979,8.9979,8.9979,8.9979,8.9979,8.9979,8.9979,8.9979,8.9979,8.9979,8.9979,8.9979,8.9979,8.9979,8.9979,8.9979,8.9865,8.9675,8.9523,8.9675,8.9142,8.8608,8.7809,8.6402,8.4231,8.2935,8.2514,8.2022,8.1225,8.1069,8.0794,8.0637,8.016,7.9796,7.9853,7.9907,7.9842,7.9644,7.9527,7.9344,7.8517,7.813,7.6548,7.5309,7.5732,7.4914,7.3671,7.287,7.1379,7.1548,7.215,7.3604,7.5155,7.5878,7.6585,7.7088,7.6719,7.5884,7.5032,7.3715,7.3257,7.3022,7.2953,7.2906,7.3388,7.4112,7.4866,7.5233,7.5008,7.4892,7.4769,7.4672,7.4636,7.4428,9.0003,9.0003,9.0003,9.0003,9.0003,9.0003,9.0003,9.0003,9.0003,9.0003,9.0003,9.0,9.0003,9.0003,9.0003,9.0003,9.0003,9.0003,9.0003,9.0003,9.0003,9.0006,8.9977,8.9983,8.9988,8.9997,9.0006,9.001,8.9976,8.9979,8.9979,8.9979,8.9979,8.9979,8.9979,8.9979,8.9979,8.9979,8.9979,8.9979,8.9979,8.9979,8.9979,8.9979,8.9979,8.9979,8.9979,8.9979,8.9979,8.9979,8.9979,8.9979,8.9979,8.9979,8.9979,8.9979,8.9865,8.9409,8.8612,8.846,8.7852,8.7055,8.6256,8.5451,8.4036,8.2739,8.1748,8.1059,8.0379,7.9923,7.9918,7.9913,7.991,7.991,7.991,7.991,7.991,7.991,7.9777,7.9632,7.8832,7.7905,7.6581,7.4934,7.3964,7.3883,7.3274,7.2475,7.1561,7.0884,7.1568,7.2478,7.3797,7.4849,7.5403,7.6201,7.6295,7.598,7.496,7.3532,7.2118,7.1383,7.0815,7.1045,7.1599,7.2708,7.3551,7.4307,7.4854,7.4912,7.4765,7.4011,7.3462,7.3603,7.3427,8.9769,8.9769,8.9769,8.9827,8.9884,8.9779,8.9769,8.9774,8.9842,8.9889,8.9931,8.9951,9.0,9.0003,9.0,9.0003,9.0003,9.0003,9.0003,9.0003,9.0003,9.0009,8.9975,8.998,8.9988,8.9995,9.0001,9.0004,9.0012,8.9979,8.9979,8.9979,8.9979,8.9979,8.9979,8.9979,8.9979,8.9979,8.9979,8.9979,8.9979,8.9979,8.9979,8.9979,8.9979,8.9979,8.9979,8.9979,8.9979,8.9979,8.9979,8.9979,8.9979,8.9979,8.9979,8.9979,8.9333,8.8574,8.7169,8.6751,8.641,8.5497,8.3974,8.2973,8.1897,8.0899,8.0292,8.0216,7.9991,7.9916,7.9913,7.991,7.991,7.991,7.991,7.9834,7.972,7.9606,7.9338,7.8897,7.7361,7.6449,7.5514,7.3934,7.2701,7.186,7.1342,7.1194,7.1013,7.1952,7.2834,7.409,7.5207,7.5667,7.6095,7.6188,7.5872,7.513,7.3685,7.2258,7.0867,6.9717,6.8773,6.881,6.9523,7.0865,7.2544,7.3478,7.4003,7.4201,7.422,7.3081,7.2183,7.2214,7.2105,8.9252,8.9252,8.9204,8.9409,8.9542,8.9383,8.9271,8.9281,8.9482,8.9615,8.9621,8.988,8.9943,8.9955,8.9996,8.9996,9.0,9.0003,9.0003,9.0003,9.0003,9.0003,9.0003,9.0006,8.9977,8.9983,8.9993,9.0003,9.0012,8.9976,8.9978,8.9979,8.9979,8.9979,8.9941,8.9977,8.9978,8.9979,8.9979,8.9979,8.9979,8.9979,8.9979,8.9979,8.9979,8.9979,8.9979,8.9979,8.9979,8.9979,8.9979,8.9979,8.9979,8.9979,8.9979,8.9561,8.8384,8.6903,8.5423,8.5043,8.4624,8.378,8.1986,8.0692,8.0075,8.0178,7.991,7.991,7.991,7.991,7.991,7.991,7.9834,7.9452,7.9452,7.8841,7.8728,7.8841,7.85,7.7618,7.6083,7.4698,7.372,7.3208,7.1936,7.1471,7.1409,7.1575,7.3576,7.4342,7.4471,7.569,7.6189,7.6596,7.6503,7.654,7.5947,7.4244,7.2689,7.0837,6.9618,6.8397,6.8125,6.802,6.7982,6.8756,7.0634,7.1901,7.2898,7.3285,7.3403,7.2222,7.0147,7.0323,7.0781,8.9231,8.9231,8.9231,8.9271,8.929,8.9178,8.9166,8.9231,8.93,8.9336,8.9383,8.9434,8.9594,8.9741,8.9764,8.9779,9.0,9.0,9.0,9.0003,9.0,8.9955,8.9955,9.0003,8.9955,8.9977,8.9988,8.9999,9.0007,9.0011,8.9976,8.9978,8.9979,8.9892,8.9843,8.9891,8.9974,8.9979,8.9941,8.9979,8.9979,8.9979,8.9979,8.9979,8.9979,8.9979,8.9979,8.9941,8.9865,8.9865,8.9789,8.9751,8.9751,8.9637,8.9295,8.8524,8.7392,8.6068,8.4094,8.3373,8.2761,8.2138,8.0803,7.9961,7.9916,7.9913,7.991,7.9834,7.991,7.9872,7.9796,7.991,7.9297,7.769,7.7042,7.5135,7.5055,7.6159,7.6079,7.5536,7.4268,7.273,7.1488,7.1207,7.1563,7.1629,7.1764,7.4394,7.6739,7.6308,7.6134,7.6921,7.7448,7.7226,7.7022,7.6501,7.4909,7.3338,7.1359,6.9304,6.8214,6.8108,6.7892,6.7724,6.7499,6.7757,6.9164,7.0419,7.1739,7.2347,7.2152,7.0504,6.8537,6.8677,6.9417,8.9021,8.9021,8.9021,8.9021,8.9033,8.8935,8.8911,8.9008,8.9021,8.907,8.9151,8.9211,8.9356,8.9418,8.9466,8.9542,8.9709,8.9769,8.9769,8.9764,8.9822,8.9822,8.9752,8.9691,8.9764,8.9842,8.9871,8.9886,8.9957,9.0003,8.9969,8.9887,8.9831,8.9768,8.9652,8.9741,8.9829,8.9839,8.9805,8.9841,8.9865,8.9865,8.9827,8.9827,8.9827,8.9827,8.9865,8.9795,8.932,8.8742,8.8637,8.8213,8.7694,8.7603,8.7347,8.6719,8.5548,8.4544,8.3179,8.1664,8.1015,8.0506,7.9923,7.9954,7.9913,7.991,7.9493,7.9186,7.8845,7.8389,7.8427,7.831,7.7963,7.6432,7.5544,7.3561,7.2293,7.3321,7.3771,7.3265,7.2545,7.1086,7.0449,7.0471,7.1591,7.2066,7.2899,7.5386,7.7616,7.7396,7.7061,7.7711,7.7705,7.7504,7.6707,7.5019,7.339,7.2154,7.0326,6.8534,6.8164,6.8055,6.7819,6.7649,6.7218,6.688,6.8071,6.9279,7.0545,7.0803,6.9865,6.8501,6.7029,6.6993,6.7702,8.8662,8.8629,8.8662,8.8662,8.8658,8.8629,8.8662,8.8707,8.8691,8.8796,8.8966,8.9094,8.9217,8.9211,8.9259,8.9309,8.9383,8.952,8.952,8.9418,8.952,8.9472,8.9383,8.9365,8.9451,8.9587,8.9634,8.9698,8.9889,8.9844,8.9787,8.9685,8.9563,8.9387,8.9313,8.9421,8.9466,8.9463,8.9224,8.9204,8.9134,8.8919,8.8805,8.8735,8.8697,8.8556,8.8545,8.851,8.7948,8.7215,8.6991,8.6431,8.55,8.5308,8.5,8.4596,8.3323,8.2563,8.2038,8.0739,8.0183,7.9911,7.9407,7.9437,7.9653,7.9379,7.8734,7.7517,7.7324,7.6641,7.5841,7.519,7.5256,7.4786,7.4698,7.3468,7.1744,7.1545,7.1541,7.1265,7.0437,6.9869,6.9795,7.0133,7.1582,7.2619,7.3908,7.5697,7.7674,7.7958,7.7563,7.7582,7.69,7.6487,7.5388,7.3634,7.2169,7.1062,6.9864,6.8814,6.8261,6.8021,6.7837,6.7649,6.7254,6.6883,6.7492,6.8219,6.8398,6.8682,6.7702,6.718,6.5803,6.5205,6.5545,8.8629,8.8629,8.8629,8.8629,8.8629,8.8629,8.8629,8.8629,8.8629,8.8695,8.8739,8.8796,8.8921,8.9045,8.9096,8.9157,8.9228,8.9309,8.9261,8.9261,8.9261,8.9271,8.9252,8.9221,8.9211,8.93,8.9316,8.935,8.9487,8.9466,8.93,8.9215,8.9149,8.8305,8.7611,8.6719,8.6671,8.7153,8.697,8.6515,8.7563,8.6881,8.6237,8.6306,8.6375,8.6375,8.6423,8.6392,8.5896,8.5436,8.5068,8.4712,8.4479,8.42,8.3753,8.3025,8.2197,8.1571,8.0765,7.9966,7.981,7.9379,7.8855,7.8206,7.7782,7.7008,7.6702,7.5782,7.5654,7.5487,7.5221,7.4452,7.4099,7.3173,7.3084,7.2654,7.1005,7.0275,7.0038,6.9919,6.9876,6.9805,6.9767,6.9869,7.0737,7.0989,7.2285,7.4054,7.5932,7.6355,7.6637,7.6668,7.5833,7.4919,7.4088,7.2516,7.1045,6.9993,6.9348,6.8555,6.8185,6.804,6.7818,6.7454,6.7133,6.6944,6.7408,6.8285,6.7787,6.6944,6.6679,6.6684,6.5351,6.4615,6.4556,8.8557,8.8629,8.8629,8.8629,8.8629,8.8629,8.8629,8.8629,8.8629,8.8629,8.8629,8.8629,8.8707,8.8811,8.8909,8.8935,8.9008,8.9107,8.9083,8.9071,8.9107,8.9095,8.8983,8.9008,8.9083,8.9129,8.9125,8.9131,8.9214,8.9271,8.8949,8.7911,8.7101,8.6471,8.5934,8.5105,8.5153,8.5503,8.5143,8.484,8.5681,8.4849,8.4434,8.4396,8.4396,8.4396,8.4349,8.4263,8.3882,8.3527,8.3311,8.2711,8.2158,8.2099,8.1664,8.1016,8.0935,8.0497,7.9818,7.9665,7.9258,7.8734,7.7383,7.6419,7.6307,7.5627,7.4867,7.4104,7.3913,7.3297,7.3166,7.2911,7.2882,7.1863,7.12,7.0887,7.0265,7.0,6.98,6.9833,6.9789,6.9773,6.973,6.9608,6.9436,6.943,7.0755,7.2034,7.2872,7.3478,7.4896,7.5334,7.4066,7.3067,7.2696,7.1403,6.9956,6.923,6.8592,6.8111,6.7693,6.7628,6.7589,6.7124,6.6745,6.6617,6.7017,6.818,6.8287,6.7461,6.6859,6.6142,6.5312,6.4478,6.4349,8.847,8.8543,8.856,8.8543,8.8523,8.8612,8.8629,8.8612,8.8612,8.8629,8.8629,8.8629,8.8629,8.8662,8.8695,8.8695,8.8679,8.8886,8.8856,8.8849,8.8864,8.8856,8.878,8.8771,8.8818,8.8935,8.8952,8.9008,8.9065,8.8552,8.725,8.6177,8.5329,8.4377,8.3808,8.3689,8.38,8.3361,8.3323,8.3487,8.3852,8.3626,8.3463,8.3526,8.3677,8.3802,8.3815,8.3389,8.2799,8.1595,8.1521,8.1057,8.0381,8.0178,8.0189,7.9848,7.9839,7.9553,7.9121,7.8857,7.8402,7.7116,7.5903,7.5073,7.4633,7.4563,7.3738,7.2347,7.2171,7.1527,7.0725,6.999,7.0716,7.0387,7.0401,7.0128,7.0052,6.9807,6.9778,6.9757,6.9767,6.9724,6.9708,6.8966,6.8659,6.8682,6.9826,7.0792,7.1309,7.1685,7.3154,7.3445,7.2147,7.1596,7.1245,7.0685,6.9654,6.8892,6.8349,6.7871,6.7426,6.7302,6.7328,6.6907,6.665,6.6352,6.6393,6.7079,6.7534,6.7493,6.702,6.5877,6.4947,6.4353,6.4198,8.8021,8.7362,8.7744,8.7904,8.7982,8.8435,8.8577,8.8488,8.8577,8.8612,8.8629,8.8629,8.8629,8.8629,8.8629,8.8629,8.8629,8.8674,8.8679,8.8679,8.8695,8.8674,8.8662,8.8629,8.8679,8.8707,8.8621,8.8458,8.7895,8.6544,8.5118,8.4401,8.3681,8.319,8.2518,8.2209,8.1809,8.1057,8.0907,8.1396,8.1922,8.1283,8.0869,8.0656,8.0543,8.0506,8.0543,8.0644,8.0681,8.0005,8.0042,7.9942,7.949,7.9302,7.9302,7.9301,7.8906,7.8599,7.7895,7.7534,7.6804,7.5786,7.4742,7.3993,7.3023,7.1614,7.069,7.0706,7.0604,7.0424,7.0045,6.9962,6.9987,6.9933,6.9831,6.9876,6.9876,6.9848,6.9787,6.9494,6.9254,6.9377,6.8935,6.8247,6.8016,6.8007,6.8627,6.9562,6.9871,7.0015,7.0847,7.1125,7.0343,7.0221,6.9923,6.9671,6.9261,6.8618,6.8194,6.7763,6.7454,6.7271,6.7074,6.6818,6.6567,6.6509,6.6709,6.655,6.641,6.6343,6.6095,6.5247,6.4742,6.4298,6.401,8.7248,8.6768,8.7108,8.7248,8.7294,8.7639,8.7904,8.8099,8.8176,8.8361,8.8594,8.8629,8.8629,8.8629,8.8629,8.8629,8.8629,8.8645,8.8629,8.8629,8.8629,8.8629,8.8591,8.8629,8.8629,8.8458,8.7993,8.7469,8.5915,8.4092,8.2723,8.2641,8.2046,8.1338,8.0654,8.0606,8.003,7.9591,7.9365,7.9791,8.0193,7.9854,7.9378,7.9378,7.9415,7.9453,7.949,7.9302,7.9302,7.9302,7.9302,7.9302,7.9302,7.9302,7.9239,7.9138,7.8071,7.6831,7.6028,7.5952,7.5045,7.4005,7.3426,7.2861,7.1414,7.0404,6.9894,6.9765,6.9781,6.9802,6.9891,6.9971,7.0007,6.9999,6.9907,6.9945,6.9936,6.9879,6.9287,6.8953,6.8609,6.8345,6.8002,6.7661,6.7631,6.8077,6.9018,6.9477,6.9467,6.9365,6.9322,6.9333,6.9273,6.9217,6.9123,6.9048,6.8891,6.8604,6.8188,6.7837,6.7496,6.7187,6.6841,6.6591,6.6159,6.6523,6.7322,6.6775,6.5717,6.5379,6.5142,6.4767,6.4363,6.3979,6.3856,8.6301,8.6264,8.6476,8.659,8.6616,8.6706,8.7048,8.7531,8.7575,8.7924,8.8307,8.8417,8.8417,8.847,8.8488,8.8577,8.8612,8.8629,8.8629,8.8516,8.8255,8.8068,8.8255,8.8292,8.7507,8.7245,8.6331,8.4968,8.3289,8.1631,8.0835,8.066,7.9713,7.8888,7.9182,7.9291,7.9165,7.9152,7.9178,7.9241,7.9316,7.9353,7.929,7.9302,7.9302,7.9302,7.9302,7.9302,7.9302,7.9302,7.9302,7.9314,7.9277,7.9202,7.8936,7.7476,7.5797,7.385,7.3736,7.3613,7.2951,7.2109,7.1839,7.1115,7.0436,6.9822,6.975,6.9768,6.9778,6.9797,6.9871,6.9923,6.997,6.9932,6.9586,6.9391,6.9312,6.8586,6.7801,6.736,6.6345,6.6349,6.669,6.6932,6.7355,6.8436,6.9248,6.9306,6.9316,6.9247,6.9168,6.9247,6.9247,6.9145,6.9048,6.9048,6.8905,6.8662,6.8271,6.7892,6.763,6.7332,6.6885,6.6284,6.5483,6.5535,6.585,6.5678,6.5077,6.4807,6.4938,6.4603,6.4071,6.3824,6.3636,8.5001,8.5158,8.5597,8.5829,8.6015,8.646,8.6768,8.6929,8.7026,8.7179,8.7398,8.7443,8.766,8.7924,8.808,8.8214,8.8629,8.8445,8.8278,8.7999,8.7123,8.6613,8.6256,8.5583,8.4956,8.5129,8.4138,8.3016,8.0879,7.9319,7.8522,7.8506,7.8486,7.8169,7.8256,7.8445,7.8325,7.8462,7.8658,7.8845,7.8916,7.914,7.9302,7.9302,7.9302,7.9227,7.9077,7.8964,7.8926,7.8926,7.895,7.9098,7.9034,7.8089,7.5571,7.2304,7.1041,7.0624,7.0574,7.0582,7.0628,7.0237,7.0215,7.0138,6.9768,6.9784,6.9783,6.9778,6.9761,6.9825,6.9895,6.99,6.9875,6.966,6.8755,6.7882,6.7654,6.7157,6.6345,6.5089,6.4114,6.4033,6.4514,6.4955,6.6694,6.7846,6.9308,6.9369,6.9408,6.9287,6.9193,6.9236,6.9176,6.9097,6.9048,6.9048,6.8905,6.8728,6.842,6.8069,6.78,6.7273,6.693,6.6452,6.5387,6.3819,6.4074,6.4052,6.4479,6.4807,6.4796,6.4562,6.4154,6.3883,6.3573,8.4583,8.4719,8.4969,8.5091,8.5221,8.564,8.5979,8.6283,8.6471,8.6718,8.6989,8.7085,8.7225,8.7443,8.7487,8.7099,8.6564,8.6086,8.564,8.5566,8.4822,8.4339,8.4152,8.3595,8.3168,8.2685,8.1365,7.9799,7.8676,7.777,7.7689,7.7619,7.7758,7.7911,7.7986,7.8024,7.8115,7.8206,7.8345,7.8482,7.8499,7.883,7.914,7.8953,7.8626,7.8174,7.7949,7.7486,7.6922,7.6771,7.6118,7.5776,7.4916,7.3443,7.1001,6.898,6.7743,6.7261,6.7276,6.8039,6.8357,6.8583,6.9382,6.9699,6.9752,6.9788,6.9824,6.9856,6.9869,6.9887,6.9867,6.9112,6.8848,6.8475,6.7268,6.6399,6.6059,6.5453,6.4121,6.2633,6.2295,6.2373,6.2716,6.4453,6.6032,6.7549,6.9078,6.9458,6.9557,6.9458,6.9317,6.9269,6.9133,6.9061,6.9022,6.9009,6.8942,6.8808,6.8633,6.8324,6.7886,6.6639,6.6193,6.5548,6.4134,6.2285,6.2458,6.3095,6.4168,6.495,6.4879,6.4713,6.4303,6.3817,6.3442,8.4516,8.4516,8.4516,8.4516,8.455,8.4683,8.5163,8.5735,8.5873,8.6283,8.6693,8.6805,8.6743,8.6892,8.6916,8.6154,8.4937,8.3771,8.2936,8.2899,8.2287,8.2124,8.1961,8.1465,8.1176,8.0564,7.9004,7.7585,7.7239,7.7145,7.707,7.729,7.7433,7.7574,7.7656,7.7834,7.7832,7.7813,7.7967,7.8042,7.7986,7.8002,7.7963,7.7509,7.6646,7.6185,7.5798,7.4897,7.3995,7.3668,7.2474,7.1379,6.9831,6.7441,6.6091,6.5238,6.4407,6.4181,6.4762,6.5827,6.6746,6.7542,6.8835,6.9687,6.9773,6.9841,6.9901,6.9963,6.9978,6.9761,6.958,6.7983,6.7227,6.6621,6.5636,6.4536,6.4426,6.3858,6.2757,6.1194,6.0929,6.1006,6.3011,6.4859,6.6627,6.8308,6.928,6.9471,6.9673,6.9679,6.9519,6.9345,6.9156,6.9061,6.901,6.9048,6.8945,6.884,6.8648,6.8362,6.7274,6.5993,6.4434,6.3147,6.1793,6.1169,6.1484,6.1989,6.3203,6.5012,6.5067,6.4897,6.4214,6.3567,6.3182,8.4516,8.4516,8.4516,8.4516,8.455,8.4619,8.4883,8.5203,8.5302,8.5508,8.5629,8.5629,8.5741,8.6129,8.6101,8.5627,8.4403,8.2996,8.1764,8.158,8.0601,8.0137,7.9828,7.9026,7.8189,7.7002,7.6509,7.6338,7.6302,7.6225,7.6479,7.649,7.6688,7.6954,7.7014,7.7084,7.7231,7.7247,7.7375,7.741,7.7361,7.6522,7.556,7.4903,7.4136,7.389,7.36,7.3268,7.2817,7.1932,7.1873,6.8747,6.4703,6.1636,6.0792,6.0979,6.113,6.1507,6.2647,6.4131,6.5727,6.7252,6.8697,6.9517,6.9613,6.9525,6.9432,6.9599,6.9455,6.9043,6.791,6.6355,6.5484,6.4993,6.3817,6.2946,6.2567,6.1501,6.1121,6.0093,6.0244,6.1305,6.3231,6.4886,6.7074,6.8866,6.9225,6.9526,6.9807,6.9886,6.9783,6.9608,6.9307,6.9191,6.9182,6.9177,6.8949,6.8769,6.8528,6.7807,6.6706,6.5225,6.3537,6.1639,6.0484,6.0728,6.0893,6.1481,6.282,6.4823,6.5334,6.4947,6.4244,6.3408,6.302,8.4516,8.4516,8.4516,8.4516,8.455,8.4617,8.4785,8.4951,8.5084,8.5144,8.5064,8.4269,8.416,8.4409,8.3569,8.257,8.1453,8.0617,7.9949,7.9024,7.8379,7.7856,7.7564,7.6956,7.6504,7.614,7.6006,7.6006,7.6006,7.5997,7.606,7.6113,7.6458,7.6622,7.6697,7.6919,7.6992,7.6881,7.6348,7.5889,7.572,7.4734,7.3541,7.3078,7.2307,7.1441,7.0607,7.0071,6.8774,6.7492,6.649,6.4283,6.0822,5.9778,5.9539,5.9522,5.9585,6.0186,6.0968,6.2468,6.424,6.5871,6.6661,6.7573,6.821,6.7689,6.74,6.7295,6.7262,6.7039,6.6134,6.4653,6.3819,6.3327,6.2112,6.12,6.1045,6.0549,6.0093,6.0088,6.0087,6.1449,6.296,6.4313,6.6237,6.79,6.8356,6.9283,6.9545,6.9188,6.9305,6.9074,6.903,6.9242,6.9231,6.8825,6.8485,6.8384,6.8006,6.7002,6.5633,6.4097,6.2564,6.077,5.894,5.9396,6.102,6.1134,6.2116,6.4314,6.5468,6.4996,6.4504,6.4084,6.3658,8.4516,8.4516,8.4516,8.4516,8.4514,8.4328,8.418,8.4173,8.4052,8.3757,8.3721,8.2748,8.2307,8.2322,8.1303,7.9813,7.885,7.8717,7.7595,7.6151,7.6006,7.6006,7.6069,7.6149,7.6033,7.5997,7.6033,7.6033,7.6033,7.6123,7.6149,7.6202,7.6509,7.6647,7.6722,7.6919,7.6882,7.6225,7.5179,7.4496,7.3989,7.2784,7.1829,7.1112,7.003,6.869,6.7204,6.5935,6.4318,6.2656,6.1551,6.0983,5.9594,5.9247,5.9308,5.9327,5.9493,5.957,5.9983,6.1404,6.2983,6.4227,6.4926,6.5453,6.667,6.5749,6.5102,6.4891,6.4871,6.4991,6.4311,6.2947,6.2149,6.1768,6.0893,6.0169,6.0051,6.005,6.0009,6.0003,6.0037,6.0645,6.2275,6.3882,6.5236,6.6654,6.7793,6.8803,6.8636,6.8166,6.7863,6.7404,6.7843,6.884,6.8462,6.7468,6.7473,6.7674,6.7008,6.6096,6.423,6.2553,6.098,5.9377,5.7981,5.9668,6.1732,6.204,6.2341,6.4132,6.5715,6.519,6.482,6.4848,6.4469,8.4516,8.4516,8.4516,8.4516,8.416,8.3054,8.2545,8.2388,8.1453,8.0912,8.0805,8.0518,8.0406,8.0406,7.9979,7.9415,7.8156,7.8181,7.7306,7.6439,7.6006,7.6006,7.6006,7.6006,7.6006,7.5997,7.614,7.6113,7.6087,7.6344,7.6483,7.6255,7.6454,7.6749,7.6239,7.6555,7.6055,7.4864,7.3942,7.3017,7.2013,7.0398,6.902,6.7885,6.6577,6.5147,6.3956,6.3144,6.1954,5.8757,5.886,5.8969,5.8933,5.9072,5.9232,5.929,5.9336,5.9342,5.9669,6.1006,6.2293,6.2741,6.3915,6.4897,6.4904,6.4606,6.4167,6.4118,6.478,6.3832,6.2746,6.1314,6.0628,6.051,6.0319,6.0006,5.9956,5.9913,5.9913,5.9873,5.9873,6.071,6.2172,6.3649,6.482,6.5311,6.6331,6.6868,6.6689,6.6267,6.5865,6.5869,6.7063,6.8258,6.7185,6.6063,6.6412,6.6602,6.5815,6.4832,6.2968,6.1231,5.9542,5.8589,5.8224,5.9378,6.1664,6.2903,6.3458,6.4651,6.5594,6.5361,6.4996,6.5127,6.5099,8.405,8.3196,8.3196,8.2661,8.1769,8.1163,8.091,8.0795,8.0259,7.9973,7.9759,7.9045,7.8703,7.8741,7.7975,7.7294,7.6979,7.7026,7.6656,7.6006,7.6006,7.5943,7.6006,7.6006,7.6006,7.5997,7.606,7.6087,7.6077,7.6281,7.5877,7.5264,7.5243,7.4734,7.3945,7.3752,7.34,7.2601,7.0796,6.9856,6.9121,6.6859,6.5253,6.4486,6.3866,6.3246,6.2445,6.1701,6.0495,5.8872,5.8478,5.8638,5.8696,5.8944,5.906,5.9061,5.9214,5.9336,5.9594,6.0165,6.1145,6.2018,6.1688,6.2367,6.2983,6.2325,6.1779,6.1918,6.1856,6.1568,6.0917,6.0362,6.0061,6.0018,5.9986,5.9948,5.9848,5.984,5.9838,5.9838,5.9904,6.0229,6.0798,6.2361,6.3153,6.3718,6.4678,6.4948,6.4634,6.4101,6.3846,6.4931,6.608,6.6021,6.5182,6.475,6.4931,6.4944,6.4315,6.3614,6.1899,6.0192,5.9144,5.8726,5.8433,5.893,6.0968,6.2619,6.3799,6.4947,6.5328,6.5601,6.5513,6.5565,6.5495,8.2358,8.1362,8.1526,8.0949,7.9918,7.9419,7.9308,7.9236,7.8813,7.8452,7.8385,7.7417,7.7039,7.7105,7.6088,7.572,7.5959,7.5997,7.5952,7.5979,7.5898,7.5716,7.5752,7.5548,7.5471,7.5435,7.5556,7.5508,7.5194,7.5194,7.4578,7.3235,7.2793,7.1971,7.076,7.0339,7.0027,6.9195,6.7001,6.6053,6.5453,6.3346,6.1989,6.1685,6.1672,6.153,6.1114,6.0217,5.9277,5.8537,5.8587,5.8661,5.8783,5.8859,5.8944,5.9,5.9124,5.9318,5.9438,5.9615,6.0206,6.1202,6.0516,6.0226,6.1395,6.0357,5.9795,5.9639,5.9688,5.9813,5.9828,5.9851,5.9905,5.9985,5.9946,5.9869,5.9867,5.9856,5.9853,5.9858,5.9876,5.9899,6.0346,6.1351,6.2319,6.2163,6.293,6.381,6.2942,6.2291,6.1799,6.3193,6.375,6.3579,6.3519,6.3345,6.3273,6.3274,6.2763,6.2028,6.0767,5.9515,5.9194,5.8982,5.8842,5.9995,6.1545,6.2868,6.4499,6.6148,6.6211,6.5936,6.5911,6.5911,6.5783,7.9025,7.8988,7.9696,7.9751,7.9324,7.8113,7.7476,7.7355,7.622,7.5624,7.5619,7.5421,7.5365,7.5383,7.5395,7.5334,7.56,7.5648,7.576,7.5668,7.5349,7.505,7.4991,7.4601,7.4374,7.4268,7.4643,7.3986,7.2572,7.2968,7.2611,7.0708,6.9462,6.8778,6.8116,6.7206,6.591,6.4879,6.4256,6.3235,6.2007,6.1337,6.0798,5.9733,5.986,5.9541,5.8754,5.8486,5.8399,5.8535,5.8675,5.8744,5.8858,5.8895,5.8954,5.9055,5.9088,5.9189,5.9307,5.9426,5.9683,5.9879,5.9697,5.9629,5.9846,5.9721,5.9532,5.9547,5.9609,5.9702,5.9744,5.9803,5.9873,5.9848,5.9901,5.987,5.9872,5.9871,5.9871,5.987,5.9864,5.9848,5.9956,6.1203,6.1299,6.0943,6.1449,6.1617,6.106,6.0812,6.0125,6.012,6.0567,6.0706,6.1328,6.1256,6.1705,6.1511,6.0969,6.0361,5.9486,5.9235,5.9082,5.9294,5.9584,6.124,6.275,6.3809,6.5174,6.634,6.6587,6.6295,6.6161,6.6161,6.6087,7.7117,7.6354,7.657,7.6256,7.5413,7.4922,7.464,7.4501,7.3975,7.3799,7.3764,7.3764,7.3797,7.3995,7.4476,7.4534,7.4472,7.4973,7.5032,7.4755,7.4476,7.4413,7.435,7.4125,7.3738,7.3175,7.3399,7.2322,6.998,7.0019,6.8933,6.678,6.5714,6.4776,6.3463,6.2868,6.2405,6.1753,6.0959,6.0339,5.9863,5.8916,5.8211,5.7896,5.8108,5.8063,5.777,5.7712,5.7895,5.8218,5.8224,5.8323,5.8641,5.8821,5.8965,5.9055,5.9088,5.9189,5.9374,5.9458,5.9519,5.9501,5.9517,5.9487,5.9494,5.9517,5.9522,5.9592,5.9646,5.9742,5.9786,5.9847,5.985,5.9855,5.9886,5.9864,5.9863,5.9871,5.9871,5.9871,5.9867,5.9855,5.9878,6.0564,6.0441,6.0147,6.0365,6.0288,6.0124,5.9863,5.9752,5.9532,5.9242,5.9252,5.9336,5.9656,6.0151,5.9922,5.9645,5.9349,5.9083,5.911,5.9126,5.9305,6.0088,6.1642,6.3606,6.4695,6.5683,6.6138,6.6893,6.6531,6.6185,6.6234,6.6355,7.4617,7.3806,7.403,7.3591,7.2974,7.2904,7.2904,7.2904,7.2904,7.2904,7.2904,7.2904,7.2975,7.3185,7.3627,7.3862,7.3696,7.3963,7.403,7.3697,7.3664,7.3452,7.3065,7.2994,7.201,7.0387,7.0027,6.8639,6.6619,6.6284,6.5166,6.2954,6.1887,6.0745,5.9691,5.9065,5.8844,5.8814,5.8055,5.7716,5.7818,5.6899,5.6473,5.6652,5.6985,5.7202,5.7369,5.7516,5.7727,5.7988,5.7862,5.803,5.8438,5.8657,5.8845,5.9088,5.9077,5.9168,5.9421,5.9513,5.9502,5.9514,5.9493,5.9501,5.957,5.9547,5.9577,5.9671,5.9722,5.978,5.9832,5.9872,5.9876,5.9927,5.9954,5.9937,5.9939,5.9947,5.991,5.9948,5.9909,5.9861,5.9878,5.9901,5.9996,5.9874,5.9899,5.9962,5.9895,5.9849,5.9778,5.9632,5.9634,5.9612,5.951,5.9627,5.9849,5.9663,5.9459,5.9224,5.9114,5.9093,5.9071,5.939,6.0425,6.1977,6.405,6.5495,6.6489,6.7188,6.7182,6.679,6.6319,6.6271,6.6497,7.1365,7.1565,7.2219,7.258,7.2725,7.2654,7.2798,7.2726,7.2762,7.2654,7.2618,7.2762,7.2654,7.2869,7.308,7.3219,7.301,7.2488,7.2276,7.2275,7.2487,7.1829,7.0614,7.051,6.8852,6.5792,6.4377,6.3142,6.1979,6.1986,6.139,5.9808,5.8327,5.7698,5.7568,5.6413,5.5685,5.5931,5.6054,5.5843,5.5618,5.5871,5.6059,5.6377,5.6646,5.684,5.6941,5.7406,5.7659,5.7724,5.7812,5.8187,5.8573,5.8495,5.8606,5.9077,5.9033,5.911,5.9429,5.951,5.9498,5.9539,5.9501,5.954,5.9643,5.964,5.9565,5.9515,5.9664,5.9755,5.973,5.979,5.99,6.0032,6.0047,6.0058,6.006,6.0097,6.0093,6.0019,5.9984,5.9871,5.9858,5.9882,5.9896,5.9889,5.984,5.9851,5.9866,5.987,5.9866,5.9835,5.9806,5.978,5.9646,5.9537,5.9509,5.9427,5.9301,5.9149,5.9044,5.8991,5.8956,5.9205,6.0226,6.2027,6.4102,6.6379,6.7357,6.7487,6.7429,6.7259,6.6723,6.6343,6.6567,7.0075,7.0414,7.0699,7.102,7.1297,7.1213,7.1179,7.1297,7.1336,7.1336,7.1302,7.1302,7.1336,7.1453,7.2139,7.1804,7.0331,6.9236,6.8793,6.8868,6.894,6.826,6.7097,6.6925,6.593,6.4074,6.2655,6.0859,5.9077,5.8882,5.8206,5.7059,5.6266,5.5908,5.5855,5.5471,5.5217,5.5379,5.5618,5.5704,5.5728,5.586,5.6048,5.6255,5.6377,5.6509,5.6589,5.6808,5.7098,5.7278,5.7275,5.7588,5.8315,5.8352,5.8522,5.8833,5.8905,5.9024,5.9318,5.9514,5.9615,5.9615,5.9622,5.9612,5.9678,5.9696,5.9126,5.8647,5.9028,5.9313,5.8714,5.9246,5.9998,6.0085,6.0093,6.0097,6.01,6.01,6.0097,6.0056,6.002,5.9947,5.9908,5.9978,5.9962,5.9866,5.9838,5.9872,5.9866,5.9866,5.9851,5.987,5.9857,5.9849,5.9811,5.9602,5.9513,5.9342,5.9223,5.9002,5.8834,5.8846,5.8896,5.9169,6.0274,6.2123,6.4321,6.683,6.7673,6.7708,6.7574,6.7275,6.6871,6.6474,6.6521,6.9384,6.9685,6.9888,7.0183,7.0473,7.0466,7.0473,7.053,7.053,7.053,7.053,7.053,7.053,7.0537,7.0246,6.8958,6.7112,6.6394,6.5836,6.5402,6.5439,6.4763,6.3606,6.3503,6.2712,6.111,6.0035,5.8541,5.6842,5.6606,5.6161,5.5474,5.5192,5.514,5.5243,5.5252,5.5294,5.5494,5.5691,5.58,5.5848,5.6001,5.6025,5.6025,5.621,5.6404,5.6413,5.6545,5.6766,5.7061,5.7086,5.7307,5.7868,5.8062,5.83,5.867,5.8747,5.8951,5.9185,5.9429,5.9531,5.9629,5.965,5.9514,5.8996,5.8832,5.8211,5.7194,5.8061,5.7807,5.6603,5.7196,5.8461,5.8994,5.9148,5.9302,5.9872,6.01,6.0099,6.0097,6.0097,6.0021,5.9948,5.9947,5.9943,5.9896,5.9871,5.985,5.9847,5.9844,5.9869,5.9844,5.987,5.9866,5.9849,5.9704,5.9533,5.938,5.9205,5.9077,5.8857,5.8858,5.9453,5.9788,6.1315,6.3125,6.4808,6.71,6.7747,6.7744,6.7434,6.7102,6.6614,6.6497,6.6497,6.9046,6.9067,6.9529,6.9733,7.0149,7.018,7.0261,7.006,7.0228,7.0261,7.0127,7.0194,7.0261,6.9833,6.7174,6.5287,6.3966,6.4025,6.3393,6.2277,6.2313,6.17,6.0501,6.0432,5.9121,5.6962,5.6711,5.6167,5.5298,5.5028,5.4984,5.5278,5.5088,5.5079,5.5394,5.5344,5.5469,5.5788,5.5752,5.5776,5.5824,5.6025,5.5895,5.5693,5.6095,5.6404,5.6603,5.6696,5.6838,5.6958,5.7081,5.7206,5.7366,5.7495,5.7888,5.8567,5.8692,5.8796,5.8895,5.8937,5.9045,5.9117,5.8957,5.8713,5.7357,5.7221,5.6526,5.5021,5.6197,5.5937,5.3513,5.4617,5.5952,5.7054,5.7402,5.8428,5.9872,6.01,6.01,6.01,6.0099,6.0023,5.9945,5.9871,5.9872,5.9869,5.9858,5.984,5.9869,5.9861,5.985,5.9862,5.984,5.9874,5.9874,5.9802,5.9704,5.9571,5.9397,5.9342,5.91,5.914,5.989,6.0841,6.2576,6.4236,6.5769,6.6862,6.7594,6.7593,6.7312,6.6849,6.6355,6.6403,6.6234,6.6253,6.654,6.6703,6.6984,6.7401,6.7255,6.7294,6.7412,6.7412,6.7485,6.7412,6.7446,6.6842,6.5468,6.2792,6.1315,6.0776,5.984,5.9202,5.9066,5.9131,5.8546,5.7344,5.7365,5.6432,5.4879,5.4935,5.4889,5.4708,5.4976,5.5394,5.5583,5.5667,5.5715,5.5812,5.5788,5.5631,5.5459,5.5519,5.5274,5.4958,5.5147,5.5459,5.5728,5.5872,5.6174,5.6711,5.6838,5.6901,5.6958,5.707,5.7229,5.7311,5.6513,5.6628,5.7838,5.8352,5.8208,5.7324,5.738,5.6996,5.6108,5.6013,5.5855,5.5609,5.5518,5.4751,5.3318,5.3452,5.3519,5.2554,5.3878,5.4637,5.4555,5.6338,5.8126,5.9774,6.0081,6.0097,6.0099,6.0098,6.0019,6.0018,5.9901,5.9858,5.9855,5.9782,5.9752,5.9872,5.987,5.9864,5.9856,5.9869,5.9862,5.9859,5.984,5.983,5.9682,5.9539,5.9427,5.9124,6.0156,6.1109,6.1612,6.393,6.5583,6.6125,6.7044,6.789,6.7479,6.7051,6.6597,6.6026,6.5875,6.5644,6.518,6.5268,6.5388,6.566,6.5973,6.6012,6.6128,6.6277,6.6277,6.6277,6.6042,6.3731,6.2152,6.1177,5.9603,5.8429,5.7791,5.6886,5.6313,5.5902,5.5963,5.568,5.5016,5.5068,5.4587,5.3737,5.4269,5.4523,5.4523,5.4854,5.5061,5.5122,5.5484,5.5523,5.5349,5.5299,5.5189,5.4984,5.5096,5.4792,5.4102,5.4414,5.4792,5.507,5.5374,5.5872,5.6421,5.6596,5.6703,5.688,5.711,5.6961,5.6329,5.5748,5.5592,5.5819,5.6231,5.6134,5.5518,5.5597,5.5338,5.4519,5.4504,5.4245,5.3787,5.3767,5.3056,5.1504,5.117,5.1182,5.1288,5.2125,5.2917,5.3451,5.5051,5.7259,5.9621,6.0056,6.0094,6.0097,6.0095,6.0051,5.9965,5.9911,5.985,5.9783,5.9724,5.9671,5.977,5.9826,5.9872,5.986,5.9844,5.9869,5.9844,5.9862,5.9832,5.9783,5.9704,5.9583,5.9539,6.0546,6.1776,6.2312,6.4404,6.5842,6.6283,6.732,6.7633,6.7078,6.6642,6.6247,6.5582,6.5263,6.4671,6.4468,6.442,6.441,6.4784,6.4858,6.5395,6.5487,6.5387,6.5602,6.5602,6.4521,5.9636,5.7289,5.7088,5.6987,5.615,5.4883,5.4849,5.4179,5.3137,5.3028,5.312,5.3211,5.3422,5.335,5.3283,5.4123,5.4434,5.429,5.4439,5.4358,5.4151,5.4783,5.4941,5.45,5.4365,5.4419,5.4546,5.4677,5.4254,5.3366,5.3771,5.4045,5.4039,5.4757,5.5424,5.6047,5.6113,5.6314,5.666,5.7054,5.6545,5.5095,5.5019,5.4593,5.3437,5.3298,5.3447,5.3761,5.3806,5.3755,5.3825,5.3751,5.3243,5.2054,5.2,5.131,5.01,4.9646,4.9771,4.9724,4.9884,5.0746,5.2293,5.3724,5.5644,5.7941,5.9395,5.9897,5.9974,6.0046,6.0039,5.9891,5.9821,5.9777,5.9735,5.9641,5.9634,5.971,5.9793,5.9821,5.983,5.9872,5.9867,5.985,5.9861,5.9844,5.9862,5.9844,5.9919,6.0268,6.11,6.2375,6.3848,6.5508,6.6655,6.7283,6.7574,6.7197,6.661,6.6114,6.5737,6.5236,6.4614,6.3744,5.972,5.997,6.0043,6.0331,6.0775,6.1445,6.1126,6.0172,6.086,6.019,5.8432,5.6112,5.492,5.4787,5.3696,5.2838,5.2277,5.2211,5.1914,5.1354,5.1422,5.1456,5.1555,5.2012,5.2302,5.246,5.3103,5.3552,5.3673,5.3898,5.4005,5.4089,5.4392,5.4608,5.4573,5.4722,5.4597,5.4179,5.4023,5.3737,5.3418,5.3591,5.3966,5.4317,5.4392,5.4819,5.5504,5.5647,5.5883,5.6139,5.6618,5.6272,5.4877,5.3939,5.341,5.3202,5.2358,5.2325,5.3349,5.2631,5.1665,5.0697,5.0659,5.0559,5.0345,5.0226,4.9959,4.9683,4.9585,4.9578,4.9604,4.9584,4.9745,5.0161,5.1672,5.2658,5.2172,5.5363,5.8286,5.9679,5.992,5.9878,5.9861,5.9802,5.9709,5.964,5.9582,5.9571,5.9639,5.9707,5.9726,5.9714,5.9815,5.9855,5.9861,5.9872,5.9861,5.9859,5.9856,6.0227,6.119,6.2499,6.3999,6.5231,6.677,6.7542,6.7276,6.7182,6.682,6.6051,6.5486,6.5052,6.4763,6.4089,6.3215,5.8179,5.8325,5.7731,5.7722,5.8204,5.7918,5.7508,5.7193,5.7207,5.6081,5.4353,5.3596,5.32,5.3068,5.2146,5.1587,5.1319,5.1117,5.0948,5.071,5.0779,5.0848,5.0882,5.1455,5.1686,5.1719,5.2614,5.3043,5.3114,5.3321,5.3576,5.4005,5.3663,5.3731,5.3983,5.4136,5.4086,5.376,5.2917,5.2404,5.2223,5.2168,5.2316,5.2596,5.3247,5.3858,5.4583,5.4732,5.4572,5.4143,5.461,5.4028,5.2217,5.1597,5.1239,5.093,5.0419,5.0496,5.1309,5.0711,5.0111,4.9499,4.9506,4.9539,4.963,4.9584,4.9608,4.9589,4.9594,4.9519,4.9461,4.9483,4.946,4.9356,5.0966,5.1213,5.0153,5.386,5.7704,5.9295,5.9628,5.9583,5.9516,5.9457,5.9396,5.9233,5.9107,5.9107,5.9305,5.933,5.9381,5.9669,5.9714,5.9734,5.9689,5.9813,5.9871,5.9867,5.9848,6.0124,6.0705,6.2771,6.4187,6.5194,6.7002,6.7844,6.7243,6.7041,6.6515,6.567,6.494,6.4446,6.3971,6.3472,6.2585,5.7399,5.7263,5.6076,5.5846,5.6239,5.4964,5.4874,5.5482,5.4167,5.2965,5.1785,5.1883,5.1851,5.1653,5.1455,5.122,5.1013,5.0705,5.0498,5.0396,5.0463,5.0428,5.0431,5.1018,5.1153,5.1047,5.2237,5.2741,5.2556,5.2714,5.3077,5.3547,5.29,5.2719,5.3123,5.3245,5.3332,5.3418,5.2142,5.1318,5.1138,5.0905,5.0558,5.0134,5.1721,5.2757,5.281,5.3141,5.2655,5.113,5.1431,5.0474,4.8132,4.8398,4.8439,4.7939,4.8192,4.8331,4.8225,4.8357,4.8513,4.8652,4.8918,4.9062,4.9114,4.9159,4.9191,4.922,4.9424,4.9499,4.9384,4.9376,4.936,4.946,5.0648,5.0865,4.9475,5.3512,5.7036,5.8619,5.9094,5.9221,5.9139,5.9107,5.9013,5.8772,5.8709,5.862,5.8808,5.8846,5.912,5.9601,5.9601,5.9463,5.9439,5.9616,5.9759,5.9834,5.9831,5.9947,6.0277,6.2155,6.3726,6.4246,6.6259,6.7373,6.6978,6.6849,6.6175,6.4918,6.4263,6.3836,6.2919,6.2178,6.1386,5.3546,5.27,5.2657,5.2849,5.3161,5.3377,5.3909,5.4498,0.0,0.0,0.0,5.111,5.0938,5.0627,5.0559,5.0201,4.9552,4.9478,4.9256,4.8994,4.8956,4.8994,4.8994,4.974,5.007,5.0209,5.125,5.1818,5.1884,5.2014,5.2142,5.2303,5.2433,5.2563,5.2624,5.3151,5.3388,5.3265,5.2999,5.2894,5.2949,5.2923,5.1415,4.8347,5.1124,5.1359,4.87,5.0173,4.9861,4.7133,4.6618,4.5602,4.384,4.4155,4.4932,4.6028,4.6305,4.6164,4.564,4.5689,4.5618,4.5244,4.6586,4.7285,4.6858,4.7258,4.7496,4.7458,4.8768,4.9522,4.9384,4.9368,4.9327,4.9232,4.9512,4.9503,4.9353,5.2344,5.5111,5.6378,5.8067,5.9137,5.9077,5.8996,5.8893,5.8833,5.8593,5.8516,5.8516,5.8453,5.8593,5.9177,5.9258,5.9177,5.9212,5.9365,5.9536,5.96,5.9715,6.0348,6.1447,6.1967,6.2996,6.4745,6.5589,6.5826,6.5767,6.5664,6.5344,6.4139,6.3077,6.2245,6.1867,6.0283,5.8387,5.2037,0.0,5.0982,5.0992,0.0,5.0904,5.1159,5.1776,5.0591,5.0376,5.09,5.09,5.0796,5.0655,5.0201,4.9949,4.973,4.9324,4.9062,4.8904,4.8904,4.8797,4.8606,4.9436,4.9845,4.9994,5.1009,5.155,5.1617,5.1785,5.1818,5.1785,5.2177,5.1878,5.096,5.2347,5.2712,5.2013,5.1446,5.1082,5.0893,5.0701,4.9724,4.7941,0.0,0.0,0.0,0.0,0.0,0.0,0.0,0.0,0.0,0.0,0.0,4.0388,3.8936,3.7964,3.7568,3.7565,3.8769,4.1366,4.2735,4.2658,4.0695,4.4635,4.5983,4.3284,4.6727,4.8678,4.7845,4.8449,4.8811,4.8728,4.8797,4.925,5.0122,5.2213,5.4182,5.5693,5.7417,5.8593,5.8526,5.8471,5.8481,5.8395,5.8171,5.8013,5.8046,5.7692,5.7727,5.8444,5.8759,5.8925,5.8769,5.8977,5.9314,5.9445,5.959,6.0024,6.0798,6.1288,6.192,6.2972,6.3616,6.3776,6.3944,6.3622,6.3213,6.28,6.2005,6.0679,5.7482,5.5871,5.4492,5.0968,5.0934,4.968,4.9473,4.9866,4.8708,4.8637,4.9293,4.9949,5.0447,5.0796,5.0898,5.09,5.0796,5.0165,5.0021,5.0165,4.9578,4.9318,4.9318,4.925,4.9093,4.8759,4.9404,4.9845,4.9958,5.0903,5.1313,5.1213,5.1452,5.1453,5.1182,5.1553,5.0998,4.9693,0.0,0.0,0.0,4.9754,4.9333,4.8966,4.8557,4.803,4.7385,4.904,0.0,4.982,4.8844,4.7904,4.7017,4.48,0.0,0.0,0.0,0.0,0.0,0.0,0.0,0.0,0.0,0.0,0.0,3.6858,3.6587,3.4879,4.0645,4.2546,3.8076,4.3939,4.7388,4.5507,4.7003,4.8164,4.8006,4.8238,4.8976,5.0407,5.1877,5.3393,5.5066,5.6626,5.7671,5.7812,5.7939,5.7919,5.7837,5.7589,5.7384,5.7309,5.6616,5.6574,5.7516,5.8395,5.867,5.8115,5.856,5.9005,5.914,5.9255,5.9513,5.9648,6.0459,6.0849,6.0815,6.1021,6.1339,6.1247,6.0781,6.0339,6.0817,6.0062,5.7969,5.2987,5.1533,5.0869,4.8867,4.7829,4.7841,4.7931,4.8021,4.8185,4.8452,4.8887,4.9552,5.0057,5.0447,5.0796,5.0831,5.0591,5.0411,5.0129,4.9808,4.9735,4.9699,4.9662,4.9699,4.9473,4.9131,4.9584,4.9772,4.9777,5.0383,5.0489,5.0173,5.0319,5.0006,4.9359,4.9755,4.9907,4.9887,5.0533,5.0018,4.8422,5.0066,5.0924,5.0925,5.0553,4.8785,4.5752,4.8467,4.8115,4.4015,4.5461,4.464,4.0874,3.8513,3.7253,3.7063,3.6482,3.5049,0.0,3.2985,0.0,0.0,0.0,0.0,0.0,0.0,0.0,0.0,3.3867,3.391,3.2115,4.0817,4.542,4.2588,4.5501,4.7447,4.7228,4.7531,4.7941,4.8523,5.007,5.1642,5.3096,5.4723,5.6228,5.726,5.7498,5.7442,5.733,5.6837,5.6109,5.5706,5.5118,5.5182,5.6395,5.7805,5.8098,5.7297,5.7825,5.8317,5.7998,5.8757,5.9645,5.9558,5.9362,5.928,5.9578,5.8984,5.8017,5.6963,5.6884,5.6978,5.7488,5.5907,5.3479,5.0453,4.9275,4.8656,4.7297,4.7269,4.754,4.7078,4.6282,4.6845,4.7679,4.8468,4.8773,4.9441,5.0376,5.0518,5.0379,4.9998,4.9704,4.941,4.9007,4.878,4.8743,4.8887,4.8773,4.8437,4.8111,4.836,4.8452,4.8483,4.8907,4.9094,4.9088,4.9211,4.9106,4.8801,4.9205,4.8044,4.5559,4.8003,4.9243,4.8996,4.9919,5.0138,4.9604,4.9199,4.8193,4.6569,4.8342,4.8086,4.5596,4.5674,4.4895,4.3059,4.0027,3.8605,3.9027,3.3322,3.0345,0.0,0.0,0.0,0.0,0.0,0.0,0.0,0.0,0.0,0.0,0.0,2.8478,3.2223,3.9465,4.161,3.6036,3.9272,4.1872,4.2231,4.0429,4.1024,4.5477,4.5962,4.6678,4.8564,5.092,5.2843,5.4026,5.4187,5.4724,5.618,5.3611,5.1501,5.1293,5.2125,5.2987,5.387,5.5399,5.6244,5.5819,5.6202,5.6676,5.6999,5.7994,5.8812,5.8807,5.8746,5.8547,5.8132,5.6919,5.5397,5.3755,5.3673,5.4049,5.3971,5.1631,4.8783,4.7318,4.6578,4.5901,4.5894,4.64,4.5815,4.4867,4.374,4.4486,4.5399,4.6428,4.676,4.756,4.8692,4.887,4.8456,4.752,4.6577,4.632,4.6643,4.6616,4.7068,4.7893,4.7976,4.7855,4.748,4.7469,4.7488,4.7449,4.7422,4.7607,4.8028,4.7855,4.7365,4.6701,4.6699,4.4829,4.1424,4.4788,4.7665,4.9735,4.9777,4.9336,4.843,4.7758,4.754,4.763,4.8172,4.7932,4.7052,4.5697,4.4768,4.4181,4.0248,3.8165,3.8595,2.9963,0.0,0.0,0.0,0.0,0.0,0.0,0.0,0.0,0.0,2.1813,1.6786,0.0,2.3903,0.0,3.6427,3.7504,3.2223,3.4527,0.0,0.0,3.3953,3.4039,3.9894,4.0803,4.1715,4.3724,4.6789,4.914,5.0296,5.0606,5.1321,5.2883,4.9778,4.7295,4.708,4.8521,4.9866,5.08,5.3005,5.4228,5.3279,5.3399,5.4146,5.5714,5.7088,5.7924,5.8007,5.8331,5.8125,5.6947,5.5268,5.3425,5.1687,5.0968,5.0894,5.0484,4.7861,4.5243,4.5043,4.4434,4.3743,4.429,4.4085,4.0924,3.9567,3.9609,4.0235,4.0793,4.1321,4.2537,4.3396,4.3917,4.4664,4.3819,4.1738,3.923,0.0,4.1642,4.2658,4.4508,4.6986,4.818,4.8476,4.8089,4.7864,4.7676,4.7379,4.6088,4.6022,4.6889,4.5805,4.3787,4.1116,3.9682,3.9306,3.9855,4.1041,4.4302,4.9641,4.9886,4.9599,4.8931,4.7619,4.721,4.7758,4.7739,4.6771,4.4862,4.3951,4.2303,3.9627,3.4723,3.1518,3.0441,0.0,0.0,0.0,0.0,0.0,0.0,0.0,0.0,0.0,0.0,0.0,0.0,0.0,0.0,0.0,2.9647,0.0,3.4871,3.4684,0.0,0.0,0.0,2.9701,3.0467,3.4538,3.7933,3.9401,0.0,0.0,4.7223,4.7598,4.7443,4.6586,4.6833,4.6511,4.4954,4.4945,4.5513,4.6947,5.1317,5.2989,4.9228,4.903,5.0421,5.3104,5.599,5.717,5.7416,5.7759,5.7484,5.646,5.4293,5.2342,5.1323,4.9131,4.683,4.573,4.5286,4.5043,4.4406,4.3698,4.3214,3.9015,3.6273,3.5211,3.5304,3.6123,3.6261,3.7808,4.0248,3.9835,3.9773,4.0081,4.0213,3.9097,3.688,3.4902,0.0,0.0,0.0,3.8962,4.3077,4.3648,4.488,4.6593,4.6559,4.6311,4.5906,4.5162,4.5232,4.5864,4.5232,4.0137,3.1034,0.0,0.0,3.2313,3.7721,4.2095,4.5274,4.7951,4.8931,4.8059,4.741,4.7089,4.722,4.5869,4.4559,4.3239,4.1578,3.8903,3.5132,3.1545,2.8867,0.0,0.0,0.0,0.0,0.0,0.0,0.0,0.0,0.0,0.0,0.0,1.3382,0.0,0.0,0.0,0.0,1.9504,2.1392,2.4227,2.7821,0.0,0.0,0.0,0.0,0.0,0.0,0.0,3.1046,3.5263,3.8733,4.0705,4.1424,4.1654,4.1176,4.0522,4.0019,3.9626,0.0,4.256,4.4168,4.7264,4.8684,4.6336,4.4344,4.3686,4.5636,4.9805,5.2918,5.3245,5.5847,5.7392,5.655,5.4658,5.2747,5.1783,4.9121,4.6807,4.5968,4.5314,4.4671,4.4246,4.3339,4.2712,3.2799,0.0,0.0,0.0,0.0,3.0997,3.2763,3.5673,3.4756,3.4537,3.484,3.4783,0.0,0.0,0.0,0.0,0.0,0.0,3.4531,3.8939,4.0457,4.2374,4.4653,4.467,4.4462,4.4001,4.3125,4.2687,4.244,4.0753,3.4206,2.3402,0.0,0.0,0.0,0.0,3.9499,4.2546,4.6672,4.8437,4.7658,4.725,4.6875,4.6488,4.4197,4.2619,4.1907,3.8547,3.5051,3.152,2.7564,0.0,0.0,0.0,0.0,0.0,0.0,0.0,0.0,0.0,0.0,0.0,0.0,0.0,0.0,0.0,0.0,0.0,0.0,0.0,1.6879,2.1957,2.4125,0.0,0.0,0.0,0.0,0.0,0.0,0.0,0.0,0.0,3.3438,3.5241,3.6873,0.0,0.0,3.6575,3.6122,3.7592,3.916,4.0261,4.2908,0.0,4.1128,3.8868,3.7571,3.7995,4.3088,4.7123,4.7256,5.1998,5.5254,5.3446,5.2761,5.2134,5.0998,4.8028,4.5341,4.4438,4.3217,4.2212,4.2209,4.2265,4.218,0.0,0.0,0.0,0.0,0.0,0.0,0.0,0.0,2.6267,2.6998,0.0,2.8161,0.0,0.0,0.0,0.0,0.0,2.853,0.0,0.0,3.9734,4.217,4.2219,4.2229,4.2171,4.1743,3.9552,3.7536,3.5566,3.0487,0.0,0.0,0.0,0.0,0.0,0.0,3.6042,4.2501,4.6428,4.8291,4.812,4.7199,4.637,4.5654,4.297,4.1321,4.0647,3.4853,3.0832,2.9224,2.2085,0.0,0.0,0.0,0.0,0.0,0.0,0.0,0.0,0.0,0.0,0.0,0.0,0.0,0.0,0.0,0.0,0.0,0.0,0.0,0.0,1.8829,0.0,0.0,0.0,0.0,0.0,0.0,0.0,0.0,0.0,0.0,2.5869,2.9753,3.4002,3.7125,0.0,0.0,0.0,0.0,3.5145,3.4549,3.8551,3.9153,3.1918,3.2533,3.3471,3.2149,0.0,0.0,4.0225,4.6419,5.0,4.5789,4.8026,4.9776,4.8718,4.441,4.0895,3.9261,3.7734,3.689,3.7524,3.9133,4.1146,0.0,0.0,0.0,0.0,0.0,0.0,0.0,0.0,0.0,2.4025,0.0,2.4038,0.0,0.0,0.0,0.0,0.0,0.0,0.0,0.0,3.316,3.5319,3.6065,3.8223,3.7636,0.0,3.3826,3.0355,0.0,0.0,0.0,0.0,0.0,0.0,0.0,0.0,3.3815,3.7898,4.4156,4.726,4.6927,4.6435,4.539,4.3817,4.3465,4.0828,3.5665,3.0732,2.7119,0.0,0.0,0.0,0.0,0.0,0.0,0.0,0.0,0.0,0.0,0.0,0.0,0.0,0.0,0.0,0.0,0.0,0.0,0.0,0.0,0.0,0.0,0.0,1.9678,0.0,0.0,0.0,0.0,0.0,0.0,0.0,0.0,0.0,2.2106,2.743,3.2108,3.4303,3.5874,3.6545,3.5934,0.0,0.0,0.0,0.0,0.0,0.0,0.0,2.6181,2.4699,2.3765,2.487,2.9791,3.9444,4.625,4.5307,0.0,0.0,3.9768,3.7131,3.5785,3.415,3.3127,3.2341,3.1613,3.207,3.271,0.0,0.0,0.0,0.0,0.0,0.0,0.0,0.0,0.0,2.1039,2.0902,0.0,0.0,0.0,0.0,0.0,0.0,0.0,0.0,0.0,0.0,0.0,3.0549,3.2842,0.0,0.0,0.0,0.0,0.0,0.0,0.0,0.0,0.0,0.0,0.0,0.0,3.2256,3.536,4.2503,4.6152,4.5758,4.5171,4.4024,4.2317,4.2321,3.9139,3.227,0.0,0.0,0.0,0.0,0.0,0.0,0.0,0.0,0.0,0.0,0.0,0.0,0.0,0.0,0.0,0.0,0.0,0.0,0.0,0.0,0.0,0.0,0.0,0.0,0.0,1.7873,0.0,0.0,0.0,0.0,0.0,0.0,0.0,0.0,0.0,0.0,0.0,2.8065,3.1237,3.326,3.4799,3.5827,3.6179,3.6455,0.0,0.0,0.0,0.0,0.0,0.0,0.0,0.0,0.0,0.0,0.0,0.0,0.0,0.0,4.1391,3.2251,3.0091,2.9247,2.7901,0.0,0.0,0.0,0.0,0.0,0.0,0.0,0.0,0.0,0.0,0.0,0.0,0.0,0.0,0.0,0.0,0.0,0.0,1.8124,0.0,0.0,0.0,0.0,0.0,0.0,0.0,0.0,0.0,0.0,0.0,0.0,0.0,0.0,0.0,0.0,0.0,0.0,0.0,0.0,0.0,0.0,3.147,3.5211,4.1914,4.5119,4.4748,4.3471,4.2342,4.1145,3.9456,3.6142,3.1054,0.0,0.0,0.0,0.0,0.0,0.0,0.0,0.0,0.0,0.0,0.0,0.0,0.0,0.0,0.0,0.0,0.0,0.0,0.0,0.0,0.0,0.0,0.0,0.0,0.0,0.0,1.5676,1.5919,1.6481,0.0,0.0,0.0,0.0,0.0,0.0,0.0,0.0,0.0,0.0,3.1262,3.3693,3.5323,3.7457,3.7877,3.493,3.131,2.8565,2.7944,2.6636,2.4112,0.0,0.0,0.0,0.0,0.0,0.0,0.0,0.0,0.0,0.0,0.0,0.0,0.0,0.0,0.0,0.0,0.0,0.0,0.0,0.0,0.0,0.0,0.0,0.0,0.0,0.0,0.0,0.0,0.0,0.0,0.0,0.0,0.0,0.0,0.0,0.0,0.0,0.0,0.0,0.0,0.0,0.0,0.0,0.0,0.0,0.0,0.0,0.0,0.0,0.0,0.0,0.0,0.0,0.0,3.2019,3.509,4.2384,4.5595,4.4592,4.4294,4.268,3.9729,3.9248,3.6385,0.0,0.0,0.0,0.0,0.0,0.0,0.0,0.0,0.0,0.0,0.0,0.0,0.0,0.0,0.0,0.0,0.0,0.0,0.0,0.0,0.0,0.0,0.0,0.0,0.0,0.0,0.0,0.0,2.2575,2.1801,1.8994,0.0,0.0,0.0,0.0,0.0,0.0,0.0,0.0,0.0,0.0,3.4364,3.499,3.8407,3.9482,3.5271,3.4299,3.2933,2.999,2.8652,2.6183,2.1079,0.0,0.0,0.0,0.0,0.0,0.0,0.0,0.0,0.0,0.0,0.0,0.0,0.0,0.0,0.0,0.0,0.0,0.0,0.0,0.0,0.0,0.0,0.0,0.0,0.0,0.0,0.0,0.0,0.0,0.0,0.0,0.0,0.0,0.0,0.0,0.0,0.0,0.0,0.0,0.0,0.0,0.0,0.0,0.0,0.0,0.0,0.0,0.0,0.0,0.0,0.0,0.0,0.0,3.1897,3.566,4.2282,4.5254,4.4367,4.3776,4.1919,3.8726,3.8426,3.5304,0.0,0.0,0.0,0.0,0.0,0.0,0.0,0.0,0.0,0.0,0.0,0.0,0.0,0.0,0.0,0.0,0.0,0.0,0.0,0.0,0.0,0.0,0.0,0.0,0.0,0.0,0.0,0.0,2.2286,2.3428,2.1876,0.0,0.0,0.0,0.0,0.0,0.0,0.0,0.0,0.0,0.0,3.4346,3.4516,3.8148,0.0,0.0,3.6437,3.5153,3.3544,3.16,2.8232,2.2455,1.2608,0.0,0.0,0.0,0.0,0.0,0.0,0.0,0.0,0.0,0.0,0.0,0.0,0.0,0.0,0.0,0.0,0.0,0.0,0.0,0.0,0.0,0.0,0.0,0.0,0.0,0.0,0.0,0.0,0.0,0.0,0.0,0.0,0.0,0.0,0.0,0.0,0.0,0.0,0.0,0.0,0.0,0.0,0.0,0.0,0.0,0.0,0.0,0.0,0.0,0.0,0.0,0.0,0.0,3.6778,4.2108,4.467,4.4295,4.2607,4.0679,3.8571,3.7442,3.3542,0.0,0.0,0.0,0.0,0.0,0.0,0.0,0.0,0.0,0.0,0.0,0.0,0.0,0.0,0.0,0.0,0.0,0.0,0.0,0.0,0.0,0.0,0.0,0.0,0.0,0.0,0.0,0.0,0.0,0.0,0.0,0.0,0.0,0.0,0.0,0.0,0.0,0.0,0.0,0.0,0.0,3.4041,3.4332,3.7065,3.947,0.0,0.0,3.5357,3.7264,3.4598,3.0126,2.3723,0.0,0.0,0.0,0.0,0.0,0.0,0.0,0.0,0.0,0.0,0.0,0.0,0.0,0.0,0.0,0.0,0.0,0.0,0.0,0.0,0.0,0.0,0.0,0.0,0.0,0.0,0.0,0.0,0.0,0.0,0.0,0.0,0.0,0.0,0.0,0.0,0.0,0.0,0.0,0.0,0.0,0.0,0.0,0.0,0.0,0.0,0.0,0.0,0.0,0.0,0.0,0.0,0.0,0.0,3.7343,4.4019,4.6954,4.5915,4.5425,4.3611,4.0423,3.9061,0.0,0.0,0.0,0.0,0.0,0.0,0.0,0.0,0.0,0.0,0.0,0.0,0.0,0.0,0.0,0.0,0.0,0.0,0.0,0.0,0.0,0.0,0.0,0.0,0.0,0.0,0.0,0.9856,0.0,0.0,0.0,0.0,0.0,0.0,0.0,0.0,0.0,0.0,0.0,0.0,0.0,0.0,3.5428,3.7763,3.7312,3.6676,0.0,0.0,3.3251,3.3057,3.28,3.1171,0.0,0.0,0.0,0.0,0.0,0.0,0.0,0.0,0.0,0.0,0.0,0.0,0.0,0.0,0.0,0.0,0.0,0.0,0.0,0.0,0.0,0.0,0.0,0.0,0.0,0.0,0.0,0.0,0.0,0.0,0.0,0.0,0.0,0.0,0.0,0.0,0.0,0.0,0.0,0.0,0.0,0.0,0.0,0.0,0.0,0.0,0.0,0.0,0.0,0.0,0.0,0.0,0.0,0.0,3.2254,3.8622,4.3886,4.6937,4.7741,4.7366,4.5427,4.1858,4.0116,3.5422,0.0,0.0,0.0,0.0,0.0,0.0,0.0,0.0,0.0,0.0,0.0,0.0,0.0,0.0,0.0,0.0,0.0,0.0,0.0,0.0,0.0,0.0,0.0,0.0,0.0,0.0,0.0,0.0,0.0,0.0,0.0,0.0,0.0,0.0,0.0,0.0,0.0,0.0,0.0,0.0,0.0,0.0,3.6575,3.5689,0.0,0.0,0.0,3.1273,3.2186,0.0,0.0,0.0,0.0,0.0,0.0,0.0,0.0,0.0,0.0,0.0,0.0,0.0,0.0,0.0,0.0,0.0,0.0,0.0,0.0,0.0,0.0,0.0,0.0,0.0,0.0,0.0,0.0,0.0,0.0,0.0,0.0,0.0,0.0,0.0,0.0,0.0,0.0,0.0,0.0,0.0,0.0,0.0,0.0,0.0,0.0,0.0,0.0,0.0,0.0,0.0,0.0,0.0,0.0,0.0,0.0,0.0,4.0121,4.354,4.677,4.9861,4.8967,4.6804,4.3446,4.119,3.6182,0.0,0.0,0.0,0.0,0.0,0.0,0.0,0.0,0.0,0.0,0.0,0.0,0.0,0.0,0.0,0.0,0.0,0.0,0.0,0.0,0.0,0.0,0.0,0.0,0.0,0.0,0.0,0.0,0.0,0.0,0.0,0.0,0.0,0.0,0.0,0.0,0.0,0.0,0.0,0.0,0.0,4.0714,3.3685,3.3332,3.3226,0.0,0.0,2.895,3.1564,3.1353,0.0,0.0,0.0,0.0,0.0,0.0,0.0,0.0,0.0,0.0,0.0,0.0,0.0,0.0,0.0,0.0,0.0,0.0,0.0,0.0,0.0,0.0,0.0,0.0,0.0,0.0,0.0,0.0,0.0,0.0,0.0,0.0,0.0,0.0,0.0,0.0,0.0,0.0,0.0,0.0,0.0,0.0,0.0,0.0,0.0,0.0,0.0,0.0,0.0,0.0,0.0,0.0,0.0,0.0,0.0,0.0,4.1309,4.7972,5.2045,5.316,5.1479,4.9329,4.6835,4.377,3.7824,0.0,0.0,0.0,0.0,0.0,0.0,0.0,0.0,0.0,0.0,0.0,0.0,0.0,0.0,0.0,0.0,0.0,0.0,0.0,0.0,0.0,0.0,0.0,0.0,0.0,0.0,0.0,0.0,0.0,0.0,0.0,0.0,0.0,0.0,0.0,0.0,0.0,0.0,0.0,0.0,0.0,3.2449,3.4962,3.2991,0.0,0.0,0.0,0.0,2.2892,2.4307,0.0,0.0,0.0,0.0,0.0,0.0,0.0,0.0,0.0,0.0,0.0,0.0,0.0,0.0,0.0,0.0,0.0,0.0,0.0,0.0,0.0,0.0,0.0,0.0,0.0,0.0,0.0,0.0,0.0,0.0,0.0,0.0,0.0,0.0,0.0,0.0,0.0,0.0,0.0,0.0,0.0,0.0,0.0,0.0,0.0,0.0,0.0,0.0,0.0,0.0,0.0,0.0,0.0,0.0,0.0,0.0,4.3847,4.7607,5.1108,5.4531,5.2846,5.066,4.8127,4.4492,3.8621,0.0,0.0,0.0,0.0,0.0,0.0,0.0,0.0,0.0,0.0,0.0,0.0,0.0,0.0,0.0,0.0,0.0,0.0,0.0,0.0,0.0,0.0,0.0,0.0,0.0,0.0,0.0,0.0,0.0,0.0,0.0,0.0,0.0,0.0,0.0,0.0,0.0,0.0,0.0,0.0,2.5324,2.8225,3.3126,0.0,0.0,0.0,0.0,0.0,0.0,1.9347,2.1024,0.0,0.0,0.0,0.0,0.0,0.0,0.0,0.0,0.0,0.0,0.0,0.0,0.0,0.0,0.0,0.0,0.0,0.0,0.0,0.0,0.0,0.0,0.0,0.0,0.0,0.0,0.0,0.0,0.0,0.0,0.0,0.0,0.0,0.0,0.0,0.0,0.0,0.0,0.0,0.0,0.0,0.0,0.0,0.0,0.0,0.0,0.0,0.0,0.0,0.0,0.0,0.0,0.0,0.0,0.0,4.5377,4.5602,4.8729,5.5077,5.3425,5.1321,4.8941,4.4848,3.9258,3.2209,0.0,0.0,0.0,0.0,0.0,0.0,0.0,0.0,0.0,0.0,0.0,0.0,0.0,0.0,0.0,0.0,0.0,0.0,0.0,0.0,0.0,0.0,0.0,0.0,0.0,0.0,0.0,0.0,0.0,0.0,0.0,0.0,0.0,0.0,0.0,0.0,0.0,0.0,0.0,2.266,2.5169,0.0,0.0,0.0,0.0,0.0,0.0,0.0,0.0,1.6388,0.0,0.0,0.0,0.0,0.0,0.0,0.0,0.0,0.0,0.0,0.0,0.0,0.0,0.0,0.0,0.0,0.0,0.0,0.0,0.0,0.0,0.0,0.0,0.0,0.0,0.0,0.0,0.0,0.0,0.0,0.0,0.0,0.0,0.0,0.0,0.0,0.0,0.0,0.0,0.0,0.0,0.0,0.0,0.0,0.0,0.0,0.0,0.0,0.0,0.0,0.0,0.0,0.0,0.0,0.0,0.0,4.4313,4.9752,5.5453,5.2928,5.1334,5.1109,4.6423,4.0447,3.3282,0.0,0.0,0.0,0.0,0.0,0.0,0.0,0.0,0.0,0.0,0.0,0.0,0.0,0.0,0.0,0.0,0.0,0.0,0.0,0.0,0.0,0.0,0.0,0.0,0.0,0.0,0.0,0.0,0.0,0.0,0.0,0.0,0.0,0.0,0.0,0.0,0.0,0.0,1.0713,1.5896,0.0,0.0,0.0,0.0,0.0,0.0,0.0,0.0,0.9713,0.0,0.0,0.0,0.0,0.0,0.0,0.0,0.0,0.0,0.0,0.0,0.0,0.0,0.0,0.0,0.0,0.0,0.0,0.0,0.0,0.0,0.0,0.0,0.0,0.0,0.0,0.0,0.0,0.0,0.0,0.0,0.0,0.0,0.0,0.0,0.0,0.0,0.0,0.0,0.0,0.0,0.0,0.0,0.0,0.0,0.0,0.0,0.0,0.0,0.0,0.0,0.0,0.0,0.0,0.0,0.0,0.0,0.0,4.8495,5.414,5.2286,5.095,5.0506,4.5463,3.9919,0.0,0.0,0.0,0.0,0.0,0.0,0.0,0.0,0.0,0.0,0.0,0.0,0.0,0.0,0.0,0.0,0.0,0.0,0.0,0.0,0.0,0.0,0.0,0.0,0.0,0.0,0.0,0.0,0.0,0.0,0.0,0.0,0.0,0.0,0.0,0.0,0.0,0.0,0.0,0.0,0.0,0.0,0.0,0.0,0.0,0.0,0.0,0.0,0.0,0.0,0.0,0.0,0.0,0.0,0.0,0.0,0.0,0.0,0.0,0.0,0.0,0.0,0.0,0.0,0.0,0.0,0.0,0.0,0.0,0.0,0.0,0.0,0.0,0.0,0.0,0.0,0.0,0.0,0.0,0.0,0.0,0.0,0.0,0.0,0.0,0.0,0.0,0.0,0.0,0.0,0.0,0.0,0.0,0.0,0.0,0.0,0.0,0.0,0.0,0.0,0.0,0.0,0.0,0.0,0.0,0.0,0.0,0.0,4.6537,5.235,5.1355,5.0436,4.9929,4.4256,3.9064,0.0,0.0,0.0,0.0,0.0,0.0,0.0,0.0,0.0,0.0,0.0,0.0,0.0,0.0,0.0,0.0,0.0,0.0,0.0,0.0,0.0,0.0,0.0,0.0,0.0,0.0,0.0,0.0,0.0,0.0,0.0,0.0,0.0,0.0,0.0,0.0,0.0,0.0,0.0,0.0,0.0,0.0,0.0,0.0,0.0,0.0,0.0,0.0,0.8948,0.0,0.0,0.0,0.0,0.0,0.0,0.0,0.0,0.0,0.0,0.0,0.0,0.0,0.0,0.0,0.0,0.0,0.0,0.0,0.0,0.0,0.0,0.0,0.0,0.0,0.0,0.0,0.0,0.0,0.0,0.0,0.0,0.0,0.0,0.0,0.0,0.0,0.0,0.0,0.0,0.0,0.0,0.0,0.0,0.0,0.0,0.0,0.0,0.0,0.0,0.0,0.0,0.0,0.0,0.0,0.0,0.0,0.0,0.0,4.4555,5.0953,4.9871,4.9649,5.0395,4.4065,3.8336,0.0,0.0,0.0,0.0,0.0,0.0,0.0,0.0,0.0,0.0,0.0,0.0,0.0,0.0,0.0,0.0,0.0,0.0,0.0,0.0,0.0,0.0,0.0,0.0,0.0,0.0,0.0,0.0,0.0,0.0,0.0,0.0,0.0,0.0,0.0,0.0,0.0,0.0,0.0,0.0,0.0,0.0,0.0,0.0,0.0,0.0,0.0,0.0,0.0,0.0,0.0,0.0,0.0,0.0,0.0,0.0,0.0,0.0,0.0,0.0,0.0,0.0,0.0,0.0,0.0,0.0,0.0,0.0,0.0,0.0,0.0,0.0,0.0,0.0,0.0,0.0,0.0,0.0,0.0,0.0,0.0,0.0,0.0,0.0,0.0,0.0,0.0,0.0,0.0,0.0,0.0,0.0,0.0,0.0,0.0,0.0,0.0,0.0,0.0,0.0,0.0,0.0,0.0,0.0,0.0,0.0,0.0,0.0,4.088,4.5845,4.7285,4.7841,4.7556,4.1218,3.6367,0.0,0.0,0.0,0.0,0.0,0.0,0.0,0.0,0.0,0.0,0.0,0.0,0.0,0.0,0.0,0.0,0.0,0.0,0.0,0.0,0.0,0.0,0.0,0.0,0.0,0.0,0.0,0.0,0.0,0.0,0.0,0.0,0.0,0.0,0.0,0.0,0.0,0.0,0.0,0.0,0.0,0.0,0.0,0.0,0.0,0.0,0.0,0.0,0.0,0.0,0.0,0.0,0.0,0.0,0.0,0.0,0.0,0.0,0.0,0.0,0.0,0.0,0.0,0.0,0.0,0.0,0.0,0.0,0.0,0.0,0.0,0.0,0.0,0.0,0.0,0.0,0.0,0.0,0.0,0.0,0.0,0.0,0.0,0.0,0.0,0.0,0.0,0.0,0.0,0.0,0.0,0.0,0.0,0.0,0.0,0.0,0.0,0.0,0.0,0.0,0.0,0.0,0.0,0.0,0.0,0.0,0.0,0.0,0.0,4.1678,4.4302,4.4887,4.3212,3.7585,3.3477,0.0,0.0,0.0,0.0,0.0,0.0,0.0,0.0,0.0,0.0,0.0,0.0,0.0,0.0,0.0,0.0,0.0,0.0,0.0,0.0,0.0,0.0,0.0,0.0,0.0,0.0,0.0,0.0,0.0,0.0,0.0,0.0,0.0,0.0,0.0,0.0,0.0,0.0,0.0,0.0,0.0,0.0,0.0,0.0,0.0,0.0,0.0,0.0,0.0,0.0,0.0,0.0,0.0,0.0,0.0,0.0,0.0,0.0,0.0,0.0,0.0,0.0,0.0,0.0,0.0,0.0,0.0,0.0,0.0,0.0,0.0,0.0,0.0,0.0,0.0,0.0,0.0,0.0,0.0,0.0,0.0,0.0,0.0,0.0,0.0,0.0,0.0,0.0,0.0,0.0,0.0,0.0,0.0,0.0,0.0,0.0,0.0,0.0,0.0,0.0,0.0,0.0,0.0,0.0,0.0,0.0,0.0,0.0,0.0,4.0116,4.1063,4.0435,3.8184,3.3496,2.931,0.0,0.0,0.0,0.0,0.0,0.0,0.0,0.0,0.0,0.0,0.0,0.0,0.0,0.0,0.0,0.0,0.0,0.0,0.0,0.0,0.0,0.0,0.0,0.0,0.0,0.0,0.0,0.0,0.0,0.0,0.0,0.0,0.0,0.0,0.0,0.0,0.0,0.0,0.0,0.0,0.0,0.0,0.0,0.0,0.0,0.0,0.0,0.0,0.0,0.0,0.0,0.0,0.0,0.0,0.0,0.0,0.0,0.0,0.0,0.0,0.0,0.0,0.0,0.0,0.0,0.0,0.0,0.0,0.0,0.0,0.0,0.0,0.0,0.0,0.0,0.0,0.0,0.0,0.0,0.0,0.0,0.0,0.0,0.0,0.0,0.0,0.0,0.0,0.0,0.0,0.0,0.0,0.0,0.0,0.0,0.0,0.0,0.0,0.0,0.0,0.0,0.0,0.0,0.0,0.0,0.0,0.0,0.0,0.0,2.9183,3.2243,3.3977,3.3928,2.8912,2.6243,2.6294,0.0,0.0,0.0,0.0,0.0,0.0,0.0,0.0,0.0,0.0,0.0,0.0,0.0,0.0,0.0,0.0,0.0,0.0,0.0,0.0,0.0,0.0,0.0,0.0,0.0,0.0,0.0,0.0,0.0,0.0,0.0,0.0,0.0,0.0,0.0,0.0,0.0,0.0,0.0,0.0,0.0,0.0,0.0,0.0,0.0,0.0,0.0,0.0,0.0,0.0,0.0,0.0,0.0,0.0,0.0,0.0,0.0,0.0,0.0,0.0,0.0,0.0,0.0,0.0,0.0,0.0,0.0,0.0,0.0,0.0,0.0,0.0,0.0,0.0,0.0,0.0,0.0,0.0,0.0,0.0,0.0,0.0,0.0,0.0,0.0,0.0,0.0,0.0,0.0,0.0,0.0,0.0,0.0,0.0,0.0,0.0,0.0,0.0,0.0,0.0,0.0,0.0,0.0,0.0,0.0,0.0,0.0,0.0,2.3115,2.724,2.9568,2.9527,2.5651,2.3529,0.0,0.0,0.0,0.0,0.0,0.0,0.0,0.0,0.0,0.0,0.0,0.0,0.0,0.0,0.0,0.0,0.0,0.0,0.0,0.0,0.0,0.0,0.0,0.0,0.0,0.0,0.0,0.0,0.0,0.0,0.0,0.0,0.0,0.0,0.0,0.0,0.0,0.0,0.0,0.0,0.0,0.0,0.0,0.0,0.0,0.0,0.0,0.0,0.0,0.0,0.0,0.0,0.0,0.0,0.0,0.0,0.0,0.0,0.0,0.0,0.0,0.0,0.0,0.0,0.0,0.0,0.0,0.0,0.0,0.0,0.0,0.0,0.0,0.0,0.0,0.0,0.0,0.0,0.0,0.0,0.0,0.0,0.0,0.0,0.0,0.0,0.0,0.0,0.0,0.0,0.0,0.0,0.0,0.0,0.0,0.0,0.0,0.0,0.0,0.0,0.0,0.0,0.0,0.0,0.0,0.0,0.0,0.0,1.7016,2.404,2.7151,2.7642,2.5471,2.4125,2.1083,0.0,0.0,0.0,0.0,0.0,0.0,0.0,0.0,0.0,0.0,0.0,0.0,0.0,0.0,0.0,0.0,0.0,0.0,0.0,0.0,0.0,0.0,0.0,0.0,0.0,0.0,0.0,0.0,0.0,0.0,0.0,0.0,0.0,0.0,0.0,0.0,0.0,0.0,0.0,0.0,0.0,0.0,0.0,0.0,0.0,0.0,0.0,0.0,0.0,0.0,0.0,0.0,0.0,0.0,0.0,0.0,0.0,0.0,0.0,0.0,0.0,0.0,0.0,0.0,0.0,0.0,0.0,0.0,0.0,0.0,0.0,0.0,0.0,0.0,0.0,0.0,0.0,0.0,0.0,0.0,0.0,0.0,0.0,0.0,0.0,0.0,0.0,0.0,0.0,0.0,0.0,0.0,0.0,0.0,0.0,0.0,0.0,0.0,0.0,0.0,0.0,0.0,0.0,0.0,0.0,0.0,0.0,0.0,0.0,1.611,0.0,2.3336,0.0,2.2726,2.0207,0.0,0.0,0.0,0.0,0.0,0.0,0.0,0.0,0.0,0.0,0.0,0.0,0.0,0.0,0.0,0.0,0.0,0.0,0.0,0.0,0.0,0.0,0.0,0.0,0.0,0.0,0.0,0.0,0.0,0.0,0.0,0.0,0.0,0.0,0.0,0.0,0.0,0.0,0.0,0.0,0.0,0.0,0.0,0.0,0.0,0.0,0.0,0.0,0.0,0.0,0.0,0.0,0.0,0.0,0.0,0.0,0.0,0.0,0.0,0.0,0.0,0.0,0.0,0.0,0.0,0.0,0.0,0.0,0.0,0.0,0.0,0.0,0.0,0.0,0.0,0.0,0.0,0.0,0.0,0.0,0.0,0.0,0.0,0.0,0.0,0.0,0.0,0.0,0.0,0.0,0.0,0.0,0.0,0.0,0.0,0.0,0.0,0.0,0.0,0.0,0.0,0.0,0.0,0.0,0.0,0.0,0.0,0.0,0.0,1.4502,1.6689,2.0718,0.0,2.2133,2.0049,0.0,0.0,0.0,0.0,0.0,0.0,0.0,0.0,0.0,0.0,0.0,0.0,0.0,0.0,0.0,0.0,0.0,0.0,0.0,0.0,0.0,0.0,0.0,0.0,0.0,0.0,0.0,0.0,0.0,0.0,0.0,0.0,0.0,0.0,0.0,0.0,0.0,0.0,0.0,0.0,0.0,0.0,0.0,0.0,0.0,0.0,0.0,0.0,0.0,0.0,0.0,0.0,0.0,0.0,0.0,0.0,0.0,0.0,0.0,0.0,0.0,0.0,0.0,0.0,0.0,0.0,0.0,0.0,0.0,0.0,0.0,0.0,0.0,0.0,0.0,0.0,0.0,0.0,0.0,0.0,0.0,0.0,0.0,0.0,0.0,0.0,0.0,0.0,0.0,0.0,0.0,0.0,0.0,0.0,0.0,0.0,0.0,0.0,0.0,0.0,0.0,0.0,0.0,0.0,0.0,0.0,0.0,0.0,0.0,0.0,1.8328,1.9831,2.2844,2.2137,2.0409,0.0,0.0,0.0,0.0,0.0,0.0,0.0,0.0,0.0,0.0,0.0,0.0,0.0,0.0,0.0,0.0,0.0,0.0,0.0,0.0,0.0,0.0,0.0,0.0,0.0,0.0,0.0,0.0,0.0,0.0,0.0,0.0,0.0,0.0,0.0,0.0,0.0,0.0,0.0,0.0,0.0,0.0,0.0,0.0,0.0,0.0,0.0,0.0,0.0,0.0,0.0,0.0,0.0,0.0,0.0,0.0,0.0,0.0,0.0,0.0,0.0,0.0,0.0,0.0,0.0,0.0,0.0,0.0,0.0,0.0,0.0,0.0,0.0,0.0,0.0,0.0,0.0,0.0,0.0,0.0,0.0,0.0,0.0,0.0,0.0,0.0,0.0,0.0,0.0,0.0,0.0,0.0,0.0,0.0,0.0,0.0,0.0,0.0,0.0,0.0,0.0,0.0,0.0,0.0,0.0,0.0,0.0,0.0,0.0,0.0,1.7656,0.0,2.0175,2.039,1.9832,1.8382,0.0,0.0,0.0,0.0,0.0,0.0,0.0,0.0,0.0,0.0,0.0,0.0,0.0,0.0,0.0,0.0,0.0,0.0,0.0,0.0,0.0,0.0,0.0,0.0,0.0,0.0,0.0,0.0,0.0,0.0,0.0,0.0,0.0,0.0,0.0,0.0,0.0,0.0,0.0,0.0,0.0,0.0,0.0,0.0,0.0,0.0,0.0,0.0,0.0,0.0,0.0,0.0,0.0,0.0,0.0,0.0,0.0,0.0,0.0,0.0,0.0,0.0,0.0,0.0,0.0,0.0,0.0,0.0,0.0,0.0,0.0,0.0,0.0,0.0,0.0,0.0,0.0,0.0,0.0,0.0,0.0,0.0,0.0,0.0,0.0,0.0,0.0,0.0,0.0,0.0,0.0,0.0,0.0,0.0,0.0,0.0,0.0,0.0,0.0,0.0,0.0,0.0,0.0,0.0,0.0,0.0,0.0,0.0,0.0,0.0,0.0,1.8504,1.94,1.9387,0.0,0.0,0.0,0.0,0.0,0.0,0.0,0.0,0.0,0.0,0.0,0.0,0.0,0.0,0.0,0.0,0.0,0.0,0.0,0.0,0.0,0.0,0.0,0.0,0.0,0.0,0.0,0.0,0.0,0.0,0.0,0.0,0.0,0.0,0.0,0.0,0.0,0.0,0.0,0.0,0.0,0.0,0.0,0.0,0.0,0.0,0.0,0.0,0.0,0.0,0.0,0.0,0.0,0.0,0.0,0.0,0.0,0.0,0.0,0.0,0.0,0.0,0.0,0.0,0.0,0.0,0.0,0.0,0.0,0.0,0.0,0.0,0.0,0.0,0.0,0.0,0.0,0.0,0.0,0.0,0.0,0.0,0.0,0.0,0.0,0.0,0.0,0.0,0.0,0.0,0.0,0.0,0.0,0.0,0.0,0.0,0.0,0.0,0.0,0.0,0.0,0.0,0.0,0.0,0.0,0.0,0.0,0.0,0.0,0.0,0.0,1.5409,1.7364,1.8612,0.0,1.774,0.0,0.0,0.0,0.0,0.0,0.0,0.0,0.0,0.0,0.0,0.0,0.0,0.0,0.0,0.0,0.0,0.0,0.0,0.0,0.0,0.0,0.0,0.0,0.0,0.0,0.0,0.0,0.0,0.0,0.0,0.0,0.0,0.0,0.0,0.0,0.0,0.0,0.0,0.0,0.0,0.0,0.0,0.0,0.0,0.0,0.0,0.0,0.0,0.0,0.0,0.0,0.0,0.0,0.0,0.0,0.0,0.0,0.0,0.0,0.0,0.0,0.0,0.0,0.0,0.0,0.0,0.0,0.0,0.0,0.0,0.0,0.0,0.0,0.0,0.0,0.0,0.0,0.0,0.0,0.0,0.0,0.0,0.0,0.0,0.0,0.0,0.0,0.0,0.0,0.0,0.0,0.0,0.0,0.0,0.0,0.0,0.0,0.0,0.0,0.0,0.0,0.0,0.0,0.0,0.0,0.0,0.0,0.0,0.0,0.0,0.0,0.0,1.6161,1.664,1.7051,0.0,0.0,0.0,0.0,0.0,0.0,0.0,0.0,0.0,0.0,0.0,0.0,0.0,0.0,0.0,0.0,0.0,0.0,0.0,0.0,0.0,0.0,0.0,0.0,0.0,0.0,0.0,0.0,0.0,0.0,0.0,0.0,0.0,0.0,0.0,0.0,0.0,0.0,0.0,0.0,0.0,0.0,0.0,0.0,0.0,0.0,0.0,0.0,0.0,0.0,0.0,0.0,0.0,0.0,0.0,0.0,0.0,0.0,0.0,0.0,0.0,0.0,0.0,0.0,0.0,0.0,0.0,0.0,0.0,0.0,0.0,0.0,0.0,0.0,0.0,0.0,0.0,0.0,0.0,0.0,0.0,0.0,0.0,0.0,0.0,0.0,0.0,0.0,0.0,0.0,0.0,0.0,0.0,0.0,0.0,0.0,0.0,0.0,0.0,0.0,0.0,0.0,0.0,0.0,0.0,0.0,0.0,0.0,0.0,0.0,1.2629,1.4019,1.4187,1.4837,1.6113,0.0,0.0,0.0,0.0,0.0,0.0,0.0,0.0,0.0,0.0,0.0,0.0,0.0,0.0,0.0,0.0,0.0,0.0,0.0,0.0,0.0,0.0,0.0,0.0,0.0,0.0,0.0,0.0,0.0,0.0,0.0,0.0,0.0,0.0,0.0,0.0,0.0,0.0,0.0,0.0,0.0,0.0,0.0,0.0,0.0,0.0,0.0,0.0,0.0,0.0,0.0,0.0,0.0,0.0,0.0,0.0,0.0,0.0,0.0,0.0,0.0,0.0,0.0,0.0,0.0,0.0,0.0,0.0,0.0,0.0,0.0,0.0,0.0,0.0,0.0,0.0,0.0,0.0,0.0,0.0,0.0,0.0,0.0,0.0,0.0,0.0,0.0,0.0,0.0,0.0,0.0,0.0,0.0,0.0,0.0,0.0,0.0,0.0,0.0,0.0,0.0,0.0,0.0,0.0,0.0,0.0,0.0,0.0,0.0,0.0,0.0,0.0,0.0,0.0,1.5118,0.0,0.0,0.0,0.0,0.0,0.0,0.0,0.0,0.0,0.0,0.0,0.0,0.0,0.0,0.0,0.0,0.0,0.0,0.0,0.0,0.0,0.0,0.0,0.0,0.0,0.0,0.0,0.0,0.0,0.0,0.0,0.0,0.0,0.0,0.0,0.0,0.0,0.0,0.0,0.0,0.0,0.0,0.0,0.0,0.0,0.0,0.0,0.0,0.0,0.0,0.0,0.0,0.0,0.0,0.0,0.0,0.0,0.0,0.0,0.0,0.0,0.0,0.0,0.0,0.0,0.0,0.0,0.0,0.0,0.0,0.0,0.0,0.0,0.0,0.0,0.0,0.0,0.0,0.0,0.0,0.0,0.0,0.0,0.0,0.0,0.0,0.0,0.0,0.0,0.0,0.0,0.0,0.0,0.0,0.0,0.0,0.0,0.0,0.0,0.0,0.0,0.0,0.0,0.0,0.0,0.0,0.0,0.0,0.0,0.0,0.0,0.0,0.0,0.0,0.0,0.0,0.0,0.0,0.0,0.0,0.0,0.0,0.0,0.0,0.0,0.0,0.0,0.0,0.0,0.0,0.0,0.0,0.0,0.0,0.0,0.0,0.0,0.0,0.0,0.0,0.0,0.0,0.0,0.0,0.0,0.0,0.0,0.0,0.0,0.0,0.0,0.0,0.0,0.0,0.0,0.0,0.0,0.0,0.0,0.0,0.0,0.0,0.0,0.0,0.0,0.0,0.0,0.0,0.0,0.0,0.0,0.0,0.0,0.0,0.0,0.0,0.0,0.0,0.0,0.0,0.0,0.0,0.0,0.0,0.0,0.0,0.0,0.0,0.0,0.0,0.0,0.0,0.0,0.0,0.0,0.0,0.0,0.0,0.0,0.0,0.0,0.0,0.0,0.0,0.0,0.0,0.0,0.0,0.0,0.0,0.0,0.0,0.0,0.0,0.0,0.0,0.0,0.0,0.0,0.0,0.0,0.0,0.0,0.0,0.0,0.0,0.0,0.0,0.0,0.0,0.0,0.0,0.0,0.0,0.0,0.0,0.0,0.0,0.0,0.0,0.0,0.0,0.0,0.0,0.0,0.0,0.0,0.0,0.0,0.0,0.0,0.0,0.0,0.0,0.0,0.0,0.0,0.0,0.0,0.0,0.0,0.0,0.0,0.0,0.0,0.0,0.0,0.0,0.0,0.0,0.0,0.0,0.0,0.0,0.0,0.0,0.0,0.0,0.0,0.0,0.0,0.0,0.0,0.0,0.0,0.0,0.0,0.0,0.0,0.0,0.0,0.0,0.0,0.0,0.0,0.0,0.0,0.0,0.0,0.0,0.0,0.0,0.0,0.0,0.0,0.0,0.0,0.0,0.0,0.0,0.0,0.0,0.0,0.0,0.0,0.0,0.0,0.0,0.0,0.0,0.0,0.0,0.0,0.0,0.0,0.0,0.0,0.0,0.0,0.0,0.0,0.0,0.0,0.0,0.0,0.0,0.0,0.0,0.0,0.0,0.0,0.0,0.0,0.0,0.0,0.0,0.0,0.0,0.0,0.0,0.0,0.0,0.0,0.0,0.0,0.0,0.0,0.0,0.0,0.0,0.0,0.0,0.0,0.0,0.0,0.0,0.0,0.0,0.0,0.0,0.0,0.0,0.0,0.0,0.0,0.0,0.0,0.0,0.0,0.0,0.0,0.0,0.0,0.0,0.0,0.0,0.0,0.0,0.0,0.0,0.0,0.0,0.0,0.0,0.0,0.0,0.0,0.0,0.0,0.0,0.0,0.0,0.0,0.0,0.0,0.0,0.0,0.0,0.0,0.0,0.0,0.0,0.0,0.0,0.0,0.0,0.0,0.0,0.0,0.0,0.0,0.0,0.0,0.0,0.0,0.0,0.0,0.0,0.0,0.0,0.0,0.0,0.0,0.0,0.0,0.0,0.0,0.0,0.0,0.0,0.0,0.0,0.0,0.0,0.0,0.0,0.0,0.0,0.0,0.0,0.0,0.0,0.0,0.0,0.0,0.0,0.0,0.0,0.0,0.0,0.0,0.0,0.0,0.0,0.0,0.0,0.0,0.0,0.0,0.0,0.0,0.0,0.0,0.0,0.0,0.0,0.0,0.0,0.0,0.0,0.0,0.0,0.0,0.0,0.0,0.0,0.0,0.0,0.0,0.0,0.0,0.0,0.0,0.0,0.0,0.0,0.0,0.0,0.0,0.0,0.0,0.0,0.0,0.0,0.0,0.0,0.0,0.0,0.0,0.0,0.0,0.0,0.0,0.0,0.0,0.0,0.0,0.0,0.0,0.0,0.0,0.0,0.0,0.0,0.0,0.0,0.0,0.0,0.0,0.0,0.0,0.0,0.0,0.0,0.0,0.0,0.0,0.0,0.0,0.0,0.0,0.0,0.0,0.0,0.0,0.0,0.0,0.0,0.0,0.0,0.0,0.0,0.0,0.0,0.0,0.0,0.0,0.0,0.0,0.0,0.0,0.0,0.0,0.0,0.0,0.0,0.0,0.0,0.0,0.0,0.0,0.0,0.0,0.0,0.0,0.0,0.0,0.0,0.0,0.0,0.0,0.0,0.0,0.0,0.0,0.0,0.0,0.0,0.0,0.0,0.0,0.0,0.0,0.0,0.0,0.0,0.0,0.0,0.0,0.0,0.0,0.0,0.0,0.0,0.0,0.0,0.0,0.0,0.0,0.0,0.0,0.0,0.0,0.0,0.0,0.0,0.0,0.0,0.0,0.0,0.0,0.0,0.0,0.0,0.0,0.0,0.0,0.0,0.0,0.0,0.0,0.0,0.0,0.0,0.0,0.0,0.0,0.0,0.0,0.0,0.0,0.0,0.0,0.0,0.0,0.0,0.0,0.0,0.0,0.0,0.0,0.0,0.0,0.0,0.0,0.0,0.0,0.0,0.0,0.0,0.0,0.0,0.0,0.0,0.0,0.0,0.0,0.0,0.0,0.0,0.0,0.0,0.0,0.0,0.0,0.0,0.0,0.0,0.0,0.0,0.0,0.0,0.0,0.0,0.0,0.0,0.0,0.0,0.0,0.0,0.0,0.0,0.0,0.0,0.0,0.0,0.0,0.0,0.0,0.0,0.0,0.0,0.0,0.0,0.0,0.0,0.0,0.0,0.0,0.0,0.0,0.0,0.0,0.0,0.0,0.0,0.0,0.0,0.0,0.0,0.0,0.0,0.0,0.0,0.0,0.0,0.0,0.0,0.0,0.0,0.0,0.0,0.0,0.0,0.0,0.0,0.0,0.0,0.0,0.0,0.0,0.0,0.0,0.0,0.0,0.0,0.0,0.0,0.0,0.0,0.0,0.0,0.0,0.0,0.0,0.0,0.0,0.0,0.0,0.0,0.0,0.0,0.0,0.0,0.0,0.0,0.0,0.0,0.0,0.0,0.0,0.0,0.0,0.0,0.0,0.0,0.0,0.0,0.0,0.0,0.0,0.0,0.0,0.0,0.0,0.0,0.0,0.0,0.0,0.0,0.0,0.0,0.0,0.0,0.0,0.0,0.0,0.0,0.0,0.0,0.0,0.0,0.0,0.0,0.0,0.0,0.0,0.0,0.0,0.0,0.0,0.0,0.0,0.0,0.0,0.0,0.0,0.0,0.0,0.0,0.0,0.0,0.0,0.0,0.0,0.0,0.0,0.0,0.0,0.0,0.0,0.0,0.0,0.0,0.0,0.0,0.0,0.0,0.0,0.0,0.0,0.0,0.0,0.0,0.0,0.0,0.0,0.0,0.0,0.0,0.0,0.0,0.0,0.0,0.0,0.0,0.0,0.0,0.0,0.0,0.0,0.0,0.0,0.0,0.0,0.0,0.0,0.0,0.0,0.0,0.0,0.0,0.0,0.0,0.0,0.0,0.0,0.0,0.0,0.0,0.0,0.0,0.0,0.0,0.0,0.0,0.0,0.0,0.0,0.0,0.0,0.0,0.0,0.0,0.0,0.0,0.0,0.0,0.0,0.0,0.0,0.0,0.0,0.0,0.0,0.0,0.0,0.0,0.0,0.0,0.0,0.0,0.0,0.0,0.0,0.0,0.0,0.0,0.0,0.0,0.0,0.0,0.0,0.0,0.0,0.0,0.0,0.0,0.0,0.0,0.0,0.0,0.0,0.0,0.0,0.0,0.0,0.0,0.0,0.0,0.0,0.0,0.0,0.0,0.0,0.0,0.0,0.0,0.0,0.0,0.0,0.0,0.0,0.0,0.0,0.0,0.0,0.0,0.0,0.0,0.0,0.0,0.0,0.0,0.0,0.0,0.0,0.0,0.0,0.0,0.0,0.0,0.0,0.0,0.0,0.0,0.0,0.0,0.0,0.0,0.0,0.0,0.0,0.0,0.0,0.0,0.0,0.0]}]]]